<?xml version="1.0" encoding="UTF-8"?>
<gpx creator="Garmin Connect" version="1.1"
  xsi:schemaLocation="http://www.topografix.com/GPX/1/1 http://www.topografix.com/GPX/11.xsd"
  xmlns:ns3="http://www.garmin.com/xmlschemas/TrackPointExtension/v1"
  xmlns="http://www.topografix.com/GPX/1/1"
  xmlns:xsi="http://www.w3.org/2001/XMLSchema-instance" xmlns:ns2="http://www.garmin.com/xmlschemas/GpxExtensions/v3">
  <metadata>
    <link href="connect.garmin.com">
      <text>Garmin Connect</text>
    </link>
    <time>2026-05-10T09:53:38.000Z</time>
  </metadata>
  <trk>
    <name>Pleumeur-Bodou Gehen</name>
    <type>walking</type>
    <trkseg>
      <trkpt lat="48.79138089716434478759765625" lon="-3.55551808141171932220458984375">
        <ele>6.599999904632568359375</ele>
        <time>2026-05-10T09:53:41.000Z</time>
        <extensions>
          <ns3:TrackPointExtension>
            <ns3:hr>91</ns3:hr>
          </ns3:TrackPointExtension>
        </extensions>
      </trkpt>
      <trkpt lat="48.7913844175636768341064453125" lon="-3.5555481724441051483154296875">
        <ele>6.599999904632568359375</ele>
        <time>2026-05-10T09:53:42.000Z</time>
        <extensions>
          <ns3:TrackPointExtension>
            <ns3:hr>97</ns3:hr>
          </ns3:TrackPointExtension>
        </extensions>
      </trkpt>
      <trkpt lat="48.79139254800975322723388671875" lon="-3.555576168000698089599609375">
        <ele>6.599999904632568359375</ele>
        <time>2026-05-10T09:53:43.000Z</time>
        <extensions>
          <ns3:TrackPointExtension>
            <ns3:hr>101</ns3:hr>
          </ns3:TrackPointExtension>
        </extensions>
      </trkpt>
      <trkpt lat="48.79140009172260761260986328125" lon="-3.55560944415628910064697265625">
        <ele>6.400000095367431640625</ele>
        <time>2026-05-10T09:53:45.000Z</time>
        <extensions>
          <ns3:TrackPointExtension>
            <ns3:hr>104</ns3:hr>
          </ns3:TrackPointExtension>
        </extensions>
      </trkpt>
      <trkpt lat="48.7913944758474826812744140625" lon="-3.55563039891421794891357421875">
        <ele>6.400000095367431640625</ele>
        <time>2026-05-10T09:53:46.000Z</time>
        <extensions>
          <ns3:TrackPointExtension>
            <ns3:atemp>18.0</ns3:atemp>
            <ns3:hr>104</ns3:hr>
          </ns3:TrackPointExtension>
        </extensions>
      </trkpt>
      <trkpt lat="48.79139170981943607330322265625" lon="-3.5556413792073726654052734375">
        <ele>6.599999904632568359375</ele>
        <time>2026-05-10T09:53:48.000Z</time>
        <extensions>
          <ns3:TrackPointExtension>
            <ns3:atemp>18.0</ns3:atemp>
            <ns3:hr>103</ns3:hr>
          </ns3:TrackPointExtension>
        </extensions>
      </trkpt>
      <trkpt lat="48.7913770414888858795166015625" lon="-3.55562101118266582489013671875">
        <ele>6.19999980926513671875</ele>
        <time>2026-05-10T09:53:55.000Z</time>
        <extensions>
          <ns3:TrackPointExtension>
            <ns3:atemp>18.0</ns3:atemp>
            <ns3:hr>100</ns3:hr>
          </ns3:TrackPointExtension>
        </extensions>
      </trkpt>
      <trkpt lat="48.79137461073696613311767578125" lon="-3.55562285520136356353759765625">
        <ele>5.599999904632568359375</ele>
        <time>2026-05-10T09:54:02.000Z</time>
        <extensions>
          <ns3:TrackPointExtension>
            <ns3:atemp>18.0</ns3:atemp>
            <ns3:hr>101</ns3:hr>
          </ns3:TrackPointExtension>
        </extensions>
      </trkpt>
      <trkpt lat="48.791360445320606231689453125" lon="-3.5556162334978580474853515625">
        <ele>5.400000095367431640625</ele>
        <time>2026-05-10T09:54:03.000Z</time>
        <extensions>
          <ns3:TrackPointExtension>
            <ns3:atemp>18.0</ns3:atemp>
            <ns3:hr>102</ns3:hr>
          </ns3:TrackPointExtension>
        </extensions>
      </trkpt>
      <trkpt lat="48.79130177199840545654296875" lon="-3.55555177666246891021728515625">
        <ele>7</ele>
        <time>2026-05-10T09:54:09.000Z</time>
        <extensions>
          <ns3:TrackPointExtension>
            <ns3:atemp>18.0</ns3:atemp>
            <ns3:hr>102</ns3:hr>
          </ns3:TrackPointExtension>
        </extensions>
      </trkpt>
      <trkpt lat="48.791296742856502532958984375" lon="-3.55553450994193553924560546875">
        <ele>7.400000095367431640625</ele>
        <time>2026-05-10T09:54:10.000Z</time>
        <extensions>
          <ns3:TrackPointExtension>
            <ns3:atemp>18.0</ns3:atemp>
            <ns3:hr>101</ns3:hr>
          </ns3:TrackPointExtension>
        </extensions>
      </trkpt>
      <trkpt lat="48.79127201624214649200439453125" lon="-3.55542101897299289703369140625">
        <ele>7.400000095367431640625</ele>
        <time>2026-05-10T09:54:17.000Z</time>
        <extensions>
          <ns3:TrackPointExtension>
            <ns3:atemp>18.0</ns3:atemp>
            <ns3:hr>102</ns3:hr>
          </ns3:TrackPointExtension>
        </extensions>
      </trkpt>
      <trkpt lat="48.79127972759306430816650390625" lon="-3.5553221963346004486083984375">
        <ele>7.400000095367431640625</ele>
        <time>2026-05-10T09:54:23.000Z</time>
        <extensions>
          <ns3:TrackPointExtension>
            <ns3:atemp>19.0</ns3:atemp>
            <ns3:hr>101</ns3:hr>
          </ns3:TrackPointExtension>
        </extensions>
      </trkpt>
      <trkpt lat="48.79128458909690380096435546875" lon="-3.55523427017033100128173828125">
        <ele>6.80000019073486328125</ele>
        <time>2026-05-10T09:54:28.000Z</time>
        <extensions>
          <ns3:TrackPointExtension>
            <ns3:atemp>19.0</ns3:atemp>
            <ns3:hr>101</ns3:hr>
          </ns3:TrackPointExtension>
        </extensions>
      </trkpt>
      <trkpt lat="48.79129062406718730926513671875" lon="-3.55513150803744792938232421875">
        <ele>7</ele>
        <time>2026-05-10T09:54:34.000Z</time>
        <extensions>
          <ns3:TrackPointExtension>
            <ns3:atemp>19.0</ns3:atemp>
            <ns3:hr>101</ns3:hr>
          </ns3:TrackPointExtension>
        </extensions>
      </trkpt>
      <trkpt lat="48.79129515029489994049072265625" lon="-3.5550351999700069427490234375">
        <ele>6.599999904632568359375</ele>
        <time>2026-05-10T09:54:41.000Z</time>
        <extensions>
          <ns3:TrackPointExtension>
            <ns3:atemp>19.0</ns3:atemp>
            <ns3:hr>99</ns3:hr>
          </ns3:TrackPointExtension>
        </extensions>
      </trkpt>
      <trkpt lat="48.79130034707486629486083984375" lon="-3.5549269057810306549072265625">
        <ele>6.19999980926513671875</ele>
        <time>2026-05-10T09:54:47.000Z</time>
        <extensions>
          <ns3:TrackPointExtension>
            <ns3:atemp>19.0</ns3:atemp>
            <ns3:hr>96</ns3:hr>
          </ns3:TrackPointExtension>
        </extensions>
      </trkpt>
      <trkpt lat="48.79130302928388118743896484375" lon="-3.55491039343178272247314453125">
        <ele>6.400000095367431640625</ele>
        <time>2026-05-10T09:54:48.000Z</time>
        <extensions>
          <ns3:TrackPointExtension>
            <ns3:atemp>19.0</ns3:atemp>
            <ns3:hr>96</ns3:hr>
          </ns3:TrackPointExtension>
        </extensions>
      </trkpt>
      <trkpt lat="48.79132029600441455841064453125" lon="-3.55482120998203754425048828125">
        <ele>8.3999996185302734375</ele>
        <time>2026-05-10T09:54:53.000Z</time>
        <extensions>
          <ns3:TrackPointExtension>
            <ns3:atemp>19.0</ns3:atemp>
            <ns3:hr>95</ns3:hr>
          </ns3:TrackPointExtension>
        </extensions>
      </trkpt>
      <trkpt lat="48.79132993519306182861328125" lon="-3.5547696612775325775146484375">
        <ele>8.80000019073486328125</ele>
        <time>2026-05-10T09:54:56.000Z</time>
        <extensions>
          <ns3:TrackPointExtension>
            <ns3:atemp>19.0</ns3:atemp>
            <ns3:hr>96</ns3:hr>
          </ns3:TrackPointExtension>
        </extensions>
      </trkpt>
      <trkpt lat="48.791356422007083892822265625" lon="-3.5546301864087581634521484375">
        <ele>7.80000019073486328125</ele>
        <time>2026-05-10T09:55:04.000Z</time>
        <extensions>
          <ns3:TrackPointExtension>
            <ns3:atemp>19.0</ns3:atemp>
            <ns3:hr>99</ns3:hr>
          </ns3:TrackPointExtension>
        </extensions>
      </trkpt>
      <trkpt lat="48.791366480290889739990234375" lon="-3.55459506623446941375732421875">
        <ele>7.80000019073486328125</ele>
        <time>2026-05-10T09:55:06.000Z</time>
        <extensions>
          <ns3:TrackPointExtension>
            <ns3:atemp>19.0</ns3:atemp>
            <ns3:hr>100</ns3:hr>
          </ns3:TrackPointExtension>
        </extensions>
      </trkpt>
      <trkpt lat="48.7913706712424755096435546875" lon="-3.5545547492802143096923828125">
        <ele>8.3999996185302734375</ele>
        <time>2026-05-10T09:55:12.000Z</time>
        <extensions>
          <ns3:TrackPointExtension>
            <ns3:atemp>19.0</ns3:atemp>
            <ns3:hr>102</ns3:hr>
          </ns3:TrackPointExtension>
        </extensions>
      </trkpt>
      <trkpt lat="48.7913788855075836181640625" lon="-3.55451828800141811370849609375">
        <ele>7.19999980926513671875</ele>
        <time>2026-05-10T09:55:18.000Z</time>
        <extensions>
          <ns3:TrackPointExtension>
            <ns3:atemp>18.0</ns3:atemp>
            <ns3:hr>102</ns3:hr>
          </ns3:TrackPointExtension>
        </extensions>
      </trkpt>
      <trkpt lat="48.79138248972594738006591796875" lon="-3.5545047931373119354248046875">
        <ele>7.19999980926513671875</ele>
        <time>2026-05-10T09:55:19.000Z</time>
        <extensions>
          <ns3:TrackPointExtension>
            <ns3:atemp>18.0</ns3:atemp>
            <ns3:hr>101</ns3:hr>
          </ns3:TrackPointExtension>
        </extensions>
      </trkpt>
      <trkpt lat="48.79140109755098819732666015625" lon="-3.55444218032062053680419921875">
        <ele>8.19999980926513671875</ele>
        <time>2026-05-10T09:55:23.000Z</time>
        <extensions>
          <ns3:TrackPointExtension>
            <ns3:atemp>18.0</ns3:atemp>
            <ns3:hr>101</ns3:hr>
          </ns3:TrackPointExtension>
        </extensions>
      </trkpt>
      <trkpt lat="48.7914172746241092681884765625" lon="-3.55438300408422946929931640625">
        <ele>9.3999996185302734375</ele>
        <time>2026-05-10T09:55:27.000Z</time>
        <extensions>
          <ns3:TrackPointExtension>
            <ns3:atemp>18.0</ns3:atemp>
            <ns3:hr>99</ns3:hr>
          </ns3:TrackPointExtension>
        </extensions>
      </trkpt>
      <trkpt lat="48.79144258797168731689453125" lon="-3.55428962968289852142333984375">
        <ele>8.6000003814697265625</ele>
        <time>2026-05-10T09:55:33.000Z</time>
        <extensions>
          <ns3:TrackPointExtension>
            <ns3:atemp>18.0</ns3:atemp>
            <ns3:hr>99</ns3:hr>
          </ns3:TrackPointExtension>
        </extensions>
      </trkpt>
      <trkpt lat="48.79144652746617794036865234375" lon="-3.5542769730091094970703125">
        <ele>8.3999996185302734375</ele>
        <time>2026-05-10T09:55:34.000Z</time>
        <extensions>
          <ns3:TrackPointExtension>
            <ns3:atemp>18.0</ns3:atemp>
            <ns3:hr>99</ns3:hr>
          </ns3:TrackPointExtension>
        </extensions>
      </trkpt>
      <trkpt lat="48.79148550331592559814453125" lon="-3.55413406156003475189208984375">
        <ele>7.599999904632568359375</ele>
        <time>2026-05-10T09:55:43.000Z</time>
        <extensions>
          <ns3:TrackPointExtension>
            <ns3:atemp>18.0</ns3:atemp>
            <ns3:hr>102</ns3:hr>
          </ns3:TrackPointExtension>
        </extensions>
      </trkpt>
      <trkpt lat="48.7914963997900485992431640625" lon="-3.55409785173833370208740234375">
        <ele>7.400000095367431640625</ele>
        <time>2026-05-10T09:55:45.000Z</time>
        <extensions>
          <ns3:TrackPointExtension>
            <ns3:atemp>18.0</ns3:atemp>
            <ns3:hr>104</ns3:hr>
          </ns3:TrackPointExtension>
        </extensions>
      </trkpt>
      <trkpt lat="48.79151408560574054718017578125" lon="-3.5540290363132953643798828125">
        <ele>8.6000003814697265625</ele>
        <time>2026-05-10T09:55:49.000Z</time>
        <extensions>
          <ns3:TrackPointExtension>
            <ns3:atemp>18.0</ns3:atemp>
            <ns3:hr>105</ns3:hr>
          </ns3:TrackPointExtension>
        </extensions>
      </trkpt>
      <trkpt lat="48.7915242277085781097412109375" lon="-3.55402828194200992584228515625">
        <ele>8.80000019073486328125</ele>
        <time>2026-05-10T09:55:51.000Z</time>
        <extensions>
          <ns3:TrackPointExtension>
            <ns3:atemp>18.0</ns3:atemp>
            <ns3:hr>105</ns3:hr>
          </ns3:TrackPointExtension>
        </extensions>
      </trkpt>
      <trkpt lat="48.79152464680373668670654296875" lon="-3.55403959751129150390625">
        <ele>8.6000003814697265625</ele>
        <time>2026-05-10T09:55:52.000Z</time>
        <extensions>
          <ns3:TrackPointExtension>
            <ns3:atemp>18.0</ns3:atemp>
            <ns3:hr>104</ns3:hr>
          </ns3:TrackPointExtension>
        </extensions>
      </trkpt>
      <trkpt lat="48.79152850247919559478759765625" lon="-3.55408678762614727020263671875">
        <ele>7.599999904632568359375</ele>
        <time>2026-05-10T09:55:57.000Z</time>
        <extensions>
          <ns3:TrackPointExtension>
            <ns3:atemp>18.0</ns3:atemp>
            <ns3:hr>104</ns3:hr>
          </ns3:TrackPointExtension>
        </extensions>
      </trkpt>
      <trkpt lat="48.7915316037833690643310546875" lon="-3.55409651063382625579833984375">
        <ele>7.19999980926513671875</ele>
        <time>2026-05-10T09:55:58.000Z</time>
        <extensions>
          <ns3:TrackPointExtension>
            <ns3:atemp>18.0</ns3:atemp>
            <ns3:hr>104</ns3:hr>
          </ns3:TrackPointExtension>
        </extensions>
      </trkpt>
      <trkpt lat="48.7915384769439697265625" lon="-3.554128110408782958984375">
        <ele>6.400000095367431640625</ele>
        <time>2026-05-10T09:56:00.000Z</time>
        <extensions>
          <ns3:TrackPointExtension>
            <ns3:atemp>18.0</ns3:atemp>
            <ns3:hr>104</ns3:hr>
          </ns3:TrackPointExtension>
        </extensions>
      </trkpt>
      <trkpt lat="48.7915557436645030975341796875" lon="-3.55416524223983287811279296875">
        <ele>6.599999904632568359375</ele>
        <time>2026-05-10T09:56:04.000Z</time>
        <extensions>
          <ns3:TrackPointExtension>
            <ns3:atemp>18.0</ns3:atemp>
            <ns3:hr>104</ns3:hr>
          </ns3:TrackPointExtension>
        </extensions>
      </trkpt>
      <trkpt lat="48.7915651313960552215576171875" lon="-3.554180078208446502685546875">
        <ele>7</ele>
        <time>2026-05-10T09:56:11.000Z</time>
        <extensions>
          <ns3:TrackPointExtension>
            <ns3:atemp>18.0</ns3:atemp>
            <ns3:hr>101</ns3:hr>
          </ns3:TrackPointExtension>
        </extensions>
      </trkpt>
      <trkpt lat="48.7915808893740177154541015625" lon="-3.55419441126286983489990234375">
        <ele>7.599999904632568359375</ele>
        <time>2026-05-10T09:56:13.000Z</time>
        <extensions>
          <ns3:TrackPointExtension>
            <ns3:atemp>18.0</ns3:atemp>
            <ns3:hr>100</ns3:hr>
          </ns3:TrackPointExtension>
        </extensions>
      </trkpt>
      <trkpt lat="48.7916100583970546722412109375" lon="-3.554210253059864044189453125">
        <ele>7.19999980926513671875</ele>
        <time>2026-05-10T09:56:16.000Z</time>
        <extensions>
          <ns3:TrackPointExtension>
            <ns3:atemp>18.0</ns3:atemp>
            <ns3:hr>100</ns3:hr>
          </ns3:TrackPointExtension>
        </extensions>
      </trkpt>
      <trkpt lat="48.79166495986282825469970703125" lon="-3.5542526654899120330810546875">
        <ele>7</ele>
        <time>2026-05-10T09:56:22.000Z</time>
        <extensions>
          <ns3:TrackPointExtension>
            <ns3:atemp>18.0</ns3:atemp>
            <ns3:hr>100</ns3:hr>
          </ns3:TrackPointExtension>
        </extensions>
      </trkpt>
      <trkpt lat="48.79173000343143939971923828125" lon="-3.55430773459374904632568359375">
        <ele>6.80000019073486328125</ele>
        <time>2026-05-10T09:56:29.000Z</time>
        <extensions>
          <ns3:TrackPointExtension>
            <ns3:atemp>18.0</ns3:atemp>
            <ns3:hr>101</ns3:hr>
          </ns3:TrackPointExtension>
        </extensions>
      </trkpt>
      <trkpt lat="48.79174307920038700103759765625" lon="-3.55431997217237949371337890625">
        <ele>6.19999980926513671875</ele>
        <time>2026-05-10T09:56:30.000Z</time>
        <extensions>
          <ns3:TrackPointExtension>
            <ns3:atemp>18.0</ns3:atemp>
            <ns3:hr>101</ns3:hr>
          </ns3:TrackPointExtension>
        </extensions>
      </trkpt>
      <trkpt lat="48.79178616218268871307373046875" lon="-3.5543824173510074615478515625">
        <ele>6.599999904632568359375</ele>
        <time>2026-05-10T09:56:35.000Z</time>
        <extensions>
          <ns3:TrackPointExtension>
            <ns3:atemp>18.0</ns3:atemp>
            <ns3:hr>102</ns3:hr>
          </ns3:TrackPointExtension>
        </extensions>
      </trkpt>
      <trkpt lat="48.79185522906482219696044921875" lon="-3.5544632188975811004638671875">
        <ele>6.599999904632568359375</ele>
        <time>2026-05-10T09:56:43.000Z</time>
        <extensions>
          <ns3:TrackPointExtension>
            <ns3:atemp>18.0</ns3:atemp>
            <ns3:hr>103</ns3:hr>
          </ns3:TrackPointExtension>
        </extensions>
      </trkpt>
      <trkpt lat="48.791888169944286346435546875" lon="-3.5544997639954090118408203125">
        <ele>6.599999904632568359375</ele>
        <time>2026-05-10T09:56:48.000Z</time>
        <extensions>
          <ns3:TrackPointExtension>
            <ns3:atemp>18.0</ns3:atemp>
            <ns3:hr>102</ns3:hr>
          </ns3:TrackPointExtension>
        </extensions>
      </trkpt>
      <trkpt lat="48.791944496333599090576171875" lon="-3.5545638017356395721435546875">
        <ele>5.80000019073486328125</ele>
        <time>2026-05-10T09:56:55.000Z</time>
        <extensions>
          <ns3:TrackPointExtension>
            <ns3:atemp>18.0</ns3:atemp>
            <ns3:hr>98</ns3:hr>
          </ns3:TrackPointExtension>
        </extensions>
      </trkpt>
      <trkpt lat="48.7919533811509609222412109375" lon="-3.55456707067787647247314453125">
        <ele>5.80000019073486328125</ele>
        <time>2026-05-10T09:56:56.000Z</time>
        <extensions>
          <ns3:TrackPointExtension>
            <ns3:atemp>18.0</ns3:atemp>
            <ns3:hr>97</ns3:hr>
          </ns3:TrackPointExtension>
        </extensions>
      </trkpt>
      <trkpt lat="48.79197140224277973175048828125" lon="-3.5545800626277923583984375">
        <ele>5.400000095367431640625</ele>
        <time>2026-05-10T09:57:02.000Z</time>
        <extensions>
          <ns3:TrackPointExtension>
            <ns3:atemp>18.0</ns3:atemp>
            <ns3:hr>96</ns3:hr>
          </ns3:TrackPointExtension>
        </extensions>
      </trkpt>
      <trkpt lat="48.79199503920972347259521484375" lon="-3.5545815713703632354736328125">
        <ele>5.400000095367431640625</ele>
        <time>2026-05-10T09:57:09.000Z</time>
        <extensions>
          <ns3:TrackPointExtension>
            <ns3:atemp>18.0</ns3:atemp>
            <ns3:hr>93</ns3:hr>
          </ns3:TrackPointExtension>
        </extensions>
      </trkpt>
      <trkpt lat="48.79199520684778690338134765625" lon="-3.5545835830271244049072265625">
        <ele>5.599999904632568359375</ele>
        <time>2026-05-10T09:57:11.000Z</time>
        <extensions>
          <ns3:TrackPointExtension>
            <ns3:atemp>18.0</ns3:atemp>
            <ns3:hr>92</ns3:hr>
          </ns3:TrackPointExtension>
        </extensions>
      </trkpt>
      <trkpt lat="48.79197559319436550140380859375" lon="-3.55457494966685771942138671875">
        <ele>5.19999980926513671875</ele>
        <time>2026-05-10T09:57:15.000Z</time>
        <extensions>
          <ns3:TrackPointExtension>
            <ns3:atemp>18.0</ns3:atemp>
            <ns3:hr>92</ns3:hr>
          </ns3:TrackPointExtension>
        </extensions>
      </trkpt>
      <trkpt lat="48.79197559319436550140380859375" lon="-3.55457494966685771942138671875">
        <ele>5.19999980926513671875</ele>
        <time>2026-05-10T09:57:16.000Z</time>
        <extensions>
          <ns3:TrackPointExtension>
            <ns3:atemp>20.0</ns3:atemp>
            <ns3:hr>93</ns3:hr>
          </ns3:TrackPointExtension>
        </extensions>
      </trkpt>
      <trkpt lat="48.79197559319436550140380859375" lon="-3.55457494966685771942138671875">
        <ele>4.19999980926513671875</ele>
        <time>2026-05-10T09:57:22.000Z</time>
        <extensions>
          <ns3:TrackPointExtension>
            <ns3:atemp>20.0</ns3:atemp>
            <ns3:hr>92</ns3:hr>
          </ns3:TrackPointExtension>
        </extensions>
      </trkpt>
      <trkpt lat="48.79197559319436550140380859375" lon="-3.55457494966685771942138671875">
        <ele>4.19999980926513671875</ele>
        <time>2026-05-10T09:57:23.000Z</time>
        <extensions>
          <ns3:TrackPointExtension>
            <ns3:atemp>20.0</ns3:atemp>
            <ns3:hr>91</ns3:hr>
          </ns3:TrackPointExtension>
        </extensions>
      </trkpt>
      <trkpt lat="48.791984729468822479248046875" lon="-3.554581739008426666259765625">
        <ele>4</ele>
        <time>2026-05-10T09:57:26.000Z</time>
        <extensions>
          <ns3:TrackPointExtension>
            <ns3:atemp>20.0</ns3:atemp>
            <ns3:hr>88</ns3:hr>
          </ns3:TrackPointExtension>
        </extensions>
      </trkpt>
      <trkpt lat="48.79198548384010791778564453125" lon="-3.55458199046552181243896484375">
        <ele>4.19999980926513671875</ele>
        <time>2026-05-10T09:57:30.000Z</time>
        <extensions>
          <ns3:TrackPointExtension>
            <ns3:atemp>20.0</ns3:atemp>
            <ns3:hr>86</ns3:hr>
          </ns3:TrackPointExtension>
        </extensions>
      </trkpt>
      <trkpt lat="48.79197559319436550140380859375" lon="-3.55457494966685771942138671875">
        <ele>4.599999904632568359375</ele>
        <time>2026-05-10T09:57:34.000Z</time>
        <extensions>
          <ns3:TrackPointExtension>
            <ns3:atemp>20.0</ns3:atemp>
            <ns3:hr>82</ns3:hr>
          </ns3:TrackPointExtension>
        </extensions>
      </trkpt>
      <trkpt lat="48.7919859029352664947509765625" lon="-3.5545798949897289276123046875">
        <ele>4.599999904632568359375</ele>
        <time>2026-05-10T09:57:37.000Z</time>
        <extensions>
          <ns3:TrackPointExtension>
            <ns3:atemp>20.0</ns3:atemp>
            <ns3:hr>79</ns3:hr>
          </ns3:TrackPointExtension>
        </extensions>
      </trkpt>
      <trkpt lat="48.79198950715363025665283203125" lon="-3.55458165518939495086669921875">
        <ele>5</ele>
        <time>2026-05-10T09:57:43.000Z</time>
        <extensions>
          <ns3:TrackPointExtension>
            <ns3:atemp>20.0</ns3:atemp>
            <ns3:hr>79</ns3:hr>
          </ns3:TrackPointExtension>
        </extensions>
      </trkpt>
      <trkpt lat="48.79198950715363025665283203125" lon="-3.55458165518939495086669921875">
        <ele>5.19999980926513671875</ele>
        <time>2026-05-10T09:57:48.000Z</time>
        <extensions>
          <ns3:TrackPointExtension>
            <ns3:atemp>20.0</ns3:atemp>
            <ns3:hr>81</ns3:hr>
          </ns3:TrackPointExtension>
        </extensions>
      </trkpt>
      <trkpt lat="48.79198950715363025665283203125" lon="-3.55458165518939495086669921875">
        <ele>5.599999904632568359375</ele>
        <time>2026-05-10T09:57:51.000Z</time>
        <extensions>
          <ns3:TrackPointExtension>
            <ns3:atemp>20.0</ns3:atemp>
            <ns3:hr>84</ns3:hr>
          </ns3:TrackPointExtension>
        </extensions>
      </trkpt>
      <trkpt lat="48.79199445247650146484375" lon="-3.55456455610692501068115234375">
        <ele>4.80000019073486328125</ele>
        <time>2026-05-10T09:58:01.000Z</time>
        <extensions>
          <ns3:TrackPointExtension>
            <ns3:atemp>20.0</ns3:atemp>
            <ns3:hr>82</ns3:hr>
          </ns3:TrackPointExtension>
        </extensions>
      </trkpt>
      <trkpt lat="48.79199822433292865753173828125" lon="-3.55460076592862606048583984375">
        <ele>4.80000019073486328125</ele>
        <time>2026-05-10T09:58:07.000Z</time>
        <extensions>
          <ns3:TrackPointExtension>
            <ns3:atemp>20.0</ns3:atemp>
            <ns3:hr>82</ns3:hr>
          </ns3:TrackPointExtension>
        </extensions>
      </trkpt>
      <trkpt lat="48.79200291819870471954345703125" lon="-3.55461082421243190765380859375">
        <ele>5</ele>
        <time>2026-05-10T09:58:13.000Z</time>
        <extensions>
          <ns3:TrackPointExtension>
            <ns3:atemp>20.0</ns3:atemp>
            <ns3:hr>84</ns3:hr>
          </ns3:TrackPointExtension>
        </extensions>
      </trkpt>
      <trkpt lat="48.79199805669486522674560546875" lon="-3.55460084974765777587890625">
        <ele>5</ele>
        <time>2026-05-10T09:58:16.000Z</time>
        <extensions>
          <ns3:TrackPointExtension>
            <ns3:atemp>20.0</ns3:atemp>
            <ns3:hr>83</ns3:hr>
          </ns3:TrackPointExtension>
        </extensions>
      </trkpt>
      <trkpt lat="48.7920013256371021270751953125" lon="-3.55461568571627140045166015625">
        <ele>5</ele>
        <time>2026-05-10T09:58:19.000Z</time>
        <extensions>
          <ns3:TrackPointExtension>
            <ns3:atemp>20.0</ns3:atemp>
            <ns3:hr>83</ns3:hr>
          </ns3:TrackPointExtension>
        </extensions>
      </trkpt>
      <trkpt lat="48.79200006835162639617919921875" lon="-3.55462230741977691650390625">
        <ele>4.400000095367431640625</ele>
        <time>2026-05-10T09:58:26.000Z</time>
        <extensions>
          <ns3:TrackPointExtension>
            <ns3:atemp>20.0</ns3:atemp>
            <ns3:hr>83</ns3:hr>
          </ns3:TrackPointExtension>
        </extensions>
      </trkpt>
      <trkpt lat="48.79199805669486522674560546875" lon="-3.55460084974765777587890625">
        <ele>4.400000095367431640625</ele>
        <time>2026-05-10T09:58:32.000Z</time>
        <extensions>
          <ns3:TrackPointExtension>
            <ns3:atemp>20.0</ns3:atemp>
            <ns3:hr>83</ns3:hr>
          </ns3:TrackPointExtension>
        </extensions>
      </trkpt>
      <trkpt lat="48.792028985917568206787109375" lon="-3.55460395105183124542236328125">
        <ele>4.19999980926513671875</ele>
        <time>2026-05-10T09:58:43.000Z</time>
        <extensions>
          <ns3:TrackPointExtension>
            <ns3:atemp>20.0</ns3:atemp>
            <ns3:hr>85</ns3:hr>
          </ns3:TrackPointExtension>
        </extensions>
      </trkpt>
      <trkpt lat="48.79206092096865177154541015625" lon="-3.55468492023646831512451171875">
        <ele>4.400000095367431640625</ele>
        <time>2026-05-10T09:58:48.000Z</time>
        <extensions>
          <ns3:TrackPointExtension>
            <ns3:atemp>20.0</ns3:atemp>
            <ns3:hr>86</ns3:hr>
          </ns3:TrackPointExtension>
        </extensions>
      </trkpt>
      <trkpt lat="48.792067877948284149169921875" lon="-3.554718531668186187744140625">
        <ele>4</ele>
        <time>2026-05-10T09:58:50.000Z</time>
        <extensions>
          <ns3:TrackPointExtension>
            <ns3:atemp>20.0</ns3:atemp>
            <ns3:hr>86</ns3:hr>
          </ns3:TrackPointExtension>
        </extensions>
      </trkpt>
      <trkpt lat="48.792099058628082275390625" lon="-3.55480159632861614227294921875">
        <ele>3.7999999523162841796875</ele>
        <time>2026-05-10T09:58:56.000Z</time>
        <extensions>
          <ns3:TrackPointExtension>
            <ns3:atemp>20.0</ns3:atemp>
            <ns3:hr>86</ns3:hr>
          </ns3:TrackPointExtension>
        </extensions>
      </trkpt>
      <trkpt lat="48.7921486794948577880859375" lon="-3.55482607148587703704833984375">
        <ele>3.7999999523162841796875</ele>
        <time>2026-05-10T09:59:03.000Z</time>
        <extensions>
          <ns3:TrackPointExtension>
            <ns3:atemp>20.0</ns3:atemp>
            <ns3:hr>87</ns3:hr>
          </ns3:TrackPointExtension>
        </extensions>
      </trkpt>
      <trkpt lat="48.79220626316964626312255859375" lon="-3.55487435124814510345458984375">
        <ele>3.7999999523162841796875</ele>
        <time>2026-05-10T09:59:10.000Z</time>
        <extensions>
          <ns3:TrackPointExtension>
            <ns3:atemp>20.0</ns3:atemp>
            <ns3:hr>88</ns3:hr>
          </ns3:TrackPointExtension>
        </extensions>
      </trkpt>
      <trkpt lat="48.79225571639835834503173828125" lon="-3.554919026792049407958984375">
        <ele>4.19999980926513671875</ele>
        <time>2026-05-10T09:59:16.000Z</time>
        <extensions>
          <ns3:TrackPointExtension>
            <ns3:atemp>21.0</ns3:atemp>
            <ns3:hr>89</ns3:hr>
          </ns3:TrackPointExtension>
        </extensions>
      </trkpt>
      <trkpt lat="48.79228253848850727081298828125" lon="-3.554931096732616424560546875">
        <ele>4.19999980926513671875</ele>
        <time>2026-05-10T09:59:19.000Z</time>
        <extensions>
          <ns3:TrackPointExtension>
            <ns3:atemp>21.0</ns3:atemp>
            <ns3:hr>92</ns3:hr>
          </ns3:TrackPointExtension>
        </extensions>
      </trkpt>
      <trkpt lat="48.792330734431743621826171875" lon="-3.55493419803678989410400390625">
        <ele>4.80000019073486328125</ele>
        <time>2026-05-10T09:59:24.000Z</time>
        <extensions>
          <ns3:TrackPointExtension>
            <ns3:atemp>21.0</ns3:atemp>
            <ns3:hr>91</ns3:hr>
          </ns3:TrackPointExtension>
        </extensions>
      </trkpt>
      <trkpt lat="48.7923577241599559783935546875" lon="-3.55493101291358470916748046875">
        <ele>5.19999980926513671875</ele>
        <time>2026-05-10T09:59:27.000Z</time>
        <extensions>
          <ns3:TrackPointExtension>
            <ns3:atemp>21.0</ns3:atemp>
            <ns3:hr>92</ns3:hr>
          </ns3:TrackPointExtension>
        </extensions>
      </trkpt>
      <trkpt lat="48.79241882823407649993896484375" lon="-3.55493872426450252532958984375">
        <ele>4.599999904632568359375</ele>
        <time>2026-05-10T09:59:34.000Z</time>
        <extensions>
          <ns3:TrackPointExtension>
            <ns3:atemp>21.0</ns3:atemp>
            <ns3:hr>93</ns3:hr>
          </ns3:TrackPointExtension>
        </extensions>
      </trkpt>
      <trkpt lat="48.79248152486979961395263671875" lon="-3.554994799196720123291015625">
        <ele>5</ele>
        <time>2026-05-10T09:59:42.000Z</time>
        <extensions>
          <ns3:TrackPointExtension>
            <ns3:atemp>21.0</ns3:atemp>
            <ns3:hr>94</ns3:hr>
          </ns3:TrackPointExtension>
        </extensions>
      </trkpt>
      <trkpt lat="48.7925495021045207977294921875" lon="-3.5550559870898723602294921875">
        <ele>4.19999980926513671875</ele>
        <time>2026-05-10T09:59:51.000Z</time>
        <extensions>
          <ns3:TrackPointExtension>
            <ns3:atemp>21.0</ns3:atemp>
            <ns3:hr>93</ns3:hr>
          </ns3:TrackPointExtension>
        </extensions>
      </trkpt>
      <trkpt lat="48.79258261062204837799072265625" lon="-3.55514709837734699249267578125">
        <ele>4.19999980926513671875</ele>
        <time>2026-05-10T09:59:58.000Z</time>
        <extensions>
          <ns3:TrackPointExtension>
            <ns3:atemp>21.0</ns3:atemp>
            <ns3:hr>92</ns3:hr>
          </ns3:TrackPointExtension>
        </extensions>
      </trkpt>
      <trkpt lat="48.7925890646874904632568359375" lon="-3.555158078670501708984375">
        <ele>4.19999980926513671875</ele>
        <time>2026-05-10T09:59:59.000Z</time>
        <extensions>
          <ns3:TrackPointExtension>
            <ns3:atemp>21.0</ns3:atemp>
            <ns3:hr>92</ns3:hr>
          </ns3:TrackPointExtension>
        </extensions>
      </trkpt>
      <trkpt lat="48.79259903915226459503173828125" lon="-3.55518582276999950408935546875">
        <ele>4</ele>
        <time>2026-05-10T10:00:04.000Z</time>
        <extensions>
          <ns3:TrackPointExtension>
            <ns3:atemp>21.0</ns3:atemp>
            <ns3:hr>91</ns3:hr>
          </ns3:TrackPointExtension>
        </extensions>
      </trkpt>
      <trkpt lat="48.7926328182220458984375" lon="-3.55523862875998020172119140625">
        <ele>3.599999904632568359375</ele>
        <time>2026-05-10T10:00:10.000Z</time>
        <extensions>
          <ns3:TrackPointExtension>
            <ns3:atemp>21.0</ns3:atemp>
            <ns3:hr>90</ns3:hr>
          </ns3:TrackPointExtension>
        </extensions>
      </trkpt>
      <trkpt lat="48.79265033639967441558837890625" lon="-3.555246256291866302490234375">
        <ele>3.2000000476837158203125</ele>
        <time>2026-05-10T10:00:14.000Z</time>
        <extensions>
          <ns3:TrackPointExtension>
            <ns3:atemp>21.0</ns3:atemp>
            <ns3:hr>89</ns3:hr>
          </ns3:TrackPointExtension>
        </extensions>
      </trkpt>
      <trkpt lat="48.79265804775059223175048828125" lon="-3.55524617247283458709716796875">
        <ele>3.2000000476837158203125</ele>
        <time>2026-05-10T10:00:15.000Z</time>
        <extensions>
          <ns3:TrackPointExtension>
            <ns3:atemp>21.0</ns3:atemp>
            <ns3:hr>88</ns3:hr>
          </ns3:TrackPointExtension>
        </extensions>
      </trkpt>
      <trkpt lat="48.79266827367246150970458984375" lon="-3.55524617247283458709716796875">
        <ele>3.400000095367431640625</ele>
        <time>2026-05-10T10:00:16.000Z</time>
        <extensions>
          <ns3:TrackPointExtension>
            <ns3:atemp>22.0</ns3:atemp>
            <ns3:hr>87</ns3:hr>
          </ns3:TrackPointExtension>
        </extensions>
      </trkpt>
      <trkpt lat="48.79271336831152439117431640625" lon="-3.55526260100305080413818359375">
        <ele>3.400000095367431640625</ele>
        <time>2026-05-10T10:00:22.000Z</time>
        <extensions>
          <ns3:TrackPointExtension>
            <ns3:atemp>22.0</ns3:atemp>
            <ns3:hr>84</ns3:hr>
          </ns3:TrackPointExtension>
        </extensions>
      </trkpt>
      <trkpt lat="48.7927389331161975860595703125" lon="-3.55526461265981197357177734375">
        <ele>3</ele>
        <time>2026-05-10T10:00:26.000Z</time>
        <extensions>
          <ns3:TrackPointExtension>
            <ns3:atemp>22.0</ns3:atemp>
            <ns3:hr>81</ns3:hr>
          </ns3:TrackPointExtension>
        </extensions>
      </trkpt>
      <trkpt lat="48.79275527782738208770751953125" lon="-3.5552635230123996734619140625">
        <ele>3.2000000476837158203125</ele>
        <time>2026-05-10T10:00:28.000Z</time>
        <extensions>
          <ns3:TrackPointExtension>
            <ns3:atemp>22.0</ns3:atemp>
            <ns3:hr>79</ns3:hr>
          </ns3:TrackPointExtension>
        </extensions>
      </trkpt>
      <trkpt lat="48.7927986122667789459228515625" lon="-3.5552682168781757354736328125">
        <ele>3.599999904632568359375</ele>
        <time>2026-05-10T10:00:35.000Z</time>
        <extensions>
          <ns3:TrackPointExtension>
            <ns3:atemp>22.0</ns3:atemp>
            <ns3:hr>77</ns3:hr>
          </ns3:TrackPointExtension>
        </extensions>
      </trkpt>
      <trkpt lat="48.79285384900867938995361328125" lon="-3.55527400039136409759521484375">
        <ele>3</ele>
        <time>2026-05-10T10:00:42.000Z</time>
        <extensions>
          <ns3:TrackPointExtension>
            <ns3:atemp>22.0</ns3:atemp>
            <ns3:hr>77</ns3:hr>
          </ns3:TrackPointExtension>
        </extensions>
      </trkpt>
      <trkpt lat="48.792865835130214691162109375" lon="-3.555278442800045013427734375">
        <ele>3.2000000476837158203125</ele>
        <time>2026-05-10T10:00:44.000Z</time>
        <extensions>
          <ns3:TrackPointExtension>
            <ns3:atemp>22.0</ns3:atemp>
            <ns3:hr>76</ns3:hr>
          </ns3:TrackPointExtension>
        </extensions>
      </trkpt>
      <trkpt lat="48.7929072417318820953369140625" lon="-3.55527550913393497467041015625">
        <ele>3.599999904632568359375</ele>
        <time>2026-05-10T10:00:50.000Z</time>
        <extensions>
          <ns3:TrackPointExtension>
            <ns3:atemp>22.0</ns3:atemp>
            <ns3:hr>78</ns3:hr>
          </ns3:TrackPointExtension>
        </extensions>
      </trkpt>
      <trkpt lat="48.79297412931919097900390625" lon="-3.55526796542108058929443359375">
        <ele>3.599999904632568359375</ele>
        <time>2026-05-10T10:00:57.000Z</time>
        <extensions>
          <ns3:TrackPointExtension>
            <ns3:atemp>22.0</ns3:atemp>
            <ns3:hr>80</ns3:hr>
          </ns3:TrackPointExtension>
        </extensions>
      </trkpt>
      <trkpt lat="48.79303841851651668548583984375" lon="-3.555299900472164154052734375">
        <ele>3.7999999523162841796875</ele>
        <time>2026-05-10T10:01:03.000Z</time>
        <extensions>
          <ns3:TrackPointExtension>
            <ns3:atemp>22.0</ns3:atemp>
            <ns3:hr>80</ns3:hr>
          </ns3:TrackPointExtension>
        </extensions>
      </trkpt>
      <trkpt lat="48.79308485426008701324462890625" lon="-3.55527148582041263580322265625">
        <ele>3.7999999523162841796875</ele>
        <time>2026-05-10T10:01:09.000Z</time>
        <extensions>
          <ns3:TrackPointExtension>
            <ns3:atemp>22.0</ns3:atemp>
            <ns3:hr>80</ns3:hr>
          </ns3:TrackPointExtension>
        </extensions>
      </trkpt>
      <trkpt lat="48.7931379117071628570556640625" lon="-3.55526243336498737335205078125">
        <ele>4</ele>
        <time>2026-05-10T10:01:15.000Z</time>
        <extensions>
          <ns3:TrackPointExtension>
            <ns3:atemp>22.0</ns3:atemp>
            <ns3:hr>82</ns3:hr>
          </ns3:TrackPointExtension>
        </extensions>
      </trkpt>
      <trkpt lat="48.793148137629032135009765625" lon="-3.55525874532759189605712890625">
        <ele>4</ele>
        <time>2026-05-10T10:01:16.000Z</time>
        <extensions>
          <ns3:TrackPointExtension>
            <ns3:atemp>22.0</ns3:atemp>
            <ns3:hr>82</ns3:hr>
          </ns3:TrackPointExtension>
        </extensions>
      </trkpt>
      <trkpt lat="48.79316599108278751373291015625" lon="-3.55523410253226757049560546875">
        <ele>4.400000095367431640625</ele>
        <time>2026-05-10T10:01:19.000Z</time>
        <extensions>
          <ns3:TrackPointExtension>
            <ns3:atemp>22.0</ns3:atemp>
            <ns3:hr>82</ns3:hr>
          </ns3:TrackPointExtension>
        </extensions>
      </trkpt>
      <trkpt lat="48.79317604936659336090087890625" lon="-3.55521767400205135345458984375">
        <ele>4.80000019073486328125</ele>
        <time>2026-05-10T10:01:21.000Z</time>
        <extensions>
          <ns3:TrackPointExtension>
            <ns3:atemp>22.0</ns3:atemp>
            <ns3:hr>83</ns3:hr>
          </ns3:TrackPointExtension>
        </extensions>
      </trkpt>
      <trkpt lat="48.79319700412452220916748046875" lon="-3.5551897622644901275634765625">
        <ele>4.19999980926513671875</ele>
        <time>2026-05-10T10:01:28.000Z</time>
        <extensions>
          <ns3:TrackPointExtension>
            <ns3:atemp>22.0</ns3:atemp>
            <ns3:hr>86</ns3:hr>
          </ns3:TrackPointExtension>
        </extensions>
      </trkpt>
      <trkpt lat="48.79321686923503875732421875" lon="-3.55518884025514125823974609375">
        <ele>4.400000095367431640625</ele>
        <time>2026-05-10T10:01:32.000Z</time>
        <extensions>
          <ns3:TrackPointExtension>
            <ns3:atemp>22.0</ns3:atemp>
            <ns3:hr>89</ns3:hr>
          </ns3:TrackPointExtension>
        </extensions>
      </trkpt>
      <trkpt lat="48.79322902299463748931884765625" lon="-3.55517911724746227264404296875">
        <ele>4.400000095367431640625</ele>
        <time>2026-05-10T10:01:34.000Z</time>
        <extensions>
          <ns3:TrackPointExtension>
            <ns3:atemp>22.0</ns3:atemp>
            <ns3:hr>89</ns3:hr>
          </ns3:TrackPointExtension>
        </extensions>
      </trkpt>
      <trkpt lat="48.7932793982326984405517578125" lon="-3.5551441647112369537353515625">
        <ele>4.599999904632568359375</ele>
        <time>2026-05-10T10:01:42.000Z</time>
        <extensions>
          <ns3:TrackPointExtension>
            <ns3:atemp>22.0</ns3:atemp>
            <ns3:hr>88</ns3:hr>
          </ns3:TrackPointExtension>
        </extensions>
      </trkpt>
      <trkpt lat="48.7933293543756008148193359375" lon="-3.55514223687350749969482421875">
        <ele>4.400000095367431640625</ele>
        <time>2026-05-10T10:01:48.000Z</time>
        <extensions>
          <ns3:TrackPointExtension>
            <ns3:atemp>22.0</ns3:atemp>
            <ns3:hr>87</ns3:hr>
          </ns3:TrackPointExtension>
        </extensions>
      </trkpt>
      <trkpt lat="48.7933655641973018646240234375" lon="-3.55510284192860126495361328125">
        <ele>5.19999980926513671875</ele>
        <time>2026-05-10T10:01:54.000Z</time>
        <extensions>
          <ns3:TrackPointExtension>
            <ns3:atemp>22.0</ns3:atemp>
            <ns3:hr>87</ns3:hr>
          </ns3:TrackPointExtension>
        </extensions>
      </trkpt>
      <trkpt lat="48.79341023974120616912841796875" lon="-3.555035702884197235107421875">
        <ele>5.599999904632568359375</ele>
        <time>2026-05-10T10:02:02.000Z</time>
        <extensions>
          <ns3:TrackPointExtension>
            <ns3:atemp>22.0</ns3:atemp>
            <ns3:hr>89</ns3:hr>
          </ns3:TrackPointExtension>
        </extensions>
      </trkpt>
      <trkpt lat="48.79342096857726573944091796875" lon="-3.55500586330890655517578125">
        <ele>5.400000095367431640625</ele>
        <time>2026-05-10T10:02:06.000Z</time>
        <extensions>
          <ns3:TrackPointExtension>
            <ns3:atemp>22.0</ns3:atemp>
            <ns3:hr>92</ns3:hr>
          </ns3:TrackPointExtension>
        </extensions>
      </trkpt>
      <trkpt lat="48.7934296019375324249267578125" lon="-3.5549850761890411376953125">
        <ele>5.400000095367431640625</ele>
        <time>2026-05-10T10:02:08.000Z</time>
        <extensions>
          <ns3:TrackPointExtension>
            <ns3:atemp>22.0</ns3:atemp>
            <ns3:hr>92</ns3:hr>
          </ns3:TrackPointExtension>
        </extensions>
      </trkpt>
      <trkpt lat="48.79346187226474285125732421875" lon="-3.55494090355932712554931640625">
        <ele>6.80000019073486328125</ele>
        <time>2026-05-10T10:02:13.000Z</time>
        <extensions>
          <ns3:TrackPointExtension>
            <ns3:atemp>22.0</ns3:atemp>
            <ns3:hr>94</ns3:hr>
          </ns3:TrackPointExtension>
        </extensions>
      </trkpt>
      <trkpt lat="48.7934681586921215057373046875" lon="-3.55493218638002872467041015625">
        <ele>7</ele>
        <time>2026-05-10T10:02:14.000Z</time>
        <extensions>
          <ns3:TrackPointExtension>
            <ns3:atemp>22.0</ns3:atemp>
            <ns3:hr>94</ns3:hr>
          </ns3:TrackPointExtension>
        </extensions>
      </trkpt>
      <trkpt lat="48.793479390442371368408203125" lon="-3.55491441674530506134033203125">
        <ele>6.400000095367431640625</ele>
        <time>2026-05-10T10:02:16.000Z</time>
        <extensions>
          <ns3:TrackPointExtension>
            <ns3:atemp>21.0</ns3:atemp>
            <ns3:hr>95</ns3:hr>
          </ns3:TrackPointExtension>
        </extensions>
      </trkpt>
      <trkpt lat="48.79350026138126850128173828125" lon="-3.5548786260187625885009765625">
        <ele>6</ele>
        <time>2026-05-10T10:02:20.000Z</time>
        <extensions>
          <ns3:TrackPointExtension>
            <ns3:atemp>21.0</ns3:atemp>
            <ns3:hr>97</ns3:hr>
          </ns3:TrackPointExtension>
        </extensions>
      </trkpt>
      <trkpt lat="48.7935425899922847747802734375" lon="-3.5548410750925540924072265625">
        <ele>6.400000095367431640625</ele>
        <time>2026-05-10T10:02:27.000Z</time>
        <extensions>
          <ns3:TrackPointExtension>
            <ns3:atemp>21.0</ns3:atemp>
            <ns3:hr>97</ns3:hr>
          </ns3:TrackPointExtension>
        </extensions>
      </trkpt>
      <trkpt lat="48.79358089528977870941162109375" lon="-3.554820120334625244140625">
        <ele>6.400000095367431640625</ele>
        <time>2026-05-10T10:02:33.000Z</time>
        <extensions>
          <ns3:TrackPointExtension>
            <ns3:atemp>21.0</ns3:atemp>
            <ns3:hr>96</ns3:hr>
          </ns3:TrackPointExtension>
        </extensions>
      </trkpt>
      <trkpt lat="48.7935863435268402099609375" lon="-3.554798997938632965087890625">
        <ele>5.80000019073486328125</ele>
        <time>2026-05-10T10:02:37.000Z</time>
        <extensions>
          <ns3:TrackPointExtension>
            <ns3:atemp>21.0</ns3:atemp>
            <ns3:hr>97</ns3:hr>
          </ns3:TrackPointExtension>
        </extensions>
      </trkpt>
      <trkpt lat="48.79358625970780849456787109375" lon="-3.554798997938632965087890625">
        <ele>5.400000095367431640625</ele>
        <time>2026-05-10T10:02:39.000Z</time>
        <extensions>
          <ns3:TrackPointExtension>
            <ns3:atemp>21.0</ns3:atemp>
            <ns3:hr>97</ns3:hr>
          </ns3:TrackPointExtension>
        </extensions>
      </trkpt>
      <trkpt lat="48.7935858406126499176025390625" lon="-3.55478919111192226409912109375">
        <ele>5.400000095367431640625</ele>
        <time>2026-05-10T10:02:42.000Z</time>
        <extensions>
          <ns3:TrackPointExtension>
            <ns3:atemp>21.0</ns3:atemp>
            <ns3:hr>103</ns3:hr>
          </ns3:TrackPointExtension>
        </extensions>
      </trkpt>
      <trkpt lat="48.79358625970780849456787109375" lon="-3.554798997938632965087890625">
        <ele>6</ele>
        <time>2026-05-10T10:02:47.000Z</time>
        <extensions>
          <ns3:TrackPointExtension>
            <ns3:atemp>21.0</ns3:atemp>
            <ns3:hr>103</ns3:hr>
          </ns3:TrackPointExtension>
        </extensions>
      </trkpt>
      <trkpt lat="48.79358625970780849456787109375" lon="-3.554798997938632965087890625">
        <ele>6.599999904632568359375</ele>
        <time>2026-05-10T10:03:06.000Z</time>
        <extensions>
          <ns3:TrackPointExtension>
            <ns3:atemp>21.0</ns3:atemp>
            <ns3:hr>102</ns3:hr>
          </ns3:TrackPointExtension>
        </extensions>
      </trkpt>
      <trkpt lat="48.7935888580977916717529296875" lon="-3.5547699965536594390869140625">
        <ele>6.80000019073486328125</ele>
        <time>2026-05-10T10:03:08.000Z</time>
        <extensions>
          <ns3:TrackPointExtension>
            <ns3:atemp>21.0</ns3:atemp>
            <ns3:hr>103</ns3:hr>
          </ns3:TrackPointExtension>
        </extensions>
      </trkpt>
      <trkpt lat="48.7935888580977916717529296875" lon="-3.55477008037269115447998046875">
        <ele>7</ele>
        <time>2026-05-10T10:03:13.000Z</time>
        <extensions>
          <ns3:TrackPointExtension>
            <ns3:atemp>21.0</ns3:atemp>
            <ns3:hr>103</ns3:hr>
          </ns3:TrackPointExtension>
        </extensions>
      </trkpt>
      <trkpt lat="48.79358558915555477142333984375" lon="-3.5547840781509876251220703125">
        <ele>7</ele>
        <time>2026-05-10T10:03:16.000Z</time>
        <extensions>
          <ns3:TrackPointExtension>
            <ns3:atemp>20.0</ns3:atemp>
            <ns3:hr>103</ns3:hr>
          </ns3:TrackPointExtension>
        </extensions>
      </trkpt>
      <trkpt lat="48.7935861758887767791748046875" lon="-3.55478030629456043243408203125">
        <ele>6.599999904632568359375</ele>
        <time>2026-05-10T10:03:22.000Z</time>
        <extensions>
          <ns3:TrackPointExtension>
            <ns3:atemp>20.0</ns3:atemp>
            <ns3:hr>100</ns3:hr>
          </ns3:TrackPointExtension>
        </extensions>
      </trkpt>
      <trkpt lat="48.79358056001365184783935546875" lon="-3.55478365905582904815673828125">
        <ele>6</ele>
        <time>2026-05-10T10:03:36.000Z</time>
        <extensions>
          <ns3:TrackPointExtension>
            <ns3:atemp>20.0</ns3:atemp>
            <ns3:hr>97</ns3:hr>
          </ns3:TrackPointExtension>
        </extensions>
      </trkpt>
      <trkpt lat="48.79358056001365184783935546875" lon="-3.55478365905582904815673828125">
        <ele>6.19999980926513671875</ele>
        <time>2026-05-10T10:03:41.000Z</time>
        <extensions>
          <ns3:TrackPointExtension>
            <ns3:atemp>20.0</ns3:atemp>
            <ns3:hr>97</ns3:hr>
          </ns3:TrackPointExtension>
        </extensions>
      </trkpt>
      <trkpt lat="48.79357418976724147796630859375" lon="-3.55477779172360897064208984375">
        <ele>6</ele>
        <time>2026-05-10T10:03:48.000Z</time>
        <extensions>
          <ns3:TrackPointExtension>
            <ns3:atemp>20.0</ns3:atemp>
            <ns3:hr>94</ns3:hr>
          </ns3:TrackPointExtension>
        </extensions>
      </trkpt>
      <trkpt lat="48.79357603378593921661376953125" lon="-3.554748706519603729248046875">
        <ele>5.80000019073486328125</ele>
        <time>2026-05-10T10:03:50.000Z</time>
        <extensions>
          <ns3:TrackPointExtension>
            <ns3:atemp>20.0</ns3:atemp>
            <ns3:hr>94</ns3:hr>
          </ns3:TrackPointExtension>
        </extensions>
      </trkpt>
      <trkpt lat="48.79359112121164798736572265625" lon="-3.55472498573362827301025390625">
        <ele>5.80000019073486328125</ele>
        <time>2026-05-10T10:03:52.000Z</time>
        <extensions>
          <ns3:TrackPointExtension>
            <ns3:atemp>20.0</ns3:atemp>
            <ns3:hr>94</ns3:hr>
          </ns3:TrackPointExtension>
        </extensions>
      </trkpt>
      <trkpt lat="48.79362414591014385223388671875" lon="-3.55468961410224437713623046875">
        <ele>5.19999980926513671875</ele>
        <time>2026-05-10T10:03:58.000Z</time>
        <extensions>
          <ns3:TrackPointExtension>
            <ns3:atemp>20.0</ns3:atemp>
            <ns3:hr>93</ns3:hr>
          </ns3:TrackPointExtension>
        </extensions>
      </trkpt>
      <trkpt lat="48.79364065825939178466796875" lon="-3.5546793043613433837890625">
        <ele>4.599999904632568359375</ele>
        <time>2026-05-10T10:04:00.000Z</time>
        <extensions>
          <ns3:TrackPointExtension>
            <ns3:atemp>20.0</ns3:atemp>
            <ns3:hr>93</ns3:hr>
          </ns3:TrackPointExtension>
        </extensions>
      </trkpt>
      <trkpt lat="48.793667815625667572021484375" lon="-3.5546492971479892730712890625">
        <ele>5.80000019073486328125</ele>
        <time>2026-05-10T10:04:05.000Z</time>
        <extensions>
          <ns3:TrackPointExtension>
            <ns3:atemp>20.0</ns3:atemp>
            <ns3:hr>92</ns3:hr>
          </ns3:TrackPointExtension>
        </extensions>
      </trkpt>
      <trkpt lat="48.793667815625667572021484375" lon="-3.5546492971479892730712890625">
        <ele>6.19999980926513671875</ele>
        <time>2026-05-10T10:04:06.000Z</time>
        <extensions>
          <ns3:TrackPointExtension>
            <ns3:atemp>20.0</ns3:atemp>
            <ns3:hr>91</ns3:hr>
          </ns3:TrackPointExtension>
        </extensions>
      </trkpt>
      <trkpt lat="48.79368198104202747344970703125" lon="-3.55464217253029346466064453125">
        <ele>5.19999980926513671875</ele>
        <time>2026-05-10T10:04:12.000Z</time>
        <extensions>
          <ns3:TrackPointExtension>
            <ns3:atemp>20.0</ns3:atemp>
            <ns3:hr>91</ns3:hr>
          </ns3:TrackPointExtension>
        </extensions>
      </trkpt>
      <trkpt lat="48.79370327107608318328857421875" lon="-3.55463010258972644805908203125">
        <ele>4.80000019073486328125</ele>
        <time>2026-05-10T10:04:14.000Z</time>
        <extensions>
          <ns3:TrackPointExtension>
            <ns3:atemp>20.0</ns3:atemp>
            <ns3:hr>91</ns3:hr>
          </ns3:TrackPointExtension>
        </extensions>
      </trkpt>
      <trkpt lat="48.79371215589344501495361328125" lon="-3.55462892912328243255615234375">
        <ele>5.80000019073486328125</ele>
        <time>2026-05-10T10:04:15.000Z</time>
        <extensions>
          <ns3:TrackPointExtension>
            <ns3:atemp>20.0</ns3:atemp>
            <ns3:hr>91</ns3:hr>
          </ns3:TrackPointExtension>
        </extensions>
      </trkpt>
      <trkpt lat="48.79372238181531429290771484375" lon="-3.5546268336474895477294921875">
        <ele>5.80000019073486328125</ele>
        <time>2026-05-10T10:04:16.000Z</time>
        <extensions>
          <ns3:TrackPointExtension>
            <ns3:atemp>18.0</ns3:atemp>
            <ns3:hr>91</ns3:hr>
          </ns3:TrackPointExtension>
        </extensions>
      </trkpt>
      <trkpt lat="48.79373076371848583221435546875" lon="-3.55461585335433483123779296875">
        <ele>5.599999904632568359375</ele>
        <time>2026-05-10T10:04:17.000Z</time>
        <extensions>
          <ns3:TrackPointExtension>
            <ns3:atemp>18.0</ns3:atemp>
            <ns3:hr>90</ns3:hr>
          </ns3:TrackPointExtension>
        </extensions>
      </trkpt>
      <trkpt lat="48.79380871541798114776611328125" lon="-3.5545835830271244049072265625">
        <ele>5.400000095367431640625</ele>
        <time>2026-05-10T10:04:24.000Z</time>
        <extensions>
          <ns3:TrackPointExtension>
            <ns3:atemp>18.0</ns3:atemp>
            <ns3:hr>90</ns3:hr>
          </ns3:TrackPointExtension>
        </extensions>
      </trkpt>
      <trkpt lat="48.79384073428809642791748046875" lon="-3.5545664839446544647216796875">
        <ele>5.599999904632568359375</ele>
        <time>2026-05-10T10:04:27.000Z</time>
        <extensions>
          <ns3:TrackPointExtension>
            <ns3:atemp>18.0</ns3:atemp>
            <ns3:hr>89</ns3:hr>
          </ns3:TrackPointExtension>
        </extensions>
      </trkpt>
      <trkpt lat="48.7938668020069599151611328125" lon="-3.55450873263180255889892578125">
        <ele>6</ele>
        <time>2026-05-10T10:04:31.000Z</time>
        <extensions>
          <ns3:TrackPointExtension>
            <ns3:atemp>18.0</ns3:atemp>
            <ns3:hr>88</ns3:hr>
          </ns3:TrackPointExtension>
        </extensions>
      </trkpt>
      <trkpt lat="48.793917261064052581787109375" lon="-3.55441032908856868743896484375">
        <ele>6.599999904632568359375</ele>
        <time>2026-05-10T10:04:39.000Z</time>
        <extensions>
          <ns3:TrackPointExtension>
            <ns3:atemp>18.0</ns3:atemp>
            <ns3:hr>89</ns3:hr>
          </ns3:TrackPointExtension>
        </extensions>
      </trkpt>
      <trkpt lat="48.79393327049911022186279296875" lon="-3.5543810762465000152587890625">
        <ele>6.80000019073486328125</ele>
        <time>2026-05-10T10:04:41.000Z</time>
        <extensions>
          <ns3:TrackPointExtension>
            <ns3:atemp>18.0</ns3:atemp>
            <ns3:hr>89</ns3:hr>
          </ns3:TrackPointExtension>
        </extensions>
      </trkpt>
      <trkpt lat="48.79395313560962677001953125" lon="-3.55434335768222808837890625">
        <ele>7.400000095367431640625</ele>
        <time>2026-05-10T10:04:45.000Z</time>
        <extensions>
          <ns3:TrackPointExtension>
            <ns3:atemp>18.0</ns3:atemp>
            <ns3:hr>90</ns3:hr>
          </ns3:TrackPointExtension>
        </extensions>
      </trkpt>
      <trkpt lat="48.79396210424602031707763671875" lon="-3.554333634674549102783203125">
        <ele>7.599999904632568359375</ele>
        <time>2026-05-10T10:04:46.000Z</time>
        <extensions>
          <ns3:TrackPointExtension>
            <ns3:atemp>18.0</ns3:atemp>
            <ns3:hr>91</ns3:hr>
          </ns3:TrackPointExtension>
        </extensions>
      </trkpt>
      <trkpt lat="48.7939700670540332794189453125" lon="-3.55430806986987590789794921875">
        <ele>8</ele>
        <time>2026-05-10T10:04:48.000Z</time>
        <extensions>
          <ns3:TrackPointExtension>
            <ns3:atemp>18.0</ns3:atemp>
            <ns3:hr>92</ns3:hr>
          </ns3:TrackPointExtension>
        </extensions>
      </trkpt>
      <trkpt lat="48.79396964795887470245361328125" lon="-3.554257191717624664306640625">
        <ele>7.400000095367431640625</ele>
        <time>2026-05-10T10:04:51.000Z</time>
        <extensions>
          <ns3:TrackPointExtension>
            <ns3:atemp>18.0</ns3:atemp>
            <ns3:hr>94</ns3:hr>
          </ns3:TrackPointExtension>
        </extensions>
      </trkpt>
      <trkpt lat="48.79397266544401645660400390625" lon="-3.55421436019241809844970703125">
        <ele>7.400000095367431640625</ele>
        <time>2026-05-10T10:04:54.000Z</time>
        <extensions>
          <ns3:TrackPointExtension>
            <ns3:atemp>18.0</ns3:atemp>
            <ns3:hr>94</ns3:hr>
          </ns3:TrackPointExtension>
        </extensions>
      </trkpt>
      <trkpt lat="48.79396855831146240234375" lon="-3.55415333993732929229736328125">
        <ele>7.19999980926513671875</ele>
        <time>2026-05-10T10:04:58.000Z</time>
        <extensions>
          <ns3:TrackPointExtension>
            <ns3:atemp>18.0</ns3:atemp>
            <ns3:hr>94</ns3:hr>
          </ns3:TrackPointExtension>
        </extensions>
      </trkpt>
      <trkpt lat="48.79396252334117889404296875" lon="-3.5541106760501861572265625">
        <ele>6.80000019073486328125</ele>
        <time>2026-05-10T10:05:01.000Z</time>
        <extensions>
          <ns3:TrackPointExtension>
            <ns3:atemp>18.0</ns3:atemp>
            <ns3:hr>93</ns3:hr>
          </ns3:TrackPointExtension>
        </extensions>
      </trkpt>
      <trkpt lat="48.793960846960544586181640625" lon="-3.55407220311462879180908203125">
        <ele>5.80000019073486328125</ele>
        <time>2026-05-10T10:05:04.000Z</time>
        <extensions>
          <ns3:TrackPointExtension>
            <ns3:atemp>18.0</ns3:atemp>
            <ns3:hr>92</ns3:hr>
          </ns3:TrackPointExtension>
        </extensions>
      </trkpt>
      <trkpt lat="48.7939626909792423248291015625" lon="-3.55403800494968891143798828125">
        <ele>5.400000095367431640625</ele>
        <time>2026-05-10T10:05:06.000Z</time>
        <extensions>
          <ns3:TrackPointExtension>
            <ns3:atemp>18.0</ns3:atemp>
            <ns3:hr>91</ns3:hr>
          </ns3:TrackPointExtension>
        </extensions>
      </trkpt>
      <trkpt lat="48.7939868308603763580322265625" lon="-3.553948067128658294677734375">
        <ele>7</ele>
        <time>2026-05-10T10:05:12.000Z</time>
        <extensions>
          <ns3:TrackPointExtension>
            <ns3:atemp>18.0</ns3:atemp>
            <ns3:hr>89</ns3:hr>
          </ns3:TrackPointExtension>
        </extensions>
      </trkpt>
      <trkpt lat="48.79398976452648639678955078125" lon="-3.553931973874568939208984375">
        <ele>7.19999980926513671875</ele>
        <time>2026-05-10T10:05:13.000Z</time>
        <extensions>
          <ns3:TrackPointExtension>
            <ns3:atemp>18.0</ns3:atemp>
            <ns3:hr>89</ns3:hr>
          </ns3:TrackPointExtension>
        </extensions>
      </trkpt>
      <trkpt lat="48.79399739205837249755859375" lon="-3.553902469575405120849609375">
        <ele>8.19999980926513671875</ele>
        <time>2026-05-10T10:05:15.000Z</time>
        <extensions>
          <ns3:TrackPointExtension>
            <ns3:atemp>18.0</ns3:atemp>
            <ns3:hr>90</ns3:hr>
          </ns3:TrackPointExtension>
        </extensions>
      </trkpt>
      <trkpt lat="48.79399747587740421295166015625" lon="-3.55387606658041477203369140625">
        <ele>8.6000003814697265625</ele>
        <time>2026-05-10T10:05:17.000Z</time>
        <extensions>
          <ns3:TrackPointExtension>
            <ns3:atemp>18.0</ns3:atemp>
            <ns3:hr>93</ns3:hr>
          </ns3:TrackPointExtension>
        </extensions>
      </trkpt>
      <trkpt lat="48.79399915225803852081298828125" lon="-3.55383818037807941436767578125">
        <ele>8.6000003814697265625</ele>
        <time>2026-05-10T10:05:19.000Z</time>
        <extensions>
          <ns3:TrackPointExtension>
            <ns3:atemp>18.0</ns3:atemp>
            <ns3:hr>96</ns3:hr>
          </ns3:TrackPointExtension>
        </extensions>
      </trkpt>
      <trkpt lat="48.79401038400828838348388671875" lon="-3.553796522319316864013671875">
        <ele>7.599999904632568359375</ele>
        <time>2026-05-10T10:05:22.000Z</time>
        <extensions>
          <ns3:TrackPointExtension>
            <ns3:atemp>19.0</ns3:atemp>
            <ns3:hr>97</ns3:hr>
          </ns3:TrackPointExtension>
        </extensions>
      </trkpt>
      <trkpt lat="48.7940170057117938995361328125" lon="-3.5537765733897686004638671875">
        <ele>6.599999904632568359375</ele>
        <time>2026-05-10T10:05:24.000Z</time>
        <extensions>
          <ns3:TrackPointExtension>
            <ns3:atemp>19.0</ns3:atemp>
            <ns3:hr>97</ns3:hr>
          </ns3:TrackPointExtension>
        </extensions>
      </trkpt>
      <trkpt lat="48.794019520282745361328125" lon="-3.553766347467899322509765625">
        <ele>6.599999904632568359375</ele>
        <time>2026-05-10T10:05:25.000Z</time>
        <extensions>
          <ns3:TrackPointExtension>
            <ns3:atemp>19.0</ns3:atemp>
            <ns3:hr>97</ns3:hr>
          </ns3:TrackPointExtension>
        </extensions>
      </trkpt>
      <trkpt lat="48.79404458217322826385498046875" lon="-3.5537349991500377655029296875">
        <ele>8</ele>
        <time>2026-05-10T10:05:31.000Z</time>
        <extensions>
          <ns3:TrackPointExtension>
            <ns3:atemp>19.0</ns3:atemp>
            <ns3:hr>97</ns3:hr>
          </ns3:TrackPointExtension>
        </extensions>
      </trkpt>
      <trkpt lat="48.794049359858036041259765625" lon="-3.55372837744653224945068359375">
        <ele>8</ele>
        <time>2026-05-10T10:05:32.000Z</time>
        <extensions>
          <ns3:TrackPointExtension>
            <ns3:atemp>19.0</ns3:atemp>
            <ns3:hr>97</ns3:hr>
          </ns3:TrackPointExtension>
        </extensions>
      </trkpt>
      <trkpt lat="48.7940932810306549072265625" lon="-3.55367976240813732147216796875">
        <ele>8.19999980926513671875</ele>
        <time>2026-05-10T10:05:39.000Z</time>
        <extensions>
          <ns3:TrackPointExtension>
            <ns3:atemp>19.0</ns3:atemp>
            <ns3:hr>99</ns3:hr>
          </ns3:TrackPointExtension>
        </extensions>
      </trkpt>
      <trkpt lat="48.79411398433148860931396484375" lon="-3.55359091423451900482177734375">
        <ele>7.400000095367431640625</ele>
        <time>2026-05-10T10:05:46.000Z</time>
        <extensions>
          <ns3:TrackPointExtension>
            <ns3:atemp>19.0</ns3:atemp>
            <ns3:hr>98</ns3:hr>
          </ns3:TrackPointExtension>
        </extensions>
      </trkpt>
      <trkpt lat="48.7941299937665462493896484375" lon="-3.5534684546291828155517578125">
        <ele>8.19999980926513671875</ele>
        <time>2026-05-10T10:05:54.000Z</time>
        <extensions>
          <ns3:TrackPointExtension>
            <ns3:atemp>19.0</ns3:atemp>
            <ns3:hr>97</ns3:hr>
          </ns3:TrackPointExtension>
        </extensions>
      </trkpt>
      <trkpt lat="48.79415153525769710540771484375" lon="-3.5533732362091541290283203125">
        <ele>6.599999904632568359375</ele>
        <time>2026-05-10T10:06:01.000Z</time>
        <extensions>
          <ns3:TrackPointExtension>
            <ns3:atemp>19.0</ns3:atemp>
            <ns3:hr>98</ns3:hr>
          </ns3:TrackPointExtension>
        </extensions>
      </trkpt>
      <trkpt lat="48.79415052942931652069091796875" lon="-3.55334850959479808807373046875">
        <ele>6.599999904632568359375</ele>
        <time>2026-05-10T10:06:03.000Z</time>
        <extensions>
          <ns3:TrackPointExtension>
            <ns3:atemp>19.0</ns3:atemp>
            <ns3:hr>98</ns3:hr>
          </ns3:TrackPointExtension>
        </extensions>
      </trkpt>
      <trkpt lat="48.7941635213792324066162109375" lon="-3.55326779186725616455078125">
        <ele>7.80000019073486328125</ele>
        <time>2026-05-10T10:06:09.000Z</time>
        <extensions>
          <ns3:TrackPointExtension>
            <ns3:atemp>19.0</ns3:atemp>
            <ns3:hr>98</ns3:hr>
          </ns3:TrackPointExtension>
        </extensions>
      </trkpt>
      <trkpt lat="48.79416561685502529144287109375" lon="-3.5532542131841182708740234375">
        <ele>7.80000019073486328125</ele>
        <time>2026-05-10T10:06:10.000Z</time>
        <extensions>
          <ns3:TrackPointExtension>
            <ns3:atemp>19.0</ns3:atemp>
            <ns3:hr>98</ns3:hr>
          </ns3:TrackPointExtension>
        </extensions>
      </trkpt>
      <trkpt lat="48.79418506287038326263427734375" lon="-3.55316989123821258544921875">
        <ele>8.3999996185302734375</ele>
        <time>2026-05-10T10:06:16.000Z</time>
        <extensions>
          <ns3:TrackPointExtension>
            <ns3:atemp>19.0</ns3:atemp>
            <ns3:hr>99</ns3:hr>
          </ns3:TrackPointExtension>
        </extensions>
      </trkpt>
      <trkpt lat="48.79418824799358844757080078125" lon="-3.553144745528697967529296875">
        <ele>8.80000019073486328125</ele>
        <time>2026-05-10T10:06:18.000Z</time>
        <extensions>
          <ns3:TrackPointExtension>
            <ns3:atemp>18.0</ns3:atemp>
            <ns3:hr>101</ns3:hr>
          </ns3:TrackPointExtension>
        </extensions>
      </trkpt>
      <trkpt lat="48.794190175831317901611328125" lon="-3.553137369453907012939453125">
        <ele>9</ele>
        <time>2026-05-10T10:06:19.000Z</time>
        <extensions>
          <ns3:TrackPointExtension>
            <ns3:atemp>18.0</ns3:atemp>
            <ns3:hr>101</ns3:hr>
          </ns3:TrackPointExtension>
        </extensions>
      </trkpt>
      <trkpt lat="48.79419495351612567901611328125" lon="-3.5531030036509037017822265625">
        <ele>9.3999996185302734375</ele>
        <time>2026-05-10T10:06:22.000Z</time>
        <extensions>
          <ns3:TrackPointExtension>
            <ns3:atemp>18.0</ns3:atemp>
            <ns3:hr>103</ns3:hr>
          </ns3:TrackPointExtension>
        </extensions>
      </trkpt>
      <trkpt lat="48.79420484416186809539794921875" lon="-3.5530064441263675689697265625">
        <ele>8</ele>
        <time>2026-05-10T10:06:30.000Z</time>
        <extensions>
          <ns3:TrackPointExtension>
            <ns3:atemp>18.0</ns3:atemp>
            <ns3:hr>103</ns3:hr>
          </ns3:TrackPointExtension>
        </extensions>
      </trkpt>
      <trkpt lat="48.7942315824329853057861328125" lon="-3.55292002670466899871826171875">
        <ele>8.19999980926513671875</ele>
        <time>2026-05-10T10:06:37.000Z</time>
        <extensions>
          <ns3:TrackPointExtension>
            <ns3:atemp>18.0</ns3:atemp>
            <ns3:hr>102</ns3:hr>
          </ns3:TrackPointExtension>
        </extensions>
      </trkpt>
      <trkpt lat="48.79427743144333362579345703125" lon="-3.55283335782587528228759765625">
        <ele>8.19999980926513671875</ele>
        <time>2026-05-10T10:06:44.000Z</time>
        <extensions>
          <ns3:TrackPointExtension>
            <ns3:atemp>18.0</ns3:atemp>
            <ns3:hr>102</ns3:hr>
          </ns3:TrackPointExtension>
        </extensions>
      </trkpt>
      <trkpt lat="48.79430458880960941314697265625" lon="-3.55279044248163700103759765625">
        <ele>7.80000019073486328125</ele>
        <time>2026-05-10T10:06:51.000Z</time>
        <extensions>
          <ns3:TrackPointExtension>
            <ns3:atemp>18.0</ns3:atemp>
            <ns3:hr>103</ns3:hr>
          </ns3:TrackPointExtension>
        </extensions>
      </trkpt>
      <trkpt lat="48.79431297071278095245361328125" lon="-3.552828915417194366455078125">
        <ele>7</ele>
        <time>2026-05-10T10:06:54.000Z</time>
        <extensions>
          <ns3:TrackPointExtension>
            <ns3:atemp>18.0</ns3:atemp>
            <ns3:hr>103</ns3:hr>
          </ns3:TrackPointExtension>
        </extensions>
      </trkpt>
      <trkpt lat="48.79432336427271366119384765625" lon="-3.55286219157278537750244140625">
        <ele>6.599999904632568359375</ele>
        <time>2026-05-10T10:06:57.000Z</time>
        <extensions>
          <ns3:TrackPointExtension>
            <ns3:atemp>18.0</ns3:atemp>
            <ns3:hr>103</ns3:hr>
          </ns3:TrackPointExtension>
        </extensions>
      </trkpt>
      <trkpt lat="48.7943274714052677154541015625" lon="-3.552829921245574951171875">
        <ele>6.599999904632568359375</ele>
        <time>2026-05-10T10:07:02.000Z</time>
        <extensions>
          <ns3:TrackPointExtension>
            <ns3:atemp>18.0</ns3:atemp>
            <ns3:hr>102</ns3:hr>
          </ns3:TrackPointExtension>
        </extensions>
      </trkpt>
      <trkpt lat="48.794327639043331146240234375" lon="-3.55280200950801372528076171875">
        <ele>5.80000019073486328125</ele>
        <time>2026-05-10T10:07:09.000Z</time>
        <extensions>
          <ns3:TrackPointExtension>
            <ns3:atemp>18.0</ns3:atemp>
            <ns3:hr>99</ns3:hr>
          </ns3:TrackPointExtension>
        </extensions>
      </trkpt>
      <trkpt lat="48.79432319663465023040771484375" lon="-3.5527459345757961273193359375">
        <ele>4.599999904632568359375</ele>
        <time>2026-05-10T10:07:13.000Z</time>
        <extensions>
          <ns3:TrackPointExtension>
            <ns3:atemp>18.0</ns3:atemp>
            <ns3:hr>97</ns3:hr>
          </ns3:TrackPointExtension>
        </extensions>
      </trkpt>
      <trkpt lat="48.79432654939591884613037109375" lon="-3.552732355892658233642578125">
        <ele>5.400000095367431640625</ele>
        <time>2026-05-10T10:07:14.000Z</time>
        <extensions>
          <ns3:TrackPointExtension>
            <ns3:atemp>18.0</ns3:atemp>
            <ns3:hr>96</ns3:hr>
          </ns3:TrackPointExtension>
        </extensions>
      </trkpt>
      <trkpt lat="48.7943348474800586700439453125" lon="-3.5526741854846477508544921875">
        <ele>8.19999980926513671875</ele>
        <time>2026-05-10T10:07:18.000Z</time>
        <extensions>
          <ns3:TrackPointExtension>
            <ns3:atemp>18.0</ns3:atemp>
            <ns3:hr>94</ns3:hr>
          </ns3:TrackPointExtension>
        </extensions>
      </trkpt>
      <trkpt lat="48.794320933520793914794921875" lon="-3.55263210833072662353515625">
        <ele>8.19999980926513671875</ele>
        <time>2026-05-10T10:07:21.000Z</time>
        <extensions>
          <ns3:TrackPointExtension>
            <ns3:atemp>18.0</ns3:atemp>
            <ns3:hr>93</ns3:hr>
          </ns3:TrackPointExtension>
        </extensions>
      </trkpt>
      <trkpt lat="48.79430048167705535888671875" lon="-3.552499003708362579345703125">
        <ele>7.80000019073486328125</ele>
        <time>2026-05-10T10:07:30.000Z</time>
        <extensions>
          <ns3:TrackPointExtension>
            <ns3:atemp>18.0</ns3:atemp>
            <ns3:hr>94</ns3:hr>
          </ns3:TrackPointExtension>
        </extensions>
      </trkpt>
      <trkpt lat="48.79431950859725475311279296875" lon="-3.552372939884662628173828125">
        <ele>8.19999980926513671875</ele>
        <time>2026-05-10T10:07:39.000Z</time>
        <extensions>
          <ns3:TrackPointExtension>
            <ns3:atemp>18.0</ns3:atemp>
            <ns3:hr>96</ns3:hr>
          </ns3:TrackPointExtension>
        </extensions>
      </trkpt>
      <trkpt lat="48.7943274714052677154541015625" lon="-3.5523741133511066436767578125">
        <ele>7.19999980926513671875</ele>
        <time>2026-05-10T10:07:43.000Z</time>
        <extensions>
          <ns3:TrackPointExtension>
            <ns3:atemp>18.0</ns3:atemp>
            <ns3:hr>96</ns3:hr>
          </ns3:TrackPointExtension>
        </extensions>
      </trkpt>
      <trkpt lat="48.79432705231010913848876953125" lon="-3.5523727722465991973876953125">
        <ele>6.599999904632568359375</ele>
        <time>2026-05-10T10:07:46.000Z</time>
        <extensions>
          <ns3:TrackPointExtension>
            <ns3:atemp>18.0</ns3:atemp>
            <ns3:hr>95</ns3:hr>
          </ns3:TrackPointExtension>
        </extensions>
      </trkpt>
      <trkpt lat="48.79432705231010913848876953125" lon="-3.5523727722465991973876953125">
        <ele>7.19999980926513671875</ele>
        <time>2026-05-10T10:07:53.000Z</time>
        <extensions>
          <ns3:TrackPointExtension>
            <ns3:atemp>18.0</ns3:atemp>
            <ns3:hr>96</ns3:hr>
          </ns3:TrackPointExtension>
        </extensions>
      </trkpt>
      <trkpt lat="48.79432973451912403106689453125" lon="-3.55237637646496295928955078125">
        <ele>7.599999904632568359375</ele>
        <time>2026-05-10T10:07:59.000Z</time>
        <extensions>
          <ns3:TrackPointExtension>
            <ns3:atemp>18.0</ns3:atemp>
            <ns3:hr>98</ns3:hr>
          </ns3:TrackPointExtension>
        </extensions>
      </trkpt>
      <trkpt lat="48.79432705231010913848876953125" lon="-3.5523727722465991973876953125">
        <ele>6</ele>
        <time>2026-05-10T10:08:06.000Z</time>
        <extensions>
          <ns3:TrackPointExtension>
            <ns3:atemp>18.0</ns3:atemp>
            <ns3:hr>98</ns3:hr>
          </ns3:TrackPointExtension>
        </extensions>
      </trkpt>
      <trkpt lat="48.79432705231010913848876953125" lon="-3.5523727722465991973876953125">
        <ele>5.400000095367431640625</ele>
        <time>2026-05-10T10:08:09.000Z</time>
        <extensions>
          <ns3:TrackPointExtension>
            <ns3:atemp>18.0</ns3:atemp>
            <ns3:hr>98</ns3:hr>
          </ns3:TrackPointExtension>
        </extensions>
      </trkpt>
      <trkpt lat="48.79432856105268001556396484375" lon="-3.5523573495447635650634765625">
        <ele>4.80000019073486328125</ele>
        <time>2026-05-10T10:08:17.000Z</time>
        <extensions>
          <ns3:TrackPointExtension>
            <ns3:atemp>18.0</ns3:atemp>
            <ns3:hr>97</ns3:hr>
          </ns3:TrackPointExtension>
        </extensions>
      </trkpt>
      <trkpt lat="48.79433945752680301666259765625" lon="-3.5523030348122119903564453125">
        <ele>4</ele>
        <time>2026-05-10T10:08:21.000Z</time>
        <extensions>
          <ns3:TrackPointExtension>
            <ns3:atemp>18.0</ns3:atemp>
            <ns3:hr>97</ns3:hr>
          </ns3:TrackPointExtension>
        </extensions>
      </trkpt>
      <trkpt lat="48.79437667317688465118408203125" lon="-3.55223723687231540679931640625">
        <ele>6.400000095367431640625</ele>
        <time>2026-05-10T10:08:28.000Z</time>
        <extensions>
          <ns3:TrackPointExtension>
            <ns3:atemp>18.0</ns3:atemp>
            <ns3:hr>98</ns3:hr>
          </ns3:TrackPointExtension>
        </extensions>
      </trkpt>
      <trkpt lat="48.79438991658389568328857421875" lon="-3.5522161982953548431396484375">
        <ele>7.400000095367431640625</ele>
        <time>2026-05-10T10:08:30.000Z</time>
        <extensions>
          <ns3:TrackPointExtension>
            <ns3:atemp>18.0</ns3:atemp>
            <ns3:hr>97</ns3:hr>
          </ns3:TrackPointExtension>
        </extensions>
      </trkpt>
      <trkpt lat="48.79441087134182453155517578125" lon="-3.5521732829511165618896484375">
        <ele>7.80000019073486328125</ele>
        <time>2026-05-10T10:08:35.000Z</time>
        <extensions>
          <ns3:TrackPointExtension>
            <ns3:atemp>18.0</ns3:atemp>
            <ns3:hr>97</ns3:hr>
          </ns3:TrackPointExtension>
        </extensions>
      </trkpt>
      <trkpt lat="48.79442277364432811737060546875" lon="-3.55214352719485759735107421875">
        <ele>6</ele>
        <time>2026-05-10T10:08:38.000Z</time>
        <extensions>
          <ns3:TrackPointExtension>
            <ns3:atemp>18.0</ns3:atemp>
            <ns3:hr>98</ns3:hr>
          </ns3:TrackPointExtension>
        </extensions>
      </trkpt>
      <trkpt lat="48.79443031735718250274658203125" lon="-3.552123494446277618408203125">
        <ele>4.400000095367431640625</ele>
        <time>2026-05-10T10:08:43.000Z</time>
        <extensions>
          <ns3:TrackPointExtension>
            <ns3:atemp>18.0</ns3:atemp>
            <ns3:hr>96</ns3:hr>
          </ns3:TrackPointExtension>
        </extensions>
      </trkpt>
      <trkpt lat="48.79442981444299221038818359375" lon="-3.55212022550404071807861328125">
        <ele>5.400000095367431640625</ele>
        <time>2026-05-10T10:08:46.000Z</time>
        <extensions>
          <ns3:TrackPointExtension>
            <ns3:atemp>18.0</ns3:atemp>
            <ns3:hr>94</ns3:hr>
          </ns3:TrackPointExtension>
        </extensions>
      </trkpt>
      <trkpt lat="48.794430233538150787353515625" lon="-3.55212626047432422637939453125">
        <ele>6.80000019073486328125</ele>
        <time>2026-05-10T10:08:49.000Z</time>
        <extensions>
          <ns3:TrackPointExtension>
            <ns3:atemp>18.0</ns3:atemp>
            <ns3:hr>94</ns3:hr>
          </ns3:TrackPointExtension>
        </extensions>
      </trkpt>
      <trkpt lat="48.7944495119154453277587890625" lon="-3.55210371315479278564453125">
        <ele>7.400000095367431640625</ele>
        <time>2026-05-10T10:08:52.000Z</time>
        <extensions>
          <ns3:TrackPointExtension>
            <ns3:atemp>18.0</ns3:atemp>
            <ns3:hr>94</ns3:hr>
          </ns3:TrackPointExtension>
        </extensions>
      </trkpt>
      <trkpt lat="48.79446803592145442962646484375" lon="-3.55207513086497783660888671875">
        <ele>7.80000019073486328125</ele>
        <time>2026-05-10T10:08:55.000Z</time>
        <extensions>
          <ns3:TrackPointExtension>
            <ns3:atemp>18.0</ns3:atemp>
            <ns3:hr>94</ns3:hr>
          </ns3:TrackPointExtension>
        </extensions>
      </trkpt>
      <trkpt lat="48.79448127932846546173095703125" lon="-3.55203942395746707916259765625">
        <ele>8</ele>
        <time>2026-05-10T10:08:59.000Z</time>
        <extensions>
          <ns3:TrackPointExtension>
            <ns3:atemp>18.0</ns3:atemp>
            <ns3:hr>95</ns3:hr>
          </ns3:TrackPointExtension>
        </extensions>
      </trkpt>
      <trkpt lat="48.794499970972537994384765625" lon="-3.55201251804828643798828125">
        <ele>7.599999904632568359375</ele>
        <time>2026-05-10T10:09:04.000Z</time>
        <extensions>
          <ns3:TrackPointExtension>
            <ns3:atemp>18.0</ns3:atemp>
            <ns3:hr>96</ns3:hr>
          </ns3:TrackPointExtension>
        </extensions>
      </trkpt>
      <trkpt lat="48.7945215962827205657958984375" lon="-3.55199567042291164398193359375">
        <ele>7</ele>
        <time>2026-05-10T10:09:11.000Z</time>
        <extensions>
          <ns3:TrackPointExtension>
            <ns3:atemp>18.0</ns3:atemp>
            <ns3:hr>98</ns3:hr>
          </ns3:TrackPointExtension>
        </extensions>
      </trkpt>
      <trkpt lat="48.7945192493498325347900390625" lon="-3.5519756376743316650390625">
        <ele>6.599999904632568359375</ele>
        <time>2026-05-10T10:09:20.000Z</time>
        <extensions>
          <ns3:TrackPointExtension>
            <ns3:atemp>18.0</ns3:atemp>
            <ns3:hr>97</ns3:hr>
          </ns3:TrackPointExtension>
        </extensions>
      </trkpt>
      <trkpt lat="48.7945252843201160430908203125" lon="-3.55194906704127788543701171875">
        <ele>5.80000019073486328125</ele>
        <time>2026-05-10T10:09:22.000Z</time>
        <extensions>
          <ns3:TrackPointExtension>
            <ns3:atemp>18.0</ns3:atemp>
            <ns3:hr>95</ns3:hr>
          </ns3:TrackPointExtension>
        </extensions>
      </trkpt>
      <trkpt lat="48.79452872090041637420654296875" lon="-3.55193599127233028411865234375">
        <ele>5.599999904632568359375</ele>
        <time>2026-05-10T10:09:23.000Z</time>
        <extensions>
          <ns3:TrackPointExtension>
            <ns3:atemp>18.0</ns3:atemp>
            <ns3:hr>94</ns3:hr>
          </ns3:TrackPointExtension>
        </extensions>
      </trkpt>
      <trkpt lat="48.7945457361638545989990234375" lon="-3.55183691717684268951416015625">
        <ele>6.80000019073486328125</ele>
        <time>2026-05-10T10:09:30.000Z</time>
        <extensions>
          <ns3:TrackPointExtension>
            <ns3:atemp>18.0</ns3:atemp>
            <ns3:hr>91</ns3:hr>
          </ns3:TrackPointExtension>
        </extensions>
      </trkpt>
      <trkpt lat="48.7945484183728694915771484375" lon="-3.5518227517604827880859375">
        <ele>6.80000019073486328125</ele>
        <time>2026-05-10T10:09:31.000Z</time>
        <extensions>
          <ns3:TrackPointExtension>
            <ns3:atemp>18.0</ns3:atemp>
            <ns3:hr>91</ns3:hr>
          </ns3:TrackPointExtension>
        </extensions>
      </trkpt>
      <trkpt lat="48.79456409253180027008056640625" lon="-3.55173096992075443267822265625">
        <ele>7</ele>
        <time>2026-05-10T10:09:38.000Z</time>
        <extensions>
          <ns3:TrackPointExtension>
            <ns3:atemp>18.0</ns3:atemp>
            <ns3:hr>94</ns3:hr>
          </ns3:TrackPointExtension>
        </extensions>
      </trkpt>
      <trkpt lat="48.7945645116269588470458984375" lon="-3.55171755887567996978759765625">
        <ele>7.19999980926513671875</ele>
        <time>2026-05-10T10:09:39.000Z</time>
        <extensions>
          <ns3:TrackPointExtension>
            <ns3:atemp>18.0</ns3:atemp>
            <ns3:hr>97</ns3:hr>
          </ns3:TrackPointExtension>
        </extensions>
      </trkpt>
      <trkpt lat="48.794570378959178924560546875" lon="-3.55169191025197505950927734375">
        <ele>7.400000095367431640625</ele>
        <time>2026-05-10T10:09:41.000Z</time>
        <extensions>
          <ns3:TrackPointExtension>
            <ns3:atemp>18.0</ns3:atemp>
            <ns3:hr>100</ns3:hr>
          </ns3:TrackPointExtension>
        </extensions>
      </trkpt>
      <trkpt lat="48.79457809031009674072265625" lon="-3.551687300205230712890625">
        <ele>7.599999904632568359375</ele>
        <time>2026-05-10T10:09:42.000Z</time>
        <extensions>
          <ns3:TrackPointExtension>
            <ns3:atemp>18.0</ns3:atemp>
            <ns3:hr>101</ns3:hr>
          </ns3:TrackPointExtension>
        </extensions>
      </trkpt>
      <trkpt lat="48.79459443502128124237060546875" lon="-3.5516589693725109100341796875">
        <ele>7.599999904632568359375</ele>
        <time>2026-05-10T10:09:45.000Z</time>
        <extensions>
          <ns3:TrackPointExtension>
            <ns3:atemp>18.0</ns3:atemp>
            <ns3:hr>101</ns3:hr>
          </ns3:TrackPointExtension>
        </extensions>
      </trkpt>
      <trkpt lat="48.7946547009050846099853515625" lon="-3.55160758830606937408447265625">
        <ele>7.599999904632568359375</ele>
        <time>2026-05-10T10:09:52.000Z</time>
        <extensions>
          <ns3:TrackPointExtension>
            <ns3:atemp>18.0</ns3:atemp>
            <ns3:hr>103</ns3:hr>
          </ns3:TrackPointExtension>
        </extensions>
      </trkpt>
      <trkpt lat="48.79472158849239349365234375" lon="-3.55158328078687191009521484375">
        <ele>6.19999980926513671875</ele>
        <time>2026-05-10T10:10:01.000Z</time>
        <extensions>
          <ns3:TrackPointExtension>
            <ns3:atemp>18.0</ns3:atemp>
            <ns3:hr>103</ns3:hr>
          </ns3:TrackPointExtension>
        </extensions>
      </trkpt>
      <trkpt lat="48.79474463872611522674560546875" lon="-3.5515369288623332977294921875">
        <ele>5.599999904632568359375</ele>
        <time>2026-05-10T10:10:05.000Z</time>
        <extensions>
          <ns3:TrackPointExtension>
            <ns3:atemp>18.0</ns3:atemp>
            <ns3:hr>101</ns3:hr>
          </ns3:TrackPointExtension>
        </extensions>
      </trkpt>
      <trkpt lat="48.794768862426280975341796875" lon="-3.5515074245631694793701171875">
        <ele>5.599999904632568359375</ele>
        <time>2026-05-10T10:10:08.000Z</time>
        <extensions>
          <ns3:TrackPointExtension>
            <ns3:atemp>18.0</ns3:atemp>
            <ns3:hr>100</ns3:hr>
          </ns3:TrackPointExtension>
        </extensions>
      </trkpt>
      <trkpt lat="48.79479467868804931640625" lon="-3.55144464410841464996337890625">
        <ele>4.599999904632568359375</ele>
        <time>2026-05-10T10:10:15.000Z</time>
        <extensions>
          <ns3:TrackPointExtension>
            <ns3:atemp>18.0</ns3:atemp>
            <ns3:hr>100</ns3:hr>
          </ns3:TrackPointExtension>
        </extensions>
      </trkpt>
      <trkpt lat="48.794795013964176177978515625" lon="-3.5514326579868793487548828125">
        <ele>4.400000095367431640625</ele>
        <time>2026-05-10T10:10:16.000Z</time>
        <extensions>
          <ns3:TrackPointExtension>
            <ns3:atemp>18.0</ns3:atemp>
            <ns3:hr>100</ns3:hr>
          </ns3:TrackPointExtension>
        </extensions>
      </trkpt>
      <trkpt lat="48.79480280913412570953369140625" lon="-3.5513951070606708526611328125">
        <ele>5.80000019073486328125</ele>
        <time>2026-05-10T10:10:19.000Z</time>
        <extensions>
          <ns3:TrackPointExtension>
            <ns3:atemp>17.0</ns3:atemp>
            <ns3:hr>99</ns3:hr>
          </ns3:TrackPointExtension>
        </extensions>
      </trkpt>
      <trkpt lat="48.79482460208237171173095703125" lon="-3.55134003795683383941650390625">
        <ele>7.19999980926513671875</ele>
        <time>2026-05-10T10:10:23.000Z</time>
        <extensions>
          <ns3:TrackPointExtension>
            <ns3:atemp>17.0</ns3:atemp>
            <ns3:hr>99</ns3:hr>
          </ns3:TrackPointExtension>
        </extensions>
      </trkpt>
      <trkpt lat="48.79483113996684551239013671875" lon="-3.5513267107307910919189453125">
        <ele>8</ele>
        <time>2026-05-10T10:10:24.000Z</time>
        <extensions>
          <ns3:TrackPointExtension>
            <ns3:atemp>17.0</ns3:atemp>
            <ns3:hr>100</ns3:hr>
          </ns3:TrackPointExtension>
        </extensions>
      </trkpt>
      <trkpt lat="48.79483734257519245147705078125" lon="-3.551312796771526336669921875">
        <ele>8.6000003814697265625</ele>
        <time>2026-05-10T10:10:25.000Z</time>
        <extensions>
          <ns3:TrackPointExtension>
            <ns3:atemp>17.0</ns3:atemp>
            <ns3:hr>101</ns3:hr>
          </ns3:TrackPointExtension>
        </extensions>
      </trkpt>
      <trkpt lat="48.79486634396016597747802734375" lon="-3.55120693333446979522705078125">
        <ele>9.3999996185302734375</ele>
        <time>2026-05-10T10:10:32.000Z</time>
        <extensions>
          <ns3:TrackPointExtension>
            <ns3:atemp>17.0</ns3:atemp>
            <ns3:hr>103</ns3:hr>
          </ns3:TrackPointExtension>
        </extensions>
      </trkpt>
      <trkpt lat="48.794897608458995819091796875" lon="-3.5511265508830547332763671875">
        <ele>9</ele>
        <time>2026-05-10T10:10:38.000Z</time>
        <extensions>
          <ns3:TrackPointExtension>
            <ns3:atemp>17.0</ns3:atemp>
            <ns3:hr>106</ns3:hr>
          </ns3:TrackPointExtension>
        </extensions>
      </trkpt>
      <trkpt lat="48.7949537672102451324462890625" lon="-3.551043570041656494140625">
        <ele>8.6000003814697265625</ele>
        <time>2026-05-10T10:10:45.000Z</time>
        <extensions>
          <ns3:TrackPointExtension>
            <ns3:atemp>17.0</ns3:atemp>
            <ns3:hr>106</ns3:hr>
          </ns3:TrackPointExtension>
        </extensions>
      </trkpt>
      <trkpt lat="48.794973380863666534423828125" lon="-3.55096251703798770904541015625">
        <ele>8</ele>
        <time>2026-05-10T10:10:51.000Z</time>
        <extensions>
          <ns3:TrackPointExtension>
            <ns3:atemp>17.0</ns3:atemp>
            <ns3:hr>106</ns3:hr>
          </ns3:TrackPointExtension>
        </extensions>
      </trkpt>
      <trkpt lat="48.7949608080089092254638671875" lon="-3.55083544738590717315673828125">
        <ele>8.19999980926513671875</ele>
        <time>2026-05-10T10:10:59.000Z</time>
        <extensions>
          <ns3:TrackPointExtension>
            <ns3:atemp>17.0</ns3:atemp>
            <ns3:hr>105</ns3:hr>
          </ns3:TrackPointExtension>
        </extensions>
      </trkpt>
      <trkpt lat="48.79496407695114612579345703125" lon="-3.5508288256824016571044921875">
        <ele>8.3999996185302734375</ele>
        <time>2026-05-10T10:11:00.000Z</time>
        <extensions>
          <ns3:TrackPointExtension>
            <ns3:atemp>17.0</ns3:atemp>
            <ns3:hr>105</ns3:hr>
          </ns3:TrackPointExtension>
        </extensions>
      </trkpt>
      <trkpt lat="48.79497916437685489654541015625" lon="-3.55079538188874721527099609375">
        <ele>8</ele>
        <time>2026-05-10T10:11:04.000Z</time>
        <extensions>
          <ns3:TrackPointExtension>
            <ns3:atemp>17.0</ns3:atemp>
            <ns3:hr>104</ns3:hr>
          </ns3:TrackPointExtension>
        </extensions>
      </trkpt>
      <trkpt lat="48.7949966825544834136962890625" lon="-3.55070334859192371368408203125">
        <ele>8.3999996185302734375</ele>
        <time>2026-05-10T10:11:10.000Z</time>
        <extensions>
          <ns3:TrackPointExtension>
            <ns3:atemp>17.0</ns3:atemp>
            <ns3:hr>104</ns3:hr>
          </ns3:TrackPointExtension>
        </extensions>
      </trkpt>
      <trkpt lat="48.79501788876950740814208984375" lon="-3.55058851651847362518310546875">
        <ele>8.6000003814697265625</ele>
        <time>2026-05-10T10:11:18.000Z</time>
        <extensions>
          <ns3:TrackPointExtension>
            <ns3:atemp>17.0</ns3:atemp>
            <ns3:hr>104</ns3:hr>
          </ns3:TrackPointExtension>
        </extensions>
      </trkpt>
      <trkpt lat="48.795019648969173431396484375" lon="-3.5505746863782405853271484375">
        <ele>8.6000003814697265625</ele>
        <time>2026-05-10T10:11:19.000Z</time>
        <extensions>
          <ns3:TrackPointExtension>
            <ns3:atemp>17.0</ns3:atemp>
            <ns3:hr>104</ns3:hr>
          </ns3:TrackPointExtension>
        </extensions>
      </trkpt>
      <trkpt lat="48.79504286684095859527587890625" lon="-3.55047485791146755218505859375">
        <ele>9.3999996185302734375</ele>
        <time>2026-05-10T10:11:26.000Z</time>
        <extensions>
          <ns3:TrackPointExtension>
            <ns3:atemp>17.0</ns3:atemp>
            <ns3:hr>105</ns3:hr>
          </ns3:TrackPointExtension>
        </extensions>
      </trkpt>
      <trkpt lat="48.79505418241024017333984375" lon="-3.550431020557880401611328125">
        <ele>9.3999996185302734375</ele>
        <time>2026-05-10T10:11:32.000Z</time>
        <extensions>
          <ns3:TrackPointExtension>
            <ns3:atemp>17.0</ns3:atemp>
            <ns3:hr>107</ns3:hr>
          </ns3:TrackPointExtension>
        </extensions>
      </trkpt>
      <trkpt lat="48.79509114660322666168212890625" lon="-3.550378046929836273193359375">
        <ele>7.400000095367431640625</ele>
        <time>2026-05-10T10:11:39.000Z</time>
        <extensions>
          <ns3:TrackPointExtension>
            <ns3:atemp>17.0</ns3:atemp>
            <ns3:hr>107</ns3:hr>
          </ns3:TrackPointExtension>
        </extensions>
      </trkpt>
      <trkpt lat="48.795159123837947845458984375" lon="-3.5503403283655643463134765625">
        <ele>7.19999980926513671875</ele>
        <time>2026-05-10T10:11:46.000Z</time>
        <extensions>
          <ns3:TrackPointExtension>
            <ns3:atemp>17.0</ns3:atemp>
            <ns3:hr>105</ns3:hr>
          </ns3:TrackPointExtension>
        </extensions>
      </trkpt>
      <trkpt lat="48.79520036280155181884765625" lon="-3.550265394151210784912109375">
        <ele>7.400000095367431640625</ele>
        <time>2026-05-10T10:11:53.000Z</time>
        <extensions>
          <ns3:TrackPointExtension>
            <ns3:atemp>17.0</ns3:atemp>
            <ns3:hr>102</ns3:hr>
          </ns3:TrackPointExtension>
        </extensions>
      </trkpt>
      <trkpt lat="48.7952077388763427734375" lon="-3.55024762451648712158203125">
        <ele>7.19999980926513671875</ele>
        <time>2026-05-10T10:11:54.000Z</time>
        <extensions>
          <ns3:TrackPointExtension>
            <ns3:atemp>17.0</ns3:atemp>
            <ns3:hr>101</ns3:hr>
          </ns3:TrackPointExtension>
        </extensions>
      </trkpt>
      <trkpt lat="48.79522182047367095947265625" lon="-3.55021434836089611053466796875">
        <ele>7</ele>
        <time>2026-05-10T10:11:56.000Z</time>
        <extensions>
          <ns3:TrackPointExtension>
            <ns3:atemp>17.0</ns3:atemp>
            <ns3:hr>98</ns3:hr>
          </ns3:TrackPointExtension>
        </extensions>
      </trkpt>
      <trkpt lat="48.79523397423326969146728515625" lon="-3.55014326982200145721435546875">
        <ele>6.599999904632568359375</ele>
        <time>2026-05-10T10:12:00.000Z</time>
        <extensions>
          <ns3:TrackPointExtension>
            <ns3:atemp>17.0</ns3:atemp>
            <ns3:hr>95</ns3:hr>
          </ns3:TrackPointExtension>
        </extensions>
      </trkpt>
      <trkpt lat="48.795255012810230255126953125" lon="-3.55005676858127117156982421875">
        <ele>7.80000019073486328125</ele>
        <time>2026-05-10T10:12:05.000Z</time>
        <extensions>
          <ns3:TrackPointExtension>
            <ns3:atemp>17.0</ns3:atemp>
            <ns3:hr>94</ns3:hr>
          </ns3:TrackPointExtension>
        </extensions>
      </trkpt>
      <trkpt lat="48.7952655740082263946533203125" lon="-3.54999390430748462677001953125">
        <ele>8.3999996185302734375</ele>
        <time>2026-05-10T10:12:09.000Z</time>
        <extensions>
          <ns3:TrackPointExtension>
            <ns3:atemp>17.0</ns3:atemp>
            <ns3:hr>94</ns3:hr>
          </ns3:TrackPointExtension>
        </extensions>
      </trkpt>
      <trkpt lat="48.79526532255113124847412109375" lon="-3.5499799065291881561279296875">
        <ele>8.6000003814697265625</ele>
        <time>2026-05-10T10:12:10.000Z</time>
        <extensions>
          <ns3:TrackPointExtension>
            <ns3:atemp>17.0</ns3:atemp>
            <ns3:hr>95</ns3:hr>
          </ns3:TrackPointExtension>
        </extensions>
      </trkpt>
      <trkpt lat="48.79525828175246715545654296875" lon="-3.5499601252377033233642578125">
        <ele>8.6000003814697265625</ele>
        <time>2026-05-10T10:12:11.000Z</time>
        <extensions>
          <ns3:TrackPointExtension>
            <ns3:atemp>17.0</ns3:atemp>
            <ns3:hr>95</ns3:hr>
          </ns3:TrackPointExtension>
        </extensions>
      </trkpt>
      <trkpt lat="48.7952511571347713470458984375" lon="-3.549897260963916778564453125">
        <ele>8.19999980926513671875</ele>
        <time>2026-05-10T10:12:15.000Z</time>
        <extensions>
          <ns3:TrackPointExtension>
            <ns3:atemp>17.0</ns3:atemp>
            <ns3:hr>95</ns3:hr>
          </ns3:TrackPointExtension>
        </extensions>
      </trkpt>
      <trkpt lat="48.79523749463260173797607421875" lon="-3.5498612187802791595458984375">
        <ele>7.19999980926513671875</ele>
        <time>2026-05-10T10:12:18.000Z</time>
        <extensions>
          <ns3:TrackPointExtension>
            <ns3:atemp>16.0</ns3:atemp>
            <ns3:hr>96</ns3:hr>
          </ns3:TrackPointExtension>
        </extensions>
      </trkpt>
      <trkpt lat="48.7952337227761745452880859375" lon="-3.54984101839363574981689453125">
        <ele>6.80000019073486328125</ele>
        <time>2026-05-10T10:12:20.000Z</time>
        <extensions>
          <ns3:TrackPointExtension>
            <ns3:atemp>16.0</ns3:atemp>
            <ns3:hr>95</ns3:hr>
          </ns3:TrackPointExtension>
        </extensions>
      </trkpt>
      <trkpt lat="48.7952229939401149749755859375" lon="-3.54981821961700916290283203125">
        <ele>6.19999980926513671875</ele>
        <time>2026-05-10T10:12:22.000Z</time>
        <extensions>
          <ns3:TrackPointExtension>
            <ns3:atemp>16.0</ns3:atemp>
            <ns3:hr>95</ns3:hr>
          </ns3:TrackPointExtension>
        </extensions>
      </trkpt>
      <trkpt lat="48.7952226586639881134033203125" lon="-3.54978117160499095916748046875">
        <ele>7.400000095367431640625</ele>
        <time>2026-05-10T10:12:25.000Z</time>
        <extensions>
          <ns3:TrackPointExtension>
            <ns3:atemp>16.0</ns3:atemp>
            <ns3:hr>94</ns3:hr>
          </ns3:TrackPointExtension>
        </extensions>
      </trkpt>
      <trkpt lat="48.7952203117311000823974609375" lon="-3.54976440779864788055419921875">
        <ele>8.19999980926513671875</ele>
        <time>2026-05-10T10:12:26.000Z</time>
        <extensions>
          <ns3:TrackPointExtension>
            <ns3:atemp>16.0</ns3:atemp>
            <ns3:hr>94</ns3:hr>
          </ns3:TrackPointExtension>
        </extensions>
      </trkpt>
      <trkpt lat="48.795221149921417236328125" lon="-3.54974362067878246307373046875">
        <ele>9.19999980926513671875</ele>
        <time>2026-05-10T10:12:28.000Z</time>
        <extensions>
          <ns3:TrackPointExtension>
            <ns3:atemp>16.0</ns3:atemp>
            <ns3:hr>95</ns3:hr>
          </ns3:TrackPointExtension>
        </extensions>
      </trkpt>
      <trkpt lat="48.79522777162492275238037109375" lon="-3.54972191154956817626953125">
        <ele>10.6000003814697265625</ele>
        <time>2026-05-10T10:12:30.000Z</time>
        <extensions>
          <ns3:TrackPointExtension>
            <ns3:atemp>16.0</ns3:atemp>
            <ns3:hr>99</ns3:hr>
          </ns3:TrackPointExtension>
        </extensions>
      </trkpt>
      <trkpt lat="48.79522961564362049102783203125" lon="-3.54970824904739856719970703125">
        <ele>10.6000003814697265625</ele>
        <time>2026-05-10T10:12:31.000Z</time>
        <extensions>
          <ns3:TrackPointExtension>
            <ns3:atemp>16.0</ns3:atemp>
            <ns3:hr>103</ns3:hr>
          </ns3:TrackPointExtension>
        </extensions>
      </trkpt>
      <trkpt lat="48.79522844217717647552490234375" lon="-3.54969684965908527374267578125">
        <ele>10.80000019073486328125</ele>
        <time>2026-05-10T10:12:32.000Z</time>
        <extensions>
          <ns3:TrackPointExtension>
            <ns3:atemp>16.0</ns3:atemp>
            <ns3:hr>106</ns3:hr>
          </ns3:TrackPointExtension>
        </extensions>
      </trkpt>
      <trkpt lat="48.79523213021457195281982421875" lon="-3.549641110002994537353515625">
        <ele>9.6000003814697265625</ele>
        <time>2026-05-10T10:12:36.000Z</time>
        <extensions>
          <ns3:TrackPointExtension>
            <ns3:atemp>16.0</ns3:atemp>
            <ns3:hr>108</ns3:hr>
          </ns3:TrackPointExtension>
        </extensions>
      </trkpt>
      <trkpt lat="48.79523095674812793731689453125" lon="-3.54961688630282878875732421875">
        <ele>9.19999980926513671875</ele>
        <time>2026-05-10T10:12:38.000Z</time>
        <extensions>
          <ns3:TrackPointExtension>
            <ns3:atemp>16.0</ns3:atemp>
            <ns3:hr>109</ns3:hr>
          </ns3:TrackPointExtension>
        </extensions>
      </trkpt>
      <trkpt lat="48.79523011855781078338623046875" lon="-3.54953994043171405792236328125">
        <ele>8.6000003814697265625</ele>
        <time>2026-05-10T10:12:44.000Z</time>
        <extensions>
          <ns3:TrackPointExtension>
            <ns3:atemp>16.0</ns3:atemp>
            <ns3:hr>108</ns3:hr>
          </ns3:TrackPointExtension>
        </extensions>
      </trkpt>
      <trkpt lat="48.79523749463260173797607421875" lon="-3.5495195724070072174072265625">
        <ele>8.6000003814697265625</ele>
        <time>2026-05-10T10:12:46.000Z</time>
        <extensions>
          <ns3:TrackPointExtension>
            <ns3:atemp>16.0</ns3:atemp>
            <ns3:hr>107</ns3:hr>
          </ns3:TrackPointExtension>
        </extensions>
      </trkpt>
      <trkpt lat="48.79524855874478816986083984375" lon="-3.5494709573686122894287109375">
        <ele>8.80000019073486328125</ele>
        <time>2026-05-10T10:12:50.000Z</time>
        <extensions>
          <ns3:TrackPointExtension>
            <ns3:atemp>16.0</ns3:atemp>
            <ns3:hr>107</ns3:hr>
          </ns3:TrackPointExtension>
        </extensions>
      </trkpt>
      <trkpt lat="48.795265071094036102294921875" lon="-3.5494079254567623138427734375">
        <ele>8.3999996185302734375</ele>
        <time>2026-05-10T10:12:56.000Z</time>
        <extensions>
          <ns3:TrackPointExtension>
            <ns3:atemp>16.0</ns3:atemp>
            <ns3:hr>106</ns3:hr>
          </ns3:TrackPointExtension>
        </extensions>
      </trkpt>
      <trkpt lat="48.795303963124752044677734375" lon="-3.5493180714547634124755859375">
        <ele>9</ele>
        <time>2026-05-10T10:13:04.000Z</time>
        <extensions>
          <ns3:TrackPointExtension>
            <ns3:atemp>16.0</ns3:atemp>
            <ns3:hr>106</ns3:hr>
          </ns3:TrackPointExtension>
        </extensions>
      </trkpt>
      <trkpt lat="48.79532265476882457733154296875" lon="-3.54922846890985965728759765625">
        <ele>7.19999980926513671875</ele>
        <time>2026-05-10T10:13:10.000Z</time>
        <extensions>
          <ns3:TrackPointExtension>
            <ns3:atemp>16.0</ns3:atemp>
            <ns3:hr>107</ns3:hr>
          </ns3:TrackPointExtension>
        </extensions>
      </trkpt>
      <trkpt lat="48.795326761901378631591796875" lon="-3.54918706230819225311279296875">
        <ele>6.599999904632568359375</ele>
        <time>2026-05-10T10:13:13.000Z</time>
        <extensions>
          <ns3:TrackPointExtension>
            <ns3:atemp>16.0</ns3:atemp>
            <ns3:hr>110</ns3:hr>
          </ns3:TrackPointExtension>
        </extensions>
      </trkpt>
      <trkpt lat="48.79533623345196247100830078125" lon="-3.5491727292537689208984375">
        <ele>7.19999980926513671875</ele>
        <time>2026-05-10T10:13:15.000Z</time>
        <extensions>
          <ns3:TrackPointExtension>
            <ns3:atemp>16.0</ns3:atemp>
            <ns3:hr>110</ns3:hr>
          </ns3:TrackPointExtension>
        </extensions>
      </trkpt>
      <trkpt lat="48.79534377716481685638427734375" lon="-3.54917985387146472930908203125">
        <ele>7.599999904632568359375</ele>
        <time>2026-05-10T10:13:17.000Z</time>
        <extensions>
          <ns3:TrackPointExtension>
            <ns3:atemp>16.0</ns3:atemp>
            <ns3:hr>109</ns3:hr>
          </ns3:TrackPointExtension>
        </extensions>
      </trkpt>
      <trkpt lat="48.795339502394199371337890625" lon="-3.5491695441305637359619140625">
        <ele>7.80000019073486328125</ele>
        <time>2026-05-10T10:13:19.000Z</time>
        <extensions>
          <ns3:TrackPointExtension>
            <ns3:atemp>16.0</ns3:atemp>
            <ns3:hr>109</ns3:hr>
          </ns3:TrackPointExtension>
        </extensions>
      </trkpt>
      <trkpt lat="48.7953262589871883392333984375" lon="-3.5491340048611164093017578125">
        <ele>7.80000019073486328125</ele>
        <time>2026-05-10T10:13:22.000Z</time>
        <extensions>
          <ns3:TrackPointExtension>
            <ns3:atemp>16.0</ns3:atemp>
            <ns3:hr>108</ns3:hr>
          </ns3:TrackPointExtension>
        </extensions>
      </trkpt>
      <trkpt lat="48.795328773558139801025390625" lon="-3.5491205938160419464111328125">
        <ele>7.80000019073486328125</ele>
        <time>2026-05-10T10:13:23.000Z</time>
        <extensions>
          <ns3:TrackPointExtension>
            <ns3:atemp>16.0</ns3:atemp>
            <ns3:hr>108</ns3:hr>
          </ns3:TrackPointExtension>
        </extensions>
      </trkpt>
      <trkpt lat="48.79534528590738773345947265625" lon="-3.5490511916577816009521484375">
        <ele>8.19999980926513671875</ele>
        <time>2026-05-10T10:13:29.000Z</time>
        <extensions>
          <ns3:TrackPointExtension>
            <ns3:atemp>16.0</ns3:atemp>
            <ns3:hr>107</ns3:hr>
          </ns3:TrackPointExtension>
        </extensions>
      </trkpt>
      <trkpt lat="48.79537604749202728271484375" lon="-3.54897089302539825439453125">
        <ele>7.80000019073486328125</ele>
        <time>2026-05-10T10:13:35.000Z</time>
        <extensions>
          <ns3:TrackPointExtension>
            <ns3:atemp>16.0</ns3:atemp>
            <ns3:hr>106</ns3:hr>
          </ns3:TrackPointExtension>
        </extensions>
      </trkpt>
      <trkpt lat="48.79541452042758464813232421875" lon="-3.54889788664877414703369140625">
        <ele>7</ele>
        <time>2026-05-10T10:13:40.000Z</time>
        <extensions>
          <ns3:TrackPointExtension>
            <ns3:atemp>16.0</ns3:atemp>
            <ns3:hr>106</ns3:hr>
          </ns3:TrackPointExtension>
        </extensions>
      </trkpt>
      <trkpt lat="48.7954204715788364410400390625" lon="-3.5488884150981903076171875">
        <ele>7</ele>
        <time>2026-05-10T10:13:41.000Z</time>
        <extensions>
          <ns3:TrackPointExtension>
            <ns3:atemp>16.0</ns3:atemp>
            <ns3:hr>106</ns3:hr>
          </ns3:TrackPointExtension>
        </extensions>
      </trkpt>
      <trkpt lat="48.79544452764093875885009765625" lon="-3.54881322942674160003662109375">
        <ele>7</ele>
        <time>2026-05-10T10:13:46.000Z</time>
        <extensions>
          <ns3:TrackPointExtension>
            <ns3:atemp>16.0</ns3:atemp>
            <ns3:hr>105</ns3:hr>
          </ns3:TrackPointExtension>
        </extensions>
      </trkpt>
      <trkpt lat="48.7954660691320896148681640625" lon="-3.54872236959636211395263671875">
        <ele>6.599999904632568359375</ele>
        <time>2026-05-10T10:13:53.000Z</time>
        <extensions>
          <ns3:TrackPointExtension>
            <ns3:atemp>16.0</ns3:atemp>
            <ns3:hr>104</ns3:hr>
          </ns3:TrackPointExtension>
        </extensions>
      </trkpt>
      <trkpt lat="48.7954912148416042327880859375" lon="-3.5486797057092189788818359375">
        <ele>6.400000095367431640625</ele>
        <time>2026-05-10T10:13:58.000Z</time>
        <extensions>
          <ns3:TrackPointExtension>
            <ns3:atemp>16.0</ns3:atemp>
            <ns3:hr>102</ns3:hr>
          </ns3:TrackPointExtension>
        </extensions>
      </trkpt>
      <trkpt lat="48.79549138247966766357421875" lon="-3.54866654612123966217041015625">
        <ele>6.599999904632568359375</ele>
        <time>2026-05-10T10:14:00.000Z</time>
        <extensions>
          <ns3:TrackPointExtension>
            <ns3:atemp>16.0</ns3:atemp>
            <ns3:hr>101</ns3:hr>
          </ns3:TrackPointExtension>
        </extensions>
      </trkpt>
      <trkpt lat="48.795505128800868988037109375" lon="-3.548633269965648651123046875">
        <ele>7</ele>
        <time>2026-05-10T10:14:03.000Z</time>
        <extensions>
          <ns3:TrackPointExtension>
            <ns3:atemp>16.0</ns3:atemp>
            <ns3:hr>100</ns3:hr>
          </ns3:TrackPointExtension>
        </extensions>
      </trkpt>
      <trkpt lat="48.795512504875659942626953125" lon="-3.54859680868685245513916015625">
        <ele>7.19999980926513671875</ele>
        <time>2026-05-10T10:14:06.000Z</time>
        <extensions>
          <ns3:TrackPointExtension>
            <ns3:atemp>16.0</ns3:atemp>
            <ns3:hr>101</ns3:hr>
          </ns3:TrackPointExtension>
        </extensions>
      </trkpt>
      <trkpt lat="48.7955121695995330810546875" lon="-3.548570908606052398681640625">
        <ele>8.3999996185302734375</ele>
        <time>2026-05-10T10:14:09.000Z</time>
        <extensions>
          <ns3:TrackPointExtension>
            <ns3:atemp>16.0</ns3:atemp>
            <ns3:hr>101</ns3:hr>
          </ns3:TrackPointExtension>
        </extensions>
      </trkpt>
      <trkpt lat="48.79552583210170269012451171875" lon="-3.54852564632892608642578125">
        <ele>8.3999996185302734375</ele>
        <time>2026-05-10T10:14:14.000Z</time>
        <extensions>
          <ns3:TrackPointExtension>
            <ns3:atemp>16.0</ns3:atemp>
            <ns3:hr>102</ns3:hr>
          </ns3:TrackPointExtension>
        </extensions>
      </trkpt>
      <trkpt lat="48.7955297715961933135986328125" lon="-3.54850896634161472320556640625">
        <ele>8.19999980926513671875</ele>
        <time>2026-05-10T10:14:16.000Z</time>
        <extensions>
          <ns3:TrackPointExtension>
            <ns3:atemp>16.0</ns3:atemp>
            <ns3:hr>102</ns3:hr>
          </ns3:TrackPointExtension>
        </extensions>
      </trkpt>
      <trkpt lat="48.7955223955214023590087890625" lon="-3.5484728403389453887939453125">
        <ele>7.19999980926513671875</ele>
        <time>2026-05-10T10:14:19.000Z</time>
        <extensions>
          <ns3:TrackPointExtension>
            <ns3:atemp>16.0</ns3:atemp>
            <ns3:hr>103</ns3:hr>
          </ns3:TrackPointExtension>
        </extensions>
      </trkpt>
      <trkpt lat="48.79552491009235382080078125" lon="-3.54846303351223468780517578125">
        <ele>6.80000019073486328125</ele>
        <time>2026-05-10T10:14:20.000Z</time>
        <extensions>
          <ns3:TrackPointExtension>
            <ns3:atemp>16.0</ns3:atemp>
            <ns3:hr>103</ns3:hr>
          </ns3:TrackPointExtension>
        </extensions>
      </trkpt>
      <trkpt lat="48.79552281461656093597412109375" lon="-3.54843537323176860809326171875">
        <ele>6.19999980926513671875</ele>
        <time>2026-05-10T10:14:22.000Z</time>
        <extensions>
          <ns3:TrackPointExtension>
            <ns3:atemp>16.0</ns3:atemp>
            <ns3:hr>103</ns3:hr>
          </ns3:TrackPointExtension>
        </extensions>
      </trkpt>
      <trkpt lat="48.79553874023258686065673828125" lon="-3.54839698411524295806884765625">
        <ele>5.599999904632568359375</ele>
        <time>2026-05-10T10:14:26.000Z</time>
        <extensions>
          <ns3:TrackPointExtension>
            <ns3:atemp>16.0</ns3:atemp>
            <ns3:hr>103</ns3:hr>
          </ns3:TrackPointExtension>
        </extensions>
      </trkpt>
      <trkpt lat="48.79554544575512409210205078125" lon="-3.5483611933887004852294921875">
        <ele>7.400000095367431640625</ele>
        <time>2026-05-10T10:14:29.000Z</time>
        <extensions>
          <ns3:TrackPointExtension>
            <ns3:atemp>16.0</ns3:atemp>
            <ns3:hr>104</ns3:hr>
          </ns3:TrackPointExtension>
        </extensions>
      </trkpt>
      <trkpt lat="48.79555148072540760040283203125" lon="-3.54831970296800136566162109375">
        <ele>8.6000003814697265625</ele>
        <time>2026-05-10T10:14:33.000Z</time>
        <extensions>
          <ns3:TrackPointExtension>
            <ns3:atemp>16.0</ns3:atemp>
            <ns3:hr>104</ns3:hr>
          </ns3:TrackPointExtension>
        </extensions>
      </trkpt>
      <trkpt lat="48.79555399529635906219482421875" lon="-3.5483062081038951873779296875">
        <ele>8.3999996185302734375</ele>
        <time>2026-05-10T10:14:34.000Z</time>
        <extensions>
          <ns3:TrackPointExtension>
            <ns3:atemp>16.0</ns3:atemp>
            <ns3:hr>105</ns3:hr>
          </ns3:TrackPointExtension>
        </extensions>
      </trkpt>
      <trkpt lat="48.795557431876659393310546875" lon="-3.54827092029154300689697265625">
        <ele>8</ele>
        <time>2026-05-10T10:14:41.000Z</time>
        <extensions>
          <ns3:TrackPointExtension>
            <ns3:atemp>16.0</ns3:atemp>
            <ns3:hr>104</ns3:hr>
          </ns3:TrackPointExtension>
        </extensions>
      </trkpt>
      <trkpt lat="48.79558391869068145751953125" lon="-3.5482441820204257965087890625">
        <ele>8</ele>
        <time>2026-05-10T10:14:45.000Z</time>
        <extensions>
          <ns3:TrackPointExtension>
            <ns3:atemp>16.0</ns3:atemp>
            <ns3:hr>104</ns3:hr>
          </ns3:TrackPointExtension>
        </extensions>
      </trkpt>
      <trkpt lat="48.7955978326499462127685546875" lon="-3.54818207211792469024658203125">
        <ele>8.3999996185302734375</ele>
        <time>2026-05-10T10:14:50.000Z</time>
        <extensions>
          <ns3:TrackPointExtension>
            <ns3:atemp>16.0</ns3:atemp>
            <ns3:hr>105</ns3:hr>
          </ns3:TrackPointExtension>
        </extensions>
      </trkpt>
      <trkpt lat="48.79559992812573909759521484375" lon="-3.54812809266149997711181640625">
        <ele>7.599999904632568359375</ele>
        <time>2026-05-10T10:14:54.000Z</time>
        <extensions>
          <ns3:TrackPointExtension>
            <ns3:atemp>16.0</ns3:atemp>
            <ns3:hr>105</ns3:hr>
          </ns3:TrackPointExtension>
        </extensions>
      </trkpt>
      <trkpt lat="48.79559841938316822052001953125" lon="-3.5481094010174274444580078125">
        <ele>7.19999980926513671875</ele>
        <time>2026-05-10T10:14:56.000Z</time>
        <extensions>
          <ns3:TrackPointExtension>
            <ns3:atemp>16.0</ns3:atemp>
            <ns3:hr>105</ns3:hr>
          </ns3:TrackPointExtension>
        </extensions>
      </trkpt>
      <trkpt lat="48.79560847766697406768798828125" lon="-3.54805852286517620086669921875">
        <ele>8</ele>
        <time>2026-05-10T10:15:02.000Z</time>
        <extensions>
          <ns3:TrackPointExtension>
            <ns3:atemp>16.0</ns3:atemp>
            <ns3:hr>105</ns3:hr>
          </ns3:TrackPointExtension>
        </extensions>
      </trkpt>
      <trkpt lat="48.7956139259040355682373046875" lon="-3.5480302758514881134033203125">
        <ele>6.80000019073486328125</ele>
        <time>2026-05-10T10:15:08.000Z</time>
        <extensions>
          <ns3:TrackPointExtension>
            <ns3:atemp>16.0</ns3:atemp>
            <ns3:hr>104</ns3:hr>
          </ns3:TrackPointExtension>
        </extensions>
      </trkpt>
      <trkpt lat="48.79561585374176502227783203125" lon="-3.54802197776734828948974609375">
        <ele>6.400000095367431640625</ele>
        <time>2026-05-10T10:15:09.000Z</time>
        <extensions>
          <ns3:TrackPointExtension>
            <ns3:atemp>16.0</ns3:atemp>
            <ns3:hr>104</ns3:hr>
          </ns3:TrackPointExtension>
        </extensions>
      </trkpt>
      <trkpt lat="48.7956243194639682769775390625" lon="-3.54796363972127437591552734375">
        <ele>7</ele>
        <time>2026-05-10T10:15:15.000Z</time>
        <extensions>
          <ns3:TrackPointExtension>
            <ns3:atemp>16.0</ns3:atemp>
            <ns3:hr>103</ns3:hr>
          </ns3:TrackPointExtension>
        </extensions>
      </trkpt>
      <trkpt lat="48.79562322981655597686767578125" lon="-3.5479488037526607513427734375">
        <ele>7.599999904632568359375</ele>
        <time>2026-05-10T10:15:17.000Z</time>
        <extensions>
          <ns3:TrackPointExtension>
            <ns3:atemp>16.0</ns3:atemp>
            <ns3:hr>102</ns3:hr>
          </ns3:TrackPointExtension>
        </extensions>
      </trkpt>
      <trkpt lat="48.7956256605684757232666015625" lon="-3.54789398610591888427734375">
        <ele>7.80000019073486328125</ele>
        <time>2026-05-10T10:15:22.000Z</time>
        <extensions>
          <ns3:TrackPointExtension>
            <ns3:atemp>16.0</ns3:atemp>
            <ns3:hr>99</ns3:hr>
          </ns3:TrackPointExtension>
        </extensions>
      </trkpt>
      <trkpt lat="48.7956301867961883544921875" lon="-3.5478423535823822021484375">
        <ele>7.599999904632568359375</ele>
        <time>2026-05-10T10:15:28.000Z</time>
        <extensions>
          <ns3:TrackPointExtension>
            <ns3:atemp>16.0</ns3:atemp>
            <ns3:hr>98</ns3:hr>
          </ns3:TrackPointExtension>
        </extensions>
      </trkpt>
      <trkpt lat="48.79563110880553722381591796875" lon="-3.54782156646251678466796875">
        <ele>7.599999904632568359375</ele>
        <time>2026-05-10T10:15:34.000Z</time>
        <extensions>
          <ns3:TrackPointExtension>
            <ns3:atemp>16.0</ns3:atemp>
            <ns3:hr>96</ns3:hr>
          </ns3:TrackPointExtension>
        </extensions>
      </trkpt>
      <trkpt lat="48.7956333719193935394287109375" lon="-3.5478106699883937835693359375">
        <ele>7.599999904632568359375</ele>
        <time>2026-05-10T10:15:35.000Z</time>
        <extensions>
          <ns3:TrackPointExtension>
            <ns3:atemp>16.0</ns3:atemp>
            <ns3:hr>96</ns3:hr>
          </ns3:TrackPointExtension>
        </extensions>
      </trkpt>
      <trkpt lat="48.7956400774419307708740234375" lon="-3.54778376407921314239501953125">
        <ele>7.19999980926513671875</ele>
        <time>2026-05-10T10:15:39.000Z</time>
        <extensions>
          <ns3:TrackPointExtension>
            <ns3:atemp>16.0</ns3:atemp>
            <ns3:hr>93</ns3:hr>
          </ns3:TrackPointExtension>
        </extensions>
      </trkpt>
      <trkpt lat="48.7956441007554531097412109375" lon="-3.54777487926185131072998046875">
        <ele>6.599999904632568359375</ele>
        <time>2026-05-10T10:15:41.000Z</time>
        <extensions>
          <ns3:TrackPointExtension>
            <ns3:atemp>16.0</ns3:atemp>
            <ns3:hr>93</ns3:hr>
          </ns3:TrackPointExtension>
        </extensions>
      </trkpt>
      <trkpt lat="48.79565365612506866455078125" lon="-3.5477305389940738677978515625">
        <ele>5.80000019073486328125</ele>
        <time>2026-05-10T10:15:48.000Z</time>
        <extensions>
          <ns3:TrackPointExtension>
            <ns3:atemp>16.0</ns3:atemp>
            <ns3:hr>92</ns3:hr>
          </ns3:TrackPointExtension>
        </extensions>
      </trkpt>
      <trkpt lat="48.7956699170172214508056640625" lon="-3.54771159589290618896484375">
        <ele>5.599999904632568359375</ele>
        <time>2026-05-10T10:15:50.000Z</time>
        <extensions>
          <ns3:TrackPointExtension>
            <ns3:atemp>16.0</ns3:atemp>
            <ns3:hr>91</ns3:hr>
          </ns3:TrackPointExtension>
        </extensions>
      </trkpt>
      <trkpt lat="48.795700259506702423095703125" lon="-3.54764529503881931304931640625">
        <ele>6.19999980926513671875</ele>
        <time>2026-05-10T10:15:54.000Z</time>
        <extensions>
          <ns3:TrackPointExtension>
            <ns3:atemp>16.0</ns3:atemp>
            <ns3:hr>89</ns3:hr>
          </ns3:TrackPointExtension>
        </extensions>
      </trkpt>
      <trkpt lat="48.795709647238254547119140625" lon="-3.5476098395884037017822265625">
        <ele>6.80000019073486328125</ele>
        <time>2026-05-10T10:15:56.000Z</time>
        <extensions>
          <ns3:TrackPointExtension>
            <ns3:atemp>16.0</ns3:atemp>
            <ns3:hr>89</ns3:hr>
          </ns3:TrackPointExtension>
        </extensions>
      </trkpt>
      <trkpt lat="48.7957188673317432403564453125" lon="-3.5475634038448333740234375">
        <ele>7.19999980926513671875</ele>
        <time>2026-05-10T10:15:59.000Z</time>
        <extensions>
          <ns3:TrackPointExtension>
            <ns3:atemp>16.0</ns3:atemp>
            <ns3:hr>90</ns3:hr>
          </ns3:TrackPointExtension>
        </extensions>
      </trkpt>
      <trkpt lat="48.79572649486362934112548828125" lon="-3.547486625611782073974609375">
        <ele>7</ele>
        <time>2026-05-10T10:16:04.000Z</time>
        <extensions>
          <ns3:TrackPointExtension>
            <ns3:atemp>16.0</ns3:atemp>
            <ns3:hr>90</ns3:hr>
          </ns3:TrackPointExtension>
        </extensions>
      </trkpt>
      <trkpt lat="48.7957014329731464385986328125" lon="-3.547406159341335296630859375">
        <ele>5.19999980926513671875</ele>
        <time>2026-05-10T10:16:09.000Z</time>
        <extensions>
          <ns3:TrackPointExtension>
            <ns3:atemp>16.0</ns3:atemp>
            <ns3:hr>91</ns3:hr>
          </ns3:TrackPointExtension>
        </extensions>
      </trkpt>
      <trkpt lat="48.795704282820224761962890625" lon="-3.54735947214066982269287109375">
        <ele>4.400000095367431640625</ele>
        <time>2026-05-10T10:16:12.000Z</time>
        <extensions>
          <ns3:TrackPointExtension>
            <ns3:atemp>16.0</ns3:atemp>
            <ns3:hr>90</ns3:hr>
          </ns3:TrackPointExtension>
        </extensions>
      </trkpt>
      <trkpt lat="48.79571459256112575531005859375" lon="-3.547334410250186920166015625">
        <ele>4.80000019073486328125</ele>
        <time>2026-05-10T10:16:14.000Z</time>
        <extensions>
          <ns3:TrackPointExtension>
            <ns3:atemp>16.0</ns3:atemp>
            <ns3:hr>91</ns3:hr>
          </ns3:TrackPointExtension>
        </extensions>
      </trkpt>
      <trkpt lat="48.7957436777651309967041015625" lon="-3.54726576246321201324462890625">
        <ele>6.400000095367431640625</ele>
        <time>2026-05-10T10:16:19.000Z</time>
        <extensions>
          <ns3:TrackPointExtension>
            <ns3:atemp>16.0</ns3:atemp>
            <ns3:hr>90</ns3:hr>
          </ns3:TrackPointExtension>
        </extensions>
      </trkpt>
      <trkpt lat="48.79574711434543132781982421875" lon="-3.5472574643790721893310546875">
        <ele>6.80000019073486328125</ele>
        <time>2026-05-10T10:16:20.000Z</time>
        <extensions>
          <ns3:TrackPointExtension>
            <ns3:atemp>16.0</ns3:atemp>
            <ns3:hr>89</ns3:hr>
          </ns3:TrackPointExtension>
        </extensions>
      </trkpt>
      <trkpt lat="48.7957480363547801971435546875" lon="-3.54724279604852199554443359375">
        <ele>7.400000095367431640625</ele>
        <time>2026-05-10T10:16:21.000Z</time>
        <extensions>
          <ns3:TrackPointExtension>
            <ns3:atemp>16.0</ns3:atemp>
            <ns3:hr>90</ns3:hr>
          </ns3:TrackPointExtension>
        </extensions>
      </trkpt>
      <trkpt lat="48.79575331695377826690673828125" lon="-3.54721999727189540863037109375">
        <ele>8.6000003814697265625</ele>
        <time>2026-05-10T10:16:23.000Z</time>
        <extensions>
          <ns3:TrackPointExtension>
            <ns3:atemp>16.0</ns3:atemp>
            <ns3:hr>89</ns3:hr>
          </ns3:TrackPointExtension>
        </extensions>
      </trkpt>
      <trkpt lat="48.79576672799885272979736328125" lon="-3.54717758484184741973876953125">
        <ele>9.19999980926513671875</ele>
        <time>2026-05-10T10:16:26.000Z</time>
        <extensions>
          <ns3:TrackPointExtension>
            <ns3:atemp>16.0</ns3:atemp>
            <ns3:hr>90</ns3:hr>
          </ns3:TrackPointExtension>
        </extensions>
      </trkpt>
      <trkpt lat="48.79579070024192333221435546875" lon="-3.5470913350582122802734375">
        <ele>7.80000019073486328125</ele>
        <time>2026-05-10T10:16:33.000Z</time>
        <extensions>
          <ns3:TrackPointExtension>
            <ns3:atemp>16.0</ns3:atemp>
            <ns3:hr>93</ns3:hr>
          </ns3:TrackPointExtension>
        </extensions>
      </trkpt>
      <trkpt lat="48.79579455591738224029541015625" lon="-3.54707951657474040985107421875">
        <ele>7.599999904632568359375</ele>
        <time>2026-05-10T10:16:34.000Z</time>
        <extensions>
          <ns3:TrackPointExtension>
            <ns3:atemp>16.0</ns3:atemp>
            <ns3:hr>96</ns3:hr>
          </ns3:TrackPointExtension>
        </extensions>
      </trkpt>
      <trkpt lat="48.7957986630499362945556640625" lon="-3.54706585407257080078125">
        <ele>7.599999904632568359375</ele>
        <time>2026-05-10T10:16:35.000Z</time>
        <extensions>
          <ns3:TrackPointExtension>
            <ns3:atemp>16.0</ns3:atemp>
            <ns3:hr>99</ns3:hr>
          </ns3:TrackPointExtension>
        </extensions>
      </trkpt>
      <trkpt lat="48.7958110682666301727294921875" lon="-3.5470296442508697509765625">
        <ele>7.400000095367431640625</ele>
        <time>2026-05-10T10:16:38.000Z</time>
        <extensions>
          <ns3:TrackPointExtension>
            <ns3:atemp>16.0</ns3:atemp>
            <ns3:hr>102</ns3:hr>
          </ns3:TrackPointExtension>
        </extensions>
      </trkpt>
      <trkpt lat="48.7958268262445926666259765625" lon="-3.54698228649795055389404296875">
        <ele>7.19999980926513671875</ele>
        <time>2026-05-10T10:16:42.000Z</time>
        <extensions>
          <ns3:TrackPointExtension>
            <ns3:atemp>16.0</ns3:atemp>
            <ns3:hr>105</ns3:hr>
          </ns3:TrackPointExtension>
        </extensions>
      </trkpt>
      <trkpt lat="48.79585683345794677734375" lon="-3.54691305197775363922119140625">
        <ele>6.599999904632568359375</ele>
        <time>2026-05-10T10:16:49.000Z</time>
        <extensions>
          <ns3:TrackPointExtension>
            <ns3:atemp>16.0</ns3:atemp>
            <ns3:hr>105</ns3:hr>
          </ns3:TrackPointExtension>
        </extensions>
      </trkpt>
      <trkpt lat="48.79586479626595973968505859375" lon="-3.54690265841782093048095703125">
        <ele>6.599999904632568359375</ele>
        <time>2026-05-10T10:16:50.000Z</time>
        <extensions>
          <ns3:TrackPointExtension>
            <ns3:atemp>16.0</ns3:atemp>
            <ns3:hr>104</ns3:hr>
          </ns3:TrackPointExtension>
        </extensions>
      </trkpt>
      <trkpt lat="48.795886673033237457275390625" lon="-3.54687449522316455841064453125">
        <ele>5.19999980926513671875</ele>
        <time>2026-05-10T10:16:54.000Z</time>
        <extensions>
          <ns3:TrackPointExtension>
            <ns3:atemp>16.0</ns3:atemp>
            <ns3:hr>103</ns3:hr>
          </ns3:TrackPointExtension>
        </extensions>
      </trkpt>
      <trkpt lat="48.79589295946061611175537109375" lon="-3.5468579828739166259765625">
        <ele>4.599999904632568359375</ele>
        <time>2026-05-10T10:16:56.000Z</time>
        <extensions>
          <ns3:TrackPointExtension>
            <ns3:atemp>16.0</ns3:atemp>
            <ns3:hr>103</ns3:hr>
          </ns3:TrackPointExtension>
        </extensions>
      </trkpt>
      <trkpt lat="48.795895390212535858154296875" lon="-3.546849600970745086669921875">
        <ele>3.400000095367431640625</ele>
        <time>2026-05-10T10:16:57.000Z</time>
        <extensions>
          <ns3:TrackPointExtension>
            <ns3:atemp>16.0</ns3:atemp>
            <ns3:hr>104</ns3:hr>
          </ns3:TrackPointExtension>
        </extensions>
      </trkpt>
      <trkpt lat="48.79589916206896305084228515625" lon="-3.546797968447208404541015625">
        <ele>3.599999904632568359375</ele>
        <time>2026-05-10T10:17:02.000Z</time>
        <extensions>
          <ns3:TrackPointExtension>
            <ns3:atemp>16.0</ns3:atemp>
            <ns3:hr>102</ns3:hr>
          </ns3:TrackPointExtension>
        </extensions>
      </trkpt>
      <trkpt lat="48.7959180213510990142822265625" lon="-3.5467565618455410003662109375">
        <ele>3.7999999523162841796875</ele>
        <time>2026-05-10T10:17:08.000Z</time>
        <extensions>
          <ns3:TrackPointExtension>
            <ns3:atemp>16.0</ns3:atemp>
            <ns3:hr>100</ns3:hr>
          </ns3:TrackPointExtension>
        </extensions>
      </trkpt>
      <trkpt lat="48.7959180213510990142822265625" lon="-3.546756394207477569580078125">
        <ele>4.599999904632568359375</ele>
        <time>2026-05-10T10:17:09.000Z</time>
        <extensions>
          <ns3:TrackPointExtension>
            <ns3:atemp>16.0</ns3:atemp>
            <ns3:hr>100</ns3:hr>
          </ns3:TrackPointExtension>
        </extensions>
      </trkpt>
      <trkpt lat="48.7959180213510990142822265625" lon="-3.546756394207477569580078125">
        <ele>4.19999980926513671875</ele>
        <time>2026-05-10T10:17:17.000Z</time>
        <extensions>
          <ns3:TrackPointExtension>
            <ns3:atemp>16.0</ns3:atemp>
            <ns3:hr>97</ns3:hr>
          </ns3:TrackPointExtension>
        </extensions>
      </trkpt>
      <trkpt lat="48.7959180213510990142822265625" lon="-3.546756394207477569580078125">
        <ele>4.19999980926513671875</ele>
        <time>2026-05-10T10:17:19.000Z</time>
        <extensions>
          <ns3:TrackPointExtension>
            <ns3:atemp>16.0</ns3:atemp>
            <ns3:hr>97</ns3:hr>
          </ns3:TrackPointExtension>
        </extensions>
      </trkpt>
      <trkpt lat="48.79591240547597408294677734375" lon="-3.54675496928393840789794921875">
        <ele>2.400000095367431640625</ele>
        <time>2026-05-10T10:17:25.000Z</time>
        <extensions>
          <ns3:TrackPointExtension>
            <ns3:atemp>16.0</ns3:atemp>
            <ns3:hr>93</ns3:hr>
          </ns3:TrackPointExtension>
        </extensions>
      </trkpt>
      <trkpt lat="48.795910142362117767333984375" lon="-3.54675404727458953857421875">
        <ele>2</ele>
        <time>2026-05-10T10:17:26.000Z</time>
        <extensions>
          <ns3:TrackPointExtension>
            <ns3:atemp>16.0</ns3:atemp>
            <ns3:hr>91</ns3:hr>
          </ns3:TrackPointExtension>
        </extensions>
      </trkpt>
      <trkpt lat="48.7959274090826511383056640625" lon="-3.546730577945709228515625">
        <ele>1.39999997615814208984375</ele>
        <time>2026-05-10T10:17:30.000Z</time>
        <extensions>
          <ns3:TrackPointExtension>
            <ns3:atemp>16.0</ns3:atemp>
            <ns3:hr>90</ns3:hr>
          </ns3:TrackPointExtension>
        </extensions>
      </trkpt>
      <trkpt lat="48.795952387154102325439453125" lon="-3.54669210501015186309814453125">
        <ele>3</ele>
        <time>2026-05-10T10:17:37.000Z</time>
        <extensions>
          <ns3:TrackPointExtension>
            <ns3:atemp>16.0</ns3:atemp>
            <ns3:hr>88</ns3:hr>
          </ns3:TrackPointExtension>
        </extensions>
      </trkpt>
      <trkpt lat="48.79595615901052951812744140625" lon="-3.54668405838310718536376953125">
        <ele>3.2000000476837158203125</ele>
        <time>2026-05-10T10:17:38.000Z</time>
        <extensions>
          <ns3:TrackPointExtension>
            <ns3:atemp>16.0</ns3:atemp>
            <ns3:hr>88</ns3:hr>
          </ns3:TrackPointExtension>
        </extensions>
      </trkpt>
      <trkpt lat="48.7959847413003444671630859375" lon="-3.546637035906314849853515625">
        <ele>4</ele>
        <time>2026-05-10T10:17:45.000Z</time>
        <extensions>
          <ns3:TrackPointExtension>
            <ns3:atemp>16.0</ns3:atemp>
            <ns3:hr>88</ns3:hr>
          </ns3:TrackPointExtension>
        </extensions>
      </trkpt>
      <trkpt lat="48.79599052481353282928466796875" lon="-3.54661650024354457855224609375">
        <ele>4.19999980926513671875</ele>
        <time>2026-05-10T10:17:47.000Z</time>
        <extensions>
          <ns3:TrackPointExtension>
            <ns3:atemp>16.0</ns3:atemp>
            <ns3:hr>88</ns3:hr>
          </ns3:TrackPointExtension>
        </extensions>
      </trkpt>
      <trkpt lat="48.7960028462111949920654296875" lon="-3.5465721599757671356201171875">
        <ele>4.19999980926513671875</ele>
        <time>2026-05-10T10:17:51.000Z</time>
        <extensions>
          <ns3:TrackPointExtension>
            <ns3:atemp>16.0</ns3:atemp>
            <ns3:hr>90</ns3:hr>
          </ns3:TrackPointExtension>
        </extensions>
      </trkpt>
      <trkpt lat="48.79602111876010894775390625" lon="-3.54646763764321804046630859375">
        <ele>3.7999999523162841796875</ele>
        <time>2026-05-10T10:18:01.000Z</time>
        <extensions>
          <ns3:TrackPointExtension>
            <ns3:atemp>16.0</ns3:atemp>
            <ns3:hr>93</ns3:hr>
          </ns3:TrackPointExtension>
        </extensions>
      </trkpt>
      <trkpt lat="48.79603461362421512603759765625" lon="-3.54644156992435455322265625">
        <ele>4</ele>
        <time>2026-05-10T10:18:04.000Z</time>
        <extensions>
          <ns3:TrackPointExtension>
            <ns3:atemp>16.0</ns3:atemp>
            <ns3:hr>94</ns3:hr>
          </ns3:TrackPointExtension>
        </extensions>
      </trkpt>
      <trkpt lat="48.796050287783145904541015625" lon="-3.546407707035541534423828125">
        <ele>4.80000019073486328125</ele>
        <time>2026-05-10T10:18:13.000Z</time>
        <extensions>
          <ns3:TrackPointExtension>
            <ns3:atemp>16.0</ns3:atemp>
            <ns3:hr>95</ns3:hr>
          </ns3:TrackPointExtension>
        </extensions>
      </trkpt>
      <trkpt lat="48.7960481084883213043212890625" lon="-3.54635842144489288330078125">
        <ele>4.19999980926513671875</ele>
        <time>2026-05-10T10:18:22.000Z</time>
        <extensions>
          <ns3:TrackPointExtension>
            <ns3:atemp>16.0</ns3:atemp>
            <ns3:hr>96</ns3:hr>
          </ns3:TrackPointExtension>
        </extensions>
      </trkpt>
      <trkpt lat="48.79603059031069278717041015625" lon="-3.54626513086259365081787109375">
        <ele>4</ele>
        <time>2026-05-10T10:18:29.000Z</time>
        <extensions>
          <ns3:TrackPointExtension>
            <ns3:atemp>16.0</ns3:atemp>
            <ns3:hr>96</ns3:hr>
          </ns3:TrackPointExtension>
        </extensions>
      </trkpt>
      <trkpt lat="48.796014077961444854736328125" lon="-3.546183742582798004150390625">
        <ele>4.599999904632568359375</ele>
        <time>2026-05-10T10:18:37.000Z</time>
        <extensions>
          <ns3:TrackPointExtension>
            <ns3:atemp>16.0</ns3:atemp>
            <ns3:hr>98</ns3:hr>
          </ns3:TrackPointExtension>
        </extensions>
      </trkpt>
      <trkpt lat="48.79601215012371540069580078125" lon="-3.54611777700483798980712890625">
        <ele>3.7999999523162841796875</ele>
        <time>2026-05-10T10:18:46.000Z</time>
        <extensions>
          <ns3:TrackPointExtension>
            <ns3:atemp>16.0</ns3:atemp>
            <ns3:hr>99</ns3:hr>
          </ns3:TrackPointExtension>
        </extensions>
      </trkpt>
      <trkpt lat="48.7960222922265529632568359375" lon="-3.54601166211068630218505859375">
        <ele>5.19999980926513671875</ele>
        <time>2026-05-10T10:18:55.000Z</time>
        <extensions>
          <ns3:TrackPointExtension>
            <ns3:atemp>16.0</ns3:atemp>
            <ns3:hr>98</ns3:hr>
          </ns3:TrackPointExtension>
        </extensions>
      </trkpt>
      <trkpt lat="48.79602807573974132537841796875" lon="-3.54600529186427593231201171875">
        <ele>5.400000095367431640625</ele>
        <time>2026-05-10T10:18:56.000Z</time>
        <extensions>
          <ns3:TrackPointExtension>
            <ns3:atemp>16.0</ns3:atemp>
            <ns3:hr>98</ns3:hr>
          </ns3:TrackPointExtension>
        </extensions>
      </trkpt>
      <trkpt lat="48.796075768768787384033203125" lon="-3.54592264629900455474853515625">
        <ele>6.19999980926513671875</ele>
        <time>2026-05-10T10:19:02.000Z</time>
        <extensions>
          <ns3:TrackPointExtension>
            <ns3:atemp>16.0</ns3:atemp>
            <ns3:hr>99</ns3:hr>
          </ns3:TrackPointExtension>
        </extensions>
      </trkpt>
      <trkpt lat="48.79608306102454662322998046875" lon="-3.54590839706361293792724609375">
        <ele>7.19999980926513671875</ele>
        <time>2026-05-10T10:19:03.000Z</time>
        <extensions>
          <ns3:TrackPointExtension>
            <ns3:atemp>16.0</ns3:atemp>
            <ns3:hr>99</ns3:hr>
          </ns3:TrackPointExtension>
        </extensions>
      </trkpt>
      <trkpt lat="48.7961051054298877716064453125" lon="-3.54584251530468463897705078125">
        <ele>7.599999904632568359375</ele>
        <time>2026-05-10T10:19:07.000Z</time>
        <extensions>
          <ns3:TrackPointExtension>
            <ns3:atemp>16.0</ns3:atemp>
            <ns3:hr>101</ns3:hr>
          </ns3:TrackPointExtension>
        </extensions>
      </trkpt>
      <trkpt lat="48.796148188412189483642578125" lon="-3.5457557626068592071533203125">
        <ele>7.19999980926513671875</ele>
        <time>2026-05-10T10:19:13.000Z</time>
        <extensions>
          <ns3:TrackPointExtension>
            <ns3:atemp>16.0</ns3:atemp>
            <ns3:hr>103</ns3:hr>
          </ns3:TrackPointExtension>
        </extensions>
      </trkpt>
      <trkpt lat="48.7961906008422374725341796875" lon="-3.54566850699484348297119140625">
        <ele>7.80000019073486328125</ele>
        <time>2026-05-10T10:19:19.000Z</time>
        <extensions>
          <ns3:TrackPointExtension>
            <ns3:atemp>16.0</ns3:atemp>
            <ns3:hr>106</ns3:hr>
          </ns3:TrackPointExtension>
        </extensions>
      </trkpt>
      <trkpt lat="48.79621800966560840606689453125" lon="-3.54560648091137409210205078125">
        <ele>8.3999996185302734375</ele>
        <time>2026-05-10T10:19:23.000Z</time>
        <extensions>
          <ns3:TrackPointExtension>
            <ns3:atemp>16.0</ns3:atemp>
            <ns3:hr>107</ns3:hr>
          </ns3:TrackPointExtension>
        </extensions>
      </trkpt>
      <trkpt lat="48.796236701309680938720703125" lon="-3.5455411858856678009033203125">
        <ele>8</ele>
        <time>2026-05-10T10:19:27.000Z</time>
        <extensions>
          <ns3:TrackPointExtension>
            <ns3:atemp>16.0</ns3:atemp>
            <ns3:hr>109</ns3:hr>
          </ns3:TrackPointExtension>
        </extensions>
      </trkpt>
      <trkpt lat="48.79624131135642528533935546875" lon="-3.54551310651004314422607421875">
        <ele>7.19999980926513671875</ele>
        <time>2026-05-10T10:19:29.000Z</time>
        <extensions>
          <ns3:TrackPointExtension>
            <ns3:atemp>16.0</ns3:atemp>
            <ns3:hr>110</ns3:hr>
          </ns3:TrackPointExtension>
        </extensions>
      </trkpt>
      <trkpt lat="48.7962375394999980926513671875" lon="-3.5454825125634670257568359375">
        <ele>5.80000019073486328125</ele>
        <time>2026-05-10T10:19:32.000Z</time>
        <extensions>
          <ns3:TrackPointExtension>
            <ns3:atemp>16.0</ns3:atemp>
            <ns3:hr>110</ns3:hr>
          </ns3:TrackPointExtension>
        </extensions>
      </trkpt>
      <trkpt lat="48.79623661749064922332763671875" lon="-3.545468933880329132080078125">
        <ele>4.80000019073486328125</ele>
        <time>2026-05-10T10:19:34.000Z</time>
        <extensions>
          <ns3:TrackPointExtension>
            <ns3:atemp>16.0</ns3:atemp>
            <ns3:hr>109</ns3:hr>
          </ns3:TrackPointExtension>
        </extensions>
      </trkpt>
      <trkpt lat="48.79623946733772754669189453125" lon="-3.54546164162456989288330078125">
        <ele>4.400000095367431640625</ele>
        <time>2026-05-10T10:19:35.000Z</time>
        <extensions>
          <ns3:TrackPointExtension>
            <ns3:atemp>16.0</ns3:atemp>
            <ns3:hr>109</ns3:hr>
          </ns3:TrackPointExtension>
        </extensions>
      </trkpt>
      <trkpt lat="48.7962710671126842498779296875" lon="-3.5454069077968597412109375">
        <ele>4.19999980926513671875</ele>
        <time>2026-05-10T10:19:42.000Z</time>
        <extensions>
          <ns3:TrackPointExtension>
            <ns3:atemp>16.0</ns3:atemp>
            <ns3:hr>107</ns3:hr>
          </ns3:TrackPointExtension>
        </extensions>
      </trkpt>
      <trkpt lat="48.79628959111869335174560546875" lon="-3.54537673294544219970703125">
        <ele>3.2000000476837158203125</ele>
        <time>2026-05-10T10:19:46.000Z</time>
        <extensions>
          <ns3:TrackPointExtension>
            <ns3:atemp>16.0</ns3:atemp>
            <ns3:hr>106</ns3:hr>
          </ns3:TrackPointExtension>
        </extensions>
      </trkpt>
      <trkpt lat="48.7963059358298778533935546875" lon="-3.5453437082469463348388671875">
        <ele>4.19999980926513671875</ele>
        <time>2026-05-10T10:19:50.000Z</time>
        <extensions>
          <ns3:TrackPointExtension>
            <ns3:atemp>16.0</ns3:atemp>
            <ns3:hr>104</ns3:hr>
          </ns3:TrackPointExtension>
        </extensions>
      </trkpt>
      <trkpt lat="48.7963230349123477935791015625" lon="-3.5453212447464466094970703125">
        <ele>5</ele>
        <time>2026-05-10T10:19:53.000Z</time>
        <extensions>
          <ns3:TrackPointExtension>
            <ns3:atemp>16.0</ns3:atemp>
            <ns3:hr>103</ns3:hr>
          </ns3:TrackPointExtension>
        </extensions>
      </trkpt>
      <trkpt lat="48.79636385478079319000244140625" lon="-3.54527891613543033599853515625">
        <ele>3.599999904632568359375</ele>
        <time>2026-05-10T10:19:58.000Z</time>
        <extensions>
          <ns3:TrackPointExtension>
            <ns3:atemp>16.0</ns3:atemp>
            <ns3:hr>103</ns3:hr>
          </ns3:TrackPointExtension>
        </extensions>
      </trkpt>
      <trkpt lat="48.79637022502720355987548828125" lon="-3.545269779860973358154296875">
        <ele>3.599999904632568359375</ele>
        <time>2026-05-10T10:19:59.000Z</time>
        <extensions>
          <ns3:TrackPointExtension>
            <ns3:atemp>16.0</ns3:atemp>
            <ns3:hr>103</ns3:hr>
          </ns3:TrackPointExtension>
        </extensions>
      </trkpt>
      <trkpt lat="48.79641548730432987213134765625" lon="-3.54519878514111042022705078125">
        <ele>2.2000000476837158203125</ele>
        <time>2026-05-10T10:20:06.000Z</time>
        <extensions>
          <ns3:TrackPointExtension>
            <ns3:atemp>16.0</ns3:atemp>
            <ns3:hr>100</ns3:hr>
          </ns3:TrackPointExtension>
        </extensions>
      </trkpt>
      <trkpt lat="48.79643627442419528961181640625" lon="-3.545153103768825531005859375">
        <ele>2.599999904632568359375</ele>
        <time>2026-05-10T10:20:10.000Z</time>
        <extensions>
          <ns3:TrackPointExtension>
            <ns3:atemp>16.0</ns3:atemp>
            <ns3:hr>99</ns3:hr>
          </ns3:TrackPointExtension>
        </extensions>
      </trkpt>
      <trkpt lat="48.79643610678613185882568359375" lon="-3.5451395250856876373291015625">
        <ele>3.400000095367431640625</ele>
        <time>2026-05-10T10:20:11.000Z</time>
        <extensions>
          <ns3:TrackPointExtension>
            <ns3:atemp>16.0</ns3:atemp>
            <ns3:hr>99</ns3:hr>
          </ns3:TrackPointExtension>
        </extensions>
      </trkpt>
      <trkpt lat="48.79646276123821735382080078125" lon="-3.545031733810901641845703125">
        <ele>4</ele>
        <time>2026-05-10T10:20:19.000Z</time>
        <extensions>
          <ns3:TrackPointExtension>
            <ns3:atemp>16.0</ns3:atemp>
            <ns3:hr>98</ns3:hr>
          </ns3:TrackPointExtension>
        </extensions>
      </trkpt>
      <trkpt lat="48.79649209789931774139404296875" lon="-3.5449215956032276153564453125">
        <ele>4.19999980926513671875</ele>
        <time>2026-05-10T10:20:29.000Z</time>
        <extensions>
          <ns3:TrackPointExtension>
            <ns3:atemp>16.0</ns3:atemp>
            <ns3:hr>97</ns3:hr>
          </ns3:TrackPointExtension>
        </extensions>
      </trkpt>
      <trkpt lat="48.7965072691440582275390625" lon="-3.54488530196249485015869140625">
        <ele>4.400000095367431640625</ele>
        <time>2026-05-10T10:20:33.000Z</time>
        <extensions>
          <ns3:TrackPointExtension>
            <ns3:atemp>16.0</ns3:atemp>
            <ns3:hr>98</ns3:hr>
          </ns3:TrackPointExtension>
        </extensions>
      </trkpt>
      <trkpt lat="48.79654004238545894622802734375" lon="-3.5448149777948856353759765625">
        <ele>4</ele>
        <time>2026-05-10T10:20:40.000Z</time>
        <extensions>
          <ns3:TrackPointExtension>
            <ns3:atemp>16.0</ns3:atemp>
            <ns3:hr>98</ns3:hr>
          </ns3:TrackPointExtension>
        </extensions>
      </trkpt>
      <trkpt lat="48.7965473346412181854248046875" lon="-3.54478932917118072509765625">
        <ele>3.2000000476837158203125</ele>
        <time>2026-05-10T10:20:42.000Z</time>
        <extensions>
          <ns3:TrackPointExtension>
            <ns3:atemp>16.0</ns3:atemp>
            <ns3:hr>97</ns3:hr>
          </ns3:TrackPointExtension>
        </extensions>
      </trkpt>
      <trkpt lat="48.79657692275941371917724609375" lon="-3.54472151957452297210693359375">
        <ele>3.7999999523162841796875</ele>
        <time>2026-05-10T10:20:48.000Z</time>
        <extensions>
          <ns3:TrackPointExtension>
            <ns3:atemp>16.0</ns3:atemp>
            <ns3:hr>97</ns3:hr>
          </ns3:TrackPointExtension>
        </extensions>
      </trkpt>
      <trkpt lat="48.7966110371053218841552734375" lon="-3.5446285642683506011962890625">
        <ele>4.599999904632568359375</ele>
        <time>2026-05-10T10:20:55.000Z</time>
        <extensions>
          <ns3:TrackPointExtension>
            <ns3:atemp>16.0</ns3:atemp>
            <ns3:hr>96</ns3:hr>
          </ns3:TrackPointExtension>
        </extensions>
      </trkpt>
      <trkpt lat="48.79662168212234973907470703125" lon="-3.54459780268371105194091796875">
        <ele>5.400000095367431640625</ele>
        <time>2026-05-10T10:20:58.000Z</time>
        <extensions>
          <ns3:TrackPointExtension>
            <ns3:atemp>16.0</ns3:atemp>
            <ns3:hr>96</ns3:hr>
          </ns3:TrackPointExtension>
        </extensions>
      </trkpt>
      <trkpt lat="48.7966244481503963470458984375" lon="-3.5445886664092540740966796875">
        <ele>5.599999904632568359375</ele>
        <time>2026-05-10T10:20:59.000Z</time>
        <extensions>
          <ns3:TrackPointExtension>
            <ns3:atemp>16.0</ns3:atemp>
            <ns3:hr>96</ns3:hr>
          </ns3:TrackPointExtension>
        </extensions>
      </trkpt>
      <trkpt lat="48.7966526113450527191162109375" lon="-3.54452437721192836761474609375">
        <ele>4.599999904632568359375</ele>
        <time>2026-05-10T10:21:05.000Z</time>
        <extensions>
          <ns3:TrackPointExtension>
            <ns3:atemp>16.0</ns3:atemp>
            <ns3:hr>97</ns3:hr>
          </ns3:TrackPointExtension>
        </extensions>
      </trkpt>
      <trkpt lat="48.79666979424655437469482421875" lon="-3.54450124315917491912841796875">
        <ele>5</ele>
        <time>2026-05-10T10:21:08.000Z</time>
        <extensions>
          <ns3:TrackPointExtension>
            <ns3:atemp>16.0</ns3:atemp>
            <ns3:hr>98</ns3:hr>
          </ns3:TrackPointExtension>
        </extensions>
      </trkpt>
      <trkpt lat="48.79673500545322895050048828125" lon="-3.54440216906368732452392578125">
        <ele>4.400000095367431640625</ele>
        <time>2026-05-10T10:21:18.000Z</time>
        <extensions>
          <ns3:TrackPointExtension>
            <ns3:atemp>16.0</ns3:atemp>
            <ns3:hr>99</ns3:hr>
          </ns3:TrackPointExtension>
        </extensions>
      </trkpt>
      <trkpt lat="48.79675067961215972900390625" lon="-3.5443740896880626678466796875">
        <ele>5.599999904632568359375</ele>
        <time>2026-05-10T10:21:21.000Z</time>
        <extensions>
          <ns3:TrackPointExtension>
            <ns3:atemp>16.0</ns3:atemp>
            <ns3:hr>99</ns3:hr>
          </ns3:TrackPointExtension>
        </extensions>
      </trkpt>
      <trkpt lat="48.7967920862138271331787109375" lon="-3.54429018683731555938720703125">
        <ele>5.19999980926513671875</ele>
        <time>2026-05-10T10:21:30.000Z</time>
        <extensions>
          <ns3:TrackPointExtension>
            <ns3:atemp>16.0</ns3:atemp>
            <ns3:hr>99</ns3:hr>
          </ns3:TrackPointExtension>
        </extensions>
      </trkpt>
      <trkpt lat="48.7968383543193340301513671875" lon="-3.54424525983631610870361328125">
        <ele>7</ele>
        <time>2026-05-10T10:21:36.000Z</time>
        <extensions>
          <ns3:TrackPointExtension>
            <ns3:atemp>16.0</ns3:atemp>
            <ns3:hr>101</ns3:hr>
          </ns3:TrackPointExtension>
        </extensions>
      </trkpt>
      <trkpt lat="48.79685260355472564697265625" lon="-3.5442185215651988983154296875">
        <ele>7.599999904632568359375</ele>
        <time>2026-05-10T10:21:38.000Z</time>
        <extensions>
          <ns3:TrackPointExtension>
            <ns3:atemp>16.0</ns3:atemp>
            <ns3:hr>101</ns3:hr>
          </ns3:TrackPointExtension>
        </extensions>
      </trkpt>
      <trkpt lat="48.79685922525823116302490234375" lon="-3.54420620016753673553466796875">
        <ele>8.19999980926513671875</ele>
        <time>2026-05-10T10:21:39.000Z</time>
        <extensions>
          <ns3:TrackPointExtension>
            <ns3:atemp>16.0</ns3:atemp>
            <ns3:hr>101</ns3:hr>
          </ns3:TrackPointExtension>
        </extensions>
      </trkpt>
      <trkpt lat="48.79691555164754390716552734375" lon="-3.54412254877388477325439453125">
        <ele>8.19999980926513671875</ele>
        <time>2026-05-10T10:21:46.000Z</time>
        <extensions>
          <ns3:TrackPointExtension>
            <ns3:atemp>16.0</ns3:atemp>
            <ns3:hr>101</ns3:hr>
          </ns3:TrackPointExtension>
        </extensions>
      </trkpt>
      <trkpt lat="48.7969432957470417022705078125" lon="-3.5440693236887454986572265625">
        <ele>8.19999980926513671875</ele>
        <time>2026-05-10T10:21:50.000Z</time>
        <extensions>
          <ns3:TrackPointExtension>
            <ns3:atemp>16.0</ns3:atemp>
            <ns3:hr>104</ns3:hr>
          </ns3:TrackPointExtension>
        </extensions>
      </trkpt>
      <trkpt lat="48.7969567067921161651611328125" lon="-3.54403286240994930267333984375">
        <ele>8</ele>
        <time>2026-05-10T10:21:52.000Z</time>
        <extensions>
          <ns3:TrackPointExtension>
            <ns3:atemp>16.0</ns3:atemp>
            <ns3:hr>105</ns3:hr>
          </ns3:TrackPointExtension>
        </extensions>
      </trkpt>
      <trkpt lat="48.7969801761209964752197265625" lon="-3.5439848341047763824462890625">
        <ele>7.19999980926513671875</ele>
        <time>2026-05-10T10:21:56.000Z</time>
        <extensions>
          <ns3:TrackPointExtension>
            <ns3:atemp>16.0</ns3:atemp>
            <ns3:hr>106</ns3:hr>
          </ns3:TrackPointExtension>
        </extensions>
      </trkpt>
      <trkpt lat="48.79698310978710651397705078125" lon="-3.54397502727806568145751953125">
        <ele>7</ele>
        <time>2026-05-10T10:21:57.000Z</time>
        <extensions>
          <ns3:TrackPointExtension>
            <ns3:atemp>16.0</ns3:atemp>
            <ns3:hr>106</ns3:hr>
          </ns3:TrackPointExtension>
        </extensions>
      </trkpt>
      <trkpt lat="48.79700909368693828582763671875" lon="-3.54388802312314510345458984375">
        <ele>7</ele>
        <time>2026-05-10T10:22:04.000Z</time>
        <extensions>
          <ns3:TrackPointExtension>
            <ns3:atemp>16.0</ns3:atemp>
            <ns3:hr>105</ns3:hr>
          </ns3:TrackPointExtension>
        </extensions>
      </trkpt>
      <trkpt lat="48.79705888219177722930908203125" lon="-3.54383312165737152099609375">
        <ele>7.80000019073486328125</ele>
        <time>2026-05-10T10:22:12.000Z</time>
        <extensions>
          <ns3:TrackPointExtension>
            <ns3:atemp>16.0</ns3:atemp>
            <ns3:hr>104</ns3:hr>
          </ns3:TrackPointExtension>
        </extensions>
      </trkpt>
      <trkpt lat="48.79706324078142642974853515625" lon="-3.54382381774485111236572265625">
        <ele>8.19999980926513671875</ele>
        <time>2026-05-10T10:22:14.000Z</time>
        <extensions>
          <ns3:TrackPointExtension>
            <ns3:atemp>16.0</ns3:atemp>
            <ns3:hr>103</ns3:hr>
          </ns3:TrackPointExtension>
        </extensions>
      </trkpt>
      <trkpt lat="48.79707120358943939208984375" lon="-3.54380051605403423309326171875">
        <ele>7.400000095367431640625</ele>
        <time>2026-05-10T10:22:18.000Z</time>
        <extensions>
          <ns3:TrackPointExtension>
            <ns3:atemp>16.0</ns3:atemp>
            <ns3:hr>103</ns3:hr>
          </ns3:TrackPointExtension>
        </extensions>
      </trkpt>
      <trkpt lat="48.79708084277808666229248046875" lon="-3.54377545416355133056640625">
        <ele>7</ele>
        <time>2026-05-10T10:22:20.000Z</time>
        <extensions>
          <ns3:TrackPointExtension>
            <ns3:atemp>16.0</ns3:atemp>
            <ns3:hr>104</ns3:hr>
          </ns3:TrackPointExtension>
        </extensions>
      </trkpt>
      <trkpt lat="48.7971095927059650421142578125" lon="-3.543719463050365447998046875">
        <ele>7.400000095367431640625</ele>
        <time>2026-05-10T10:22:25.000Z</time>
        <extensions>
          <ns3:TrackPointExtension>
            <ns3:atemp>16.0</ns3:atemp>
            <ns3:hr>106</ns3:hr>
          </ns3:TrackPointExtension>
        </extensions>
      </trkpt>
      <trkpt lat="48.79711470566689968109130859375" lon="-3.54363053105771541595458984375">
        <ele>6.599999904632568359375</ele>
        <time>2026-05-10T10:22:31.000Z</time>
        <extensions>
          <ns3:TrackPointExtension>
            <ns3:atemp>16.0</ns3:atemp>
            <ns3:hr>108</ns3:hr>
          </ns3:TrackPointExtension>
        </extensions>
      </trkpt>
      <trkpt lat="48.7971283681690692901611328125" lon="-3.54361946694552898406982421875">
        <ele>6.19999980926513671875</ele>
        <time>2026-05-10T10:22:33.000Z</time>
        <extensions>
          <ns3:TrackPointExtension>
            <ns3:atemp>16.0</ns3:atemp>
            <ns3:hr>107</ns3:hr>
          </ns3:TrackPointExtension>
        </extensions>
      </trkpt>
      <trkpt lat="48.79716197960078716278076171875" lon="-3.543571271002292633056640625">
        <ele>7.19999980926513671875</ele>
        <time>2026-05-10T10:22:37.000Z</time>
        <extensions>
          <ns3:TrackPointExtension>
            <ns3:atemp>16.0</ns3:atemp>
            <ns3:hr>106</ns3:hr>
          </ns3:TrackPointExtension>
        </extensions>
      </trkpt>
      <trkpt lat="48.79720590077340602874755859375" lon="-3.54351469315588474273681640625">
        <ele>7</ele>
        <time>2026-05-10T10:22:44.000Z</time>
        <extensions>
          <ns3:TrackPointExtension>
            <ns3:atemp>16.0</ns3:atemp>
            <ns3:hr>107</ns3:hr>
          </ns3:TrackPointExtension>
        </extensions>
      </trkpt>
      <trkpt lat="48.7972395122051239013671875" lon="-3.54345367290079593658447265625">
        <ele>6.599999904632568359375</ele>
        <time>2026-05-10T10:22:51.000Z</time>
        <extensions>
          <ns3:TrackPointExtension>
            <ns3:atemp>16.0</ns3:atemp>
            <ns3:hr>105</ns3:hr>
          </ns3:TrackPointExtension>
        </extensions>
      </trkpt>
      <trkpt lat="48.797295503318309783935546875" lon="-3.54342618025839328765869140625">
        <ele>6.400000095367431640625</ele>
        <time>2026-05-10T10:22:58.000Z</time>
        <extensions>
          <ns3:TrackPointExtension>
            <ns3:atemp>16.0</ns3:atemp>
            <ns3:hr>104</ns3:hr>
          </ns3:TrackPointExtension>
        </extensions>
      </trkpt>
      <trkpt lat="48.79731972701847553253173828125" lon="-3.5433979332447052001953125">
        <ele>6</ele>
        <time>2026-05-10T10:23:01.000Z</time>
        <extensions>
          <ns3:TrackPointExtension>
            <ns3:atemp>16.0</ns3:atemp>
            <ns3:hr>102</ns3:hr>
          </ns3:TrackPointExtension>
        </extensions>
      </trkpt>
      <trkpt lat="48.797345794737339019775390625" lon="-3.54336641728878021240234375">
        <ele>6</ele>
        <time>2026-05-10T10:23:05.000Z</time>
        <extensions>
          <ns3:TrackPointExtension>
            <ns3:atemp>16.0</ns3:atemp>
            <ns3:hr>101</ns3:hr>
          </ns3:TrackPointExtension>
        </extensions>
      </trkpt>
      <trkpt lat="48.797373957931995391845703125" lon="-3.54331470094621181488037109375">
        <ele>7.80000019073486328125</ele>
        <time>2026-05-10T10:23:14.000Z</time>
        <extensions>
          <ns3:TrackPointExtension>
            <ns3:atemp>16.0</ns3:atemp>
            <ns3:hr>99</ns3:hr>
          </ns3:TrackPointExtension>
        </extensions>
      </trkpt>
      <trkpt lat="48.797373957931995391845703125" lon="-3.54331470094621181488037109375">
        <ele>7.80000019073486328125</ele>
        <time>2026-05-10T10:23:18.000Z</time>
        <extensions>
          <ns3:TrackPointExtension>
            <ns3:atemp>17.0</ns3:atemp>
            <ns3:hr>99</ns3:hr>
          </ns3:TrackPointExtension>
        </extensions>
      </trkpt>
      <trkpt lat="48.79739843308925628662109375" lon="-3.54329525493085384368896484375">
        <ele>7</ele>
        <time>2026-05-10T10:23:23.000Z</time>
        <extensions>
          <ns3:TrackPointExtension>
            <ns3:atemp>17.0</ns3:atemp>
            <ns3:hr>98</ns3:hr>
          </ns3:TrackPointExtension>
        </extensions>
      </trkpt>
      <trkpt lat="48.7974069826304912567138671875" lon="-3.54329072870314121246337890625">
        <ele>6.80000019073486328125</ele>
        <time>2026-05-10T10:23:24.000Z</time>
        <extensions>
          <ns3:TrackPointExtension>
            <ns3:atemp>17.0</ns3:atemp>
            <ns3:hr>99</ns3:hr>
          </ns3:TrackPointExtension>
        </extensions>
      </trkpt>
      <trkpt lat="48.79743489436805248260498046875" lon="-3.54325384832918643951416015625">
        <ele>6</ele>
        <time>2026-05-10T10:23:28.000Z</time>
        <extensions>
          <ns3:TrackPointExtension>
            <ns3:atemp>17.0</ns3:atemp>
            <ns3:hr>100</ns3:hr>
          </ns3:TrackPointExtension>
        </extensions>
      </trkpt>
      <trkpt lat="48.79744880832731723785400390625" lon="-3.54323498904705047607421875">
        <ele>5.599999904632568359375</ele>
        <time>2026-05-10T10:23:30.000Z</time>
        <extensions>
          <ns3:TrackPointExtension>
            <ns3:atemp>17.0</ns3:atemp>
            <ns3:hr>100</ns3:hr>
          </ns3:TrackPointExtension>
        </extensions>
      </trkpt>
      <trkpt lat="48.79748602397739887237548828125" lon="-3.54317422024905681610107421875">
        <ele>5.599999904632568359375</ele>
        <time>2026-05-10T10:23:36.000Z</time>
        <extensions>
          <ns3:TrackPointExtension>
            <ns3:atemp>17.0</ns3:atemp>
            <ns3:hr>99</ns3:hr>
          </ns3:TrackPointExtension>
        </extensions>
      </trkpt>
      <trkpt lat="48.79753782413899898529052734375" lon="-3.543094508349895477294921875">
        <ele>6</ele>
        <time>2026-05-10T10:23:44.000Z</time>
        <extensions>
          <ns3:TrackPointExtension>
            <ns3:atemp>17.0</ns3:atemp>
            <ns3:hr>99</ns3:hr>
          </ns3:TrackPointExtension>
        </extensions>
      </trkpt>
      <trkpt lat="48.7975538335740566253662109375" lon="-3.54306793771684169769287109375">
        <ele>6.599999904632568359375</ele>
        <time>2026-05-10T10:23:47.000Z</time>
        <extensions>
          <ns3:TrackPointExtension>
            <ns3:atemp>17.0</ns3:atemp>
            <ns3:hr>101</ns3:hr>
          </ns3:TrackPointExtension>
        </extensions>
      </trkpt>
      <trkpt lat="48.79757923074066638946533203125" lon="-3.54300876148045063018798828125">
        <ele>7.400000095367431640625</ele>
        <time>2026-05-10T10:23:52.000Z</time>
        <extensions>
          <ns3:TrackPointExtension>
            <ns3:atemp>17.0</ns3:atemp>
            <ns3:hr>104</ns3:hr>
          </ns3:TrackPointExtension>
        </extensions>
      </trkpt>
      <trkpt lat="48.79761359654366970062255859375" lon="-3.5429132916033267974853515625">
        <ele>6.80000019073486328125</ele>
        <time>2026-05-10T10:24:00.000Z</time>
        <extensions>
          <ns3:TrackPointExtension>
            <ns3:atemp>17.0</ns3:atemp>
            <ns3:hr>103</ns3:hr>
          </ns3:TrackPointExtension>
        </extensions>
      </trkpt>
      <trkpt lat="48.7976443581283092498779296875" lon="-3.542843051254749298095703125">
        <ele>7</ele>
        <time>2026-05-10T10:24:07.000Z</time>
        <extensions>
          <ns3:TrackPointExtension>
            <ns3:atemp>17.0</ns3:atemp>
            <ns3:hr>103</ns3:hr>
          </ns3:TrackPointExtension>
        </extensions>
      </trkpt>
      <trkpt lat="48.7976896204054355621337890625" lon="-3.54278060607612133026123046875">
        <ele>7</ele>
        <time>2026-05-10T10:24:14.000Z</time>
        <extensions>
          <ns3:TrackPointExtension>
            <ns3:atemp>17.0</ns3:atemp>
            <ns3:hr>104</ns3:hr>
          </ns3:TrackPointExtension>
        </extensions>
      </trkpt>
      <trkpt lat="48.79773546941578388214111328125" lon="-3.54272830300033092498779296875">
        <ele>6.400000095367431640625</ele>
        <time>2026-05-10T10:24:20.000Z</time>
        <extensions>
          <ns3:TrackPointExtension>
            <ns3:atemp>17.0</ns3:atemp>
            <ns3:hr>104</ns3:hr>
          </ns3:TrackPointExtension>
        </extensions>
      </trkpt>
      <trkpt lat="48.7977731041610240936279296875" lon="-3.542656637728214263916015625">
        <ele>6.400000095367431640625</ele>
        <time>2026-05-10T10:24:27.000Z</time>
        <extensions>
          <ns3:TrackPointExtension>
            <ns3:atemp>17.0</ns3:atemp>
            <ns3:hr>102</ns3:hr>
          </ns3:TrackPointExtension>
        </extensions>
      </trkpt>
      <trkpt lat="48.7978193722665309906005859375" lon="-3.54255898855626583099365234375">
        <ele>6.400000095367431640625</ele>
        <time>2026-05-10T10:24:36.000Z</time>
        <extensions>
          <ns3:TrackPointExtension>
            <ns3:atemp>17.0</ns3:atemp>
            <ns3:hr>100</ns3:hr>
          </ns3:TrackPointExtension>
        </extensions>
      </trkpt>
      <trkpt lat="48.79783169366419315338134765625" lon="-3.54251188226044178009033203125">
        <ele>6.599999904632568359375</ele>
        <time>2026-05-10T10:24:42.000Z</time>
        <extensions>
          <ns3:TrackPointExtension>
            <ns3:atemp>17.0</ns3:atemp>
            <ns3:hr>98</ns3:hr>
          </ns3:TrackPointExtension>
        </extensions>
      </trkpt>
      <trkpt lat="48.79782892763614654541015625" lon="-3.54251758195459842681884765625">
        <ele>6</ele>
        <time>2026-05-10T10:24:51.000Z</time>
        <extensions>
          <ns3:TrackPointExtension>
            <ns3:atemp>17.0</ns3:atemp>
            <ns3:hr>96</ns3:hr>
          </ns3:TrackPointExtension>
        </extensions>
      </trkpt>
      <trkpt lat="48.79782892763614654541015625" lon="-3.54251758195459842681884765625">
        <ele>5.599999904632568359375</ele>
        <time>2026-05-10T10:24:57.000Z</time>
        <extensions>
          <ns3:TrackPointExtension>
            <ns3:atemp>17.0</ns3:atemp>
            <ns3:hr>97</ns3:hr>
          </ns3:TrackPointExtension>
        </extensions>
      </trkpt>
      <trkpt lat="48.79782892763614654541015625" lon="-3.54251758195459842681884765625">
        <ele>4.400000095367431640625</ele>
        <time>2026-05-10T10:25:01.000Z</time>
        <extensions>
          <ns3:TrackPointExtension>
            <ns3:atemp>17.0</ns3:atemp>
            <ns3:hr>98</ns3:hr>
          </ns3:TrackPointExtension>
        </extensions>
      </trkpt>
      <trkpt lat="48.79782892763614654541015625" lon="-3.54251758195459842681884765625">
        <ele>4.19999980926513671875</ele>
        <time>2026-05-10T10:25:02.000Z</time>
        <extensions>
          <ns3:TrackPointExtension>
            <ns3:atemp>17.0</ns3:atemp>
            <ns3:hr>98</ns3:hr>
          </ns3:TrackPointExtension>
        </extensions>
      </trkpt>
      <trkpt lat="48.79782892763614654541015625" lon="-3.54251758195459842681884765625">
        <ele>5.19999980926513671875</ele>
        <time>2026-05-10T10:25:12.000Z</time>
        <extensions>
          <ns3:TrackPointExtension>
            <ns3:atemp>17.0</ns3:atemp>
            <ns3:hr>100</ns3:hr>
          </ns3:TrackPointExtension>
        </extensions>
      </trkpt>
      <trkpt lat="48.79782892763614654541015625" lon="-3.54251758195459842681884765625">
        <ele>5.80000019073486328125</ele>
        <time>2026-05-10T10:25:16.000Z</time>
        <extensions>
          <ns3:TrackPointExtension>
            <ns3:atemp>17.0</ns3:atemp>
            <ns3:hr>101</ns3:hr>
          </ns3:TrackPointExtension>
        </extensions>
      </trkpt>
      <trkpt lat="48.7978465296328067779541015625" lon="-3.54249796830117702484130859375">
        <ele>6.19999980926513671875</ele>
        <time>2026-05-10T10:25:27.000Z</time>
        <extensions>
          <ns3:TrackPointExtension>
            <ns3:atemp>17.0</ns3:atemp>
            <ns3:hr>100</ns3:hr>
          </ns3:TrackPointExtension>
        </extensions>
      </trkpt>
      <trkpt lat="48.7978619523346424102783203125" lon="-3.5424814559519290924072265625">
        <ele>6.599999904632568359375</ele>
        <time>2026-05-10T10:25:29.000Z</time>
        <extensions>
          <ns3:TrackPointExtension>
            <ns3:atemp>17.0</ns3:atemp>
            <ns3:hr>101</ns3:hr>
          </ns3:TrackPointExtension>
        </extensions>
      </trkpt>
      <trkpt lat="48.79788366146385669708251953125" lon="-3.54240559972822666168212890625">
        <ele>6.599999904632568359375</ele>
        <time>2026-05-10T10:25:36.000Z</time>
        <extensions>
          <ns3:TrackPointExtension>
            <ns3:atemp>17.0</ns3:atemp>
            <ns3:hr>100</ns3:hr>
          </ns3:TrackPointExtension>
        </extensions>
      </trkpt>
      <trkpt lat="48.7978978268802165985107421875" lon="-3.54231021367013454437255859375">
        <ele>7.400000095367431640625</ele>
        <time>2026-05-10T10:25:43.000Z</time>
        <extensions>
          <ns3:TrackPointExtension>
            <ns3:atemp>17.0</ns3:atemp>
            <ns3:hr>101</ns3:hr>
          </ns3:TrackPointExtension>
        </extensions>
      </trkpt>
      <trkpt lat="48.7979005090892314910888671875" lon="-3.54229847900569438934326171875">
        <ele>7.599999904632568359375</ele>
        <time>2026-05-10T10:25:44.000Z</time>
        <extensions>
          <ns3:TrackPointExtension>
            <ns3:atemp>17.0</ns3:atemp>
            <ns3:hr>102</ns3:hr>
          </ns3:TrackPointExtension>
        </extensions>
      </trkpt>
      <trkpt lat="48.79791718907654285430908203125" lon="-3.5422112233936786651611328125">
        <ele>7.19999980926513671875</ele>
        <time>2026-05-10T10:25:51.000Z</time>
        <extensions>
          <ns3:TrackPointExtension>
            <ns3:atemp>17.0</ns3:atemp>
            <ns3:hr>104</ns3:hr>
          </ns3:TrackPointExtension>
        </extensions>
      </trkpt>
      <trkpt lat="48.7979310192167758941650390625" lon="-3.5421686433255672454833984375">
        <ele>8</ele>
        <time>2026-05-10T10:25:55.000Z</time>
        <extensions>
          <ns3:TrackPointExtension>
            <ns3:atemp>17.0</ns3:atemp>
            <ns3:hr>104</ns3:hr>
          </ns3:TrackPointExtension>
        </extensions>
      </trkpt>
      <trkpt lat="48.79792506806552410125732421875" lon="-3.54213503189384937286376953125">
        <ele>8.6000003814697265625</ele>
        <time>2026-05-10T10:25:58.000Z</time>
        <extensions>
          <ns3:TrackPointExtension>
            <ns3:atemp>17.0</ns3:atemp>
            <ns3:hr>105</ns3:hr>
          </ns3:TrackPointExtension>
        </extensions>
      </trkpt>
      <trkpt lat="48.797922469675540924072265625" lon="-3.5421166755259037017822265625">
        <ele>9</ele>
        <time>2026-05-10T10:26:01.000Z</time>
        <extensions>
          <ns3:TrackPointExtension>
            <ns3:atemp>17.0</ns3:atemp>
            <ns3:hr>105</ns3:hr>
          </ns3:TrackPointExtension>
        </extensions>
      </trkpt>
      <trkpt lat="48.797942586243152618408203125" lon="-3.54207149706780910491943359375">
        <ele>9.3999996185302734375</ele>
        <time>2026-05-10T10:26:07.000Z</time>
        <extensions>
          <ns3:TrackPointExtension>
            <ns3:atemp>17.0</ns3:atemp>
            <ns3:hr>107</ns3:hr>
          </ns3:TrackPointExtension>
        </extensions>
      </trkpt>
      <trkpt lat="48.797945939004421234130859375" lon="-3.542058505117893218994140625">
        <ele>8.6000003814697265625</ele>
        <time>2026-05-10T10:26:13.000Z</time>
        <extensions>
          <ns3:TrackPointExtension>
            <ns3:atemp>17.0</ns3:atemp>
            <ns3:hr>107</ns3:hr>
          </ns3:TrackPointExtension>
        </extensions>
      </trkpt>
      <trkpt lat="48.797945939004421234130859375" lon="-3.542058505117893218994140625">
        <ele>8.19999980926513671875</ele>
        <time>2026-05-10T10:26:18.000Z</time>
        <extensions>
          <ns3:TrackPointExtension>
            <ns3:atemp>18.0</ns3:atemp>
            <ns3:hr>107</ns3:hr>
          </ns3:TrackPointExtension>
        </extensions>
      </trkpt>
      <trkpt lat="48.797945939004421234130859375" lon="-3.542058505117893218994140625">
        <ele>8</ele>
        <time>2026-05-10T10:26:24.000Z</time>
        <extensions>
          <ns3:TrackPointExtension>
            <ns3:atemp>18.0</ns3:atemp>
            <ns3:hr>104</ns3:hr>
          </ns3:TrackPointExtension>
        </extensions>
      </trkpt>
      <trkpt lat="48.797945939004421234130859375" lon="-3.542058505117893218994140625">
        <ele>8.19999980926513671875</ele>
        <time>2026-05-10T10:26:25.000Z</time>
        <extensions>
          <ns3:TrackPointExtension>
            <ns3:atemp>18.0</ns3:atemp>
            <ns3:hr>104</ns3:hr>
          </ns3:TrackPointExtension>
        </extensions>
      </trkpt>
      <trkpt lat="48.797945939004421234130859375" lon="-3.542058505117893218994140625">
        <ele>7.400000095367431640625</ele>
        <time>2026-05-10T10:26:41.000Z</time>
        <extensions>
          <ns3:TrackPointExtension>
            <ns3:atemp>18.0</ns3:atemp>
            <ns3:hr>101</ns3:hr>
          </ns3:TrackPointExtension>
        </extensions>
      </trkpt>
      <trkpt lat="48.797945939004421234130859375" lon="-3.542058505117893218994140625">
        <ele>8</ele>
        <time>2026-05-10T10:26:49.000Z</time>
        <extensions>
          <ns3:TrackPointExtension>
            <ns3:atemp>18.0</ns3:atemp>
            <ns3:hr>98</ns3:hr>
          </ns3:TrackPointExtension>
        </extensions>
      </trkpt>
      <trkpt lat="48.797945939004421234130859375" lon="-3.542058505117893218994140625">
        <ele>8</ele>
        <time>2026-05-10T10:26:50.000Z</time>
        <extensions>
          <ns3:TrackPointExtension>
            <ns3:atemp>18.0</ns3:atemp>
            <ns3:hr>98</ns3:hr>
          </ns3:TrackPointExtension>
        </extensions>
      </trkpt>
      <trkpt lat="48.797945939004421234130859375" lon="-3.542058505117893218994140625">
        <ele>7.19999980926513671875</ele>
        <time>2026-05-10T10:27:18.000Z</time>
        <extensions>
          <ns3:TrackPointExtension>
            <ns3:atemp>17.0</ns3:atemp>
            <ns3:hr>97</ns3:hr>
          </ns3:TrackPointExtension>
        </extensions>
      </trkpt>
      <trkpt lat="48.797945939004421234130859375" lon="-3.542058505117893218994140625">
        <ele>7.19999980926513671875</ele>
        <time>2026-05-10T10:27:28.000Z</time>
        <extensions>
          <ns3:TrackPointExtension>
            <ns3:atemp>17.0</ns3:atemp>
            <ns3:hr>94</ns3:hr>
          </ns3:TrackPointExtension>
        </extensions>
      </trkpt>
      <trkpt lat="48.797945939004421234130859375" lon="-3.542058505117893218994140625">
        <ele>6.80000019073486328125</ele>
        <time>2026-05-10T10:27:39.000Z</time>
        <extensions>
          <ns3:TrackPointExtension>
            <ns3:atemp>17.0</ns3:atemp>
            <ns3:hr>92</ns3:hr>
          </ns3:TrackPointExtension>
        </extensions>
      </trkpt>
      <trkpt lat="48.797945939004421234130859375" lon="-3.542058505117893218994140625">
        <ele>6.19999980926513671875</ele>
        <time>2026-05-10T10:27:55.000Z</time>
        <extensions>
          <ns3:TrackPointExtension>
            <ns3:atemp>17.0</ns3:atemp>
            <ns3:hr>92</ns3:hr>
          </ns3:TrackPointExtension>
        </extensions>
      </trkpt>
      <trkpt lat="48.797945939004421234130859375" lon="-3.542058505117893218994140625">
        <ele>7</ele>
        <time>2026-05-10T10:28:07.000Z</time>
        <extensions>
          <ns3:TrackPointExtension>
            <ns3:atemp>17.0</ns3:atemp>
            <ns3:hr>94</ns3:hr>
          </ns3:TrackPointExtension>
        </extensions>
      </trkpt>
      <trkpt lat="48.797945939004421234130859375" lon="-3.542058505117893218994140625">
        <ele>7.19999980926513671875</ele>
        <time>2026-05-10T10:28:08.000Z</time>
        <extensions>
          <ns3:TrackPointExtension>
            <ns3:atemp>17.0</ns3:atemp>
            <ns3:hr>95</ns3:hr>
          </ns3:TrackPointExtension>
        </extensions>
      </trkpt>
      <trkpt lat="48.797945939004421234130859375" lon="-3.542058505117893218994140625">
        <ele>6.599999904632568359375</ele>
        <time>2026-05-10T10:28:28.000Z</time>
        <extensions>
          <ns3:TrackPointExtension>
            <ns3:atemp>18.0</ns3:atemp>
            <ns3:hr>96</ns3:hr>
          </ns3:TrackPointExtension>
        </extensions>
      </trkpt>
      <trkpt lat="48.79795088432729244232177734375" lon="-3.54204182513058185577392578125">
        <ele>6.400000095367431640625</ele>
        <time>2026-05-10T10:28:47.000Z</time>
        <extensions>
          <ns3:TrackPointExtension>
            <ns3:atemp>18.0</ns3:atemp>
            <ns3:hr>94</ns3:hr>
          </ns3:TrackPointExtension>
        </extensions>
      </trkpt>
      <trkpt lat="48.797945939004421234130859375" lon="-3.542058505117893218994140625">
        <ele>6.599999904632568359375</ele>
        <time>2026-05-10T10:29:01.000Z</time>
        <extensions>
          <ns3:TrackPointExtension>
            <ns3:atemp>18.0</ns3:atemp>
            <ns3:hr>95</ns3:hr>
          </ns3:TrackPointExtension>
        </extensions>
      </trkpt>
      <trkpt lat="48.797945939004421234130859375" lon="-3.542058505117893218994140625">
        <ele>7.19999980926513671875</ele>
        <time>2026-05-10T10:29:12.000Z</time>
        <extensions>
          <ns3:TrackPointExtension>
            <ns3:atemp>18.0</ns3:atemp>
            <ns3:hr>91</ns3:hr>
          </ns3:TrackPointExtension>
        </extensions>
      </trkpt>
      <trkpt lat="48.797945939004421234130859375" lon="-3.542058505117893218994140625">
        <ele>6.400000095367431640625</ele>
        <time>2026-05-10T10:29:20.000Z</time>
        <extensions>
          <ns3:TrackPointExtension>
            <ns3:atemp>18.0</ns3:atemp>
            <ns3:hr>90</ns3:hr>
          </ns3:TrackPointExtension>
        </extensions>
      </trkpt>
      <trkpt lat="48.797945939004421234130859375" lon="-3.542058505117893218994140625">
        <ele>6</ele>
        <time>2026-05-10T10:29:38.000Z</time>
        <extensions>
          <ns3:TrackPointExtension>
            <ns3:atemp>18.0</ns3:atemp>
            <ns3:hr>90</ns3:hr>
          </ns3:TrackPointExtension>
        </extensions>
      </trkpt>
      <trkpt lat="48.797945939004421234130859375" lon="-3.542058505117893218994140625">
        <ele>6.400000095367431640625</ele>
        <time>2026-05-10T10:29:50.000Z</time>
        <extensions>
          <ns3:TrackPointExtension>
            <ns3:atemp>18.0</ns3:atemp>
            <ns3:hr>91</ns3:hr>
          </ns3:TrackPointExtension>
        </extensions>
      </trkpt>
      <trkpt lat="48.797945939004421234130859375" lon="-3.542058505117893218994140625">
        <ele>5.80000019073486328125</ele>
        <time>2026-05-10T10:30:08.000Z</time>
        <extensions>
          <ns3:TrackPointExtension>
            <ns3:atemp>18.0</ns3:atemp>
            <ns3:hr>88</ns3:hr>
          </ns3:TrackPointExtension>
        </extensions>
      </trkpt>
      <trkpt lat="48.797945939004421234130859375" lon="-3.542058505117893218994140625">
        <ele>6.599999904632568359375</ele>
        <time>2026-05-10T10:30:16.000Z</time>
        <extensions>
          <ns3:TrackPointExtension>
            <ns3:atemp>19.0</ns3:atemp>
            <ns3:hr>86</ns3:hr>
          </ns3:TrackPointExtension>
        </extensions>
      </trkpt>
      <trkpt lat="48.797945939004421234130859375" lon="-3.542058505117893218994140625">
        <ele>6.400000095367431640625</ele>
        <time>2026-05-10T10:30:17.000Z</time>
        <extensions>
          <ns3:TrackPointExtension>
            <ns3:atemp>19.0</ns3:atemp>
            <ns3:hr>86</ns3:hr>
          </ns3:TrackPointExtension>
        </extensions>
      </trkpt>
      <trkpt lat="48.797945939004421234130859375" lon="-3.542058505117893218994140625">
        <ele>6.80000019073486328125</ele>
        <time>2026-05-10T10:30:44.000Z</time>
        <extensions>
          <ns3:TrackPointExtension>
            <ns3:atemp>19.0</ns3:atemp>
            <ns3:hr>84</ns3:hr>
          </ns3:TrackPointExtension>
        </extensions>
      </trkpt>
      <trkpt lat="48.797945939004421234130859375" lon="-3.542058505117893218994140625">
        <ele>5.80000019073486328125</ele>
        <time>2026-05-10T10:30:52.000Z</time>
        <extensions>
          <ns3:TrackPointExtension>
            <ns3:atemp>19.0</ns3:atemp>
            <ns3:hr>87</ns3:hr>
          </ns3:TrackPointExtension>
        </extensions>
      </trkpt>
      <trkpt lat="48.797945939004421234130859375" lon="-3.542058505117893218994140625">
        <ele>5.599999904632568359375</ele>
        <time>2026-05-10T10:30:58.000Z</time>
        <extensions>
          <ns3:TrackPointExtension>
            <ns3:atemp>19.0</ns3:atemp>
            <ns3:hr>90</ns3:hr>
          </ns3:TrackPointExtension>
        </extensions>
      </trkpt>
      <trkpt lat="48.797945939004421234130859375" lon="-3.542058505117893218994140625">
        <ele>6.19999980926513671875</ele>
        <time>2026-05-10T10:31:11.000Z</time>
        <extensions>
          <ns3:TrackPointExtension>
            <ns3:atemp>19.0</ns3:atemp>
            <ns3:hr>89</ns3:hr>
          </ns3:TrackPointExtension>
        </extensions>
      </trkpt>
      <trkpt lat="48.797945939004421234130859375" lon="-3.542058505117893218994140625">
        <ele>7.400000095367431640625</ele>
        <time>2026-05-10T10:31:29.000Z</time>
        <extensions>
          <ns3:TrackPointExtension>
            <ns3:atemp>18.0</ns3:atemp>
            <ns3:hr>89</ns3:hr>
          </ns3:TrackPointExtension>
        </extensions>
      </trkpt>
      <trkpt lat="48.797945939004421234130859375" lon="-3.542058505117893218994140625">
        <ele>6</ele>
        <time>2026-05-10T10:31:35.000Z</time>
        <extensions>
          <ns3:TrackPointExtension>
            <ns3:atemp>18.0</ns3:atemp>
            <ns3:hr>87</ns3:hr>
          </ns3:TrackPointExtension>
        </extensions>
      </trkpt>
      <trkpt lat="48.797946274280548095703125" lon="-3.54205875657498836517333984375">
        <ele>6.80000019073486328125</ele>
        <time>2026-05-10T10:31:45.000Z</time>
        <extensions>
          <ns3:TrackPointExtension>
            <ns3:atemp>18.0</ns3:atemp>
            <ns3:hr>86</ns3:hr>
          </ns3:TrackPointExtension>
        </extensions>
      </trkpt>
      <trkpt lat="48.797945939004421234130859375" lon="-3.542058505117893218994140625">
        <ele>7</ele>
        <time>2026-05-10T10:31:46.000Z</time>
        <extensions>
          <ns3:TrackPointExtension>
            <ns3:atemp>18.0</ns3:atemp>
            <ns3:hr>85</ns3:hr>
          </ns3:TrackPointExtension>
        </extensions>
      </trkpt>
      <trkpt lat="48.797945939004421234130859375" lon="-3.542058505117893218994140625">
        <ele>6.80000019073486328125</ele>
        <time>2026-05-10T10:31:55.000Z</time>
        <extensions>
          <ns3:TrackPointExtension>
            <ns3:atemp>18.0</ns3:atemp>
            <ns3:hr>85</ns3:hr>
          </ns3:TrackPointExtension>
        </extensions>
      </trkpt>
      <trkpt lat="48.797945939004421234130859375" lon="-3.542058505117893218994140625">
        <ele>5.80000019073486328125</ele>
        <time>2026-05-10T10:31:58.000Z</time>
        <extensions>
          <ns3:TrackPointExtension>
            <ns3:atemp>18.0</ns3:atemp>
            <ns3:hr>85</ns3:hr>
          </ns3:TrackPointExtension>
        </extensions>
      </trkpt>
      <trkpt lat="48.797945939004421234130859375" lon="-3.542058505117893218994140625">
        <ele>6.19999980926513671875</ele>
        <time>2026-05-10T10:32:28.000Z</time>
        <extensions>
          <ns3:TrackPointExtension>
            <ns3:atemp>19.0</ns3:atemp>
            <ns3:hr>85</ns3:hr>
          </ns3:TrackPointExtension>
        </extensions>
      </trkpt>
      <trkpt lat="48.797945939004421234130859375" lon="-3.542058505117893218994140625">
        <ele>6.19999980926513671875</ele>
        <time>2026-05-10T10:32:34.000Z</time>
        <extensions>
          <ns3:TrackPointExtension>
            <ns3:atemp>19.0</ns3:atemp>
            <ns3:hr>85</ns3:hr>
          </ns3:TrackPointExtension>
        </extensions>
      </trkpt>
      <trkpt lat="48.797945939004421234130859375" lon="-3.542058505117893218994140625">
        <ele>5.599999904632568359375</ele>
        <time>2026-05-10T10:32:50.000Z</time>
        <extensions>
          <ns3:TrackPointExtension>
            <ns3:atemp>19.0</ns3:atemp>
            <ns3:hr>88</ns3:hr>
          </ns3:TrackPointExtension>
        </extensions>
      </trkpt>
      <trkpt lat="48.79794501699507236480712890625" lon="-3.542063869535923004150390625">
        <ele>6</ele>
        <time>2026-05-10T10:33:04.000Z</time>
        <extensions>
          <ns3:TrackPointExtension>
            <ns3:atemp>19.0</ns3:atemp>
            <ns3:hr>87</ns3:hr>
          </ns3:TrackPointExtension>
        </extensions>
      </trkpt>
      <trkpt lat="48.797945939004421234130859375" lon="-3.542058505117893218994140625">
        <ele>5.80000019073486328125</ele>
        <time>2026-05-10T10:33:13.000Z</time>
        <extensions>
          <ns3:TrackPointExtension>
            <ns3:atemp>19.0</ns3:atemp>
            <ns3:hr>87</ns3:hr>
          </ns3:TrackPointExtension>
        </extensions>
      </trkpt>
      <trkpt lat="48.797945939004421234130859375" lon="-3.542058505117893218994140625">
        <ele>5.599999904632568359375</ele>
        <time>2026-05-10T10:33:24.000Z</time>
        <extensions>
          <ns3:TrackPointExtension>
            <ns3:atemp>19.0</ns3:atemp>
            <ns3:hr>87</ns3:hr>
          </ns3:TrackPointExtension>
        </extensions>
      </trkpt>
      <trkpt lat="48.797945939004421234130859375" lon="-3.542058505117893218994140625">
        <ele>4.80000019073486328125</ele>
        <time>2026-05-10T10:33:31.000Z</time>
        <extensions>
          <ns3:TrackPointExtension>
            <ns3:atemp>19.0</ns3:atemp>
            <ns3:hr>86</ns3:hr>
          </ns3:TrackPointExtension>
        </extensions>
      </trkpt>
      <trkpt lat="48.797945939004421234130859375" lon="-3.542058505117893218994140625">
        <ele>5</ele>
        <time>2026-05-10T10:33:41.000Z</time>
        <extensions>
          <ns3:TrackPointExtension>
            <ns3:atemp>19.0</ns3:atemp>
            <ns3:hr>85</ns3:hr>
          </ns3:TrackPointExtension>
        </extensions>
      </trkpt>
      <trkpt lat="48.797945939004421234130859375" lon="-3.542058505117893218994140625">
        <ele>5.400000095367431640625</ele>
        <time>2026-05-10T10:33:59.000Z</time>
        <extensions>
          <ns3:TrackPointExtension>
            <ns3:atemp>19.0</ns3:atemp>
            <ns3:hr>82</ns3:hr>
          </ns3:TrackPointExtension>
        </extensions>
      </trkpt>
      <trkpt lat="48.797945939004421234130859375" lon="-3.542058505117893218994140625">
        <ele>6.19999980926513671875</ele>
        <time>2026-05-10T10:34:00.000Z</time>
        <extensions>
          <ns3:TrackPointExtension>
            <ns3:atemp>19.0</ns3:atemp>
            <ns3:hr>82</ns3:hr>
          </ns3:TrackPointExtension>
        </extensions>
      </trkpt>
      <trkpt lat="48.797945939004421234130859375" lon="-3.542058505117893218994140625">
        <ele>5.19999980926513671875</ele>
        <time>2026-05-10T10:34:07.000Z</time>
        <extensions>
          <ns3:TrackPointExtension>
            <ns3:atemp>19.0</ns3:atemp>
            <ns3:hr>84</ns3:hr>
          </ns3:TrackPointExtension>
        </extensions>
      </trkpt>
      <trkpt lat="48.797945939004421234130859375" lon="-3.542058505117893218994140625">
        <ele>5.19999980926513671875</ele>
        <time>2026-05-10T10:34:16.000Z</time>
        <extensions>
          <ns3:TrackPointExtension>
            <ns3:atemp>19.0</ns3:atemp>
            <ns3:hr>84</ns3:hr>
          </ns3:TrackPointExtension>
        </extensions>
      </trkpt>
      <trkpt lat="48.797945939004421234130859375" lon="-3.542058505117893218994140625">
        <ele>6.19999980926513671875</ele>
        <time>2026-05-10T10:34:24.000Z</time>
        <extensions>
          <ns3:TrackPointExtension>
            <ns3:atemp>19.0</ns3:atemp>
            <ns3:hr>85</ns3:hr>
          </ns3:TrackPointExtension>
        </extensions>
      </trkpt>
      <trkpt lat="48.797945939004421234130859375" lon="-3.542058505117893218994140625">
        <ele>6</ele>
        <time>2026-05-10T10:34:29.000Z</time>
        <extensions>
          <ns3:TrackPointExtension>
            <ns3:atemp>19.0</ns3:atemp>
            <ns3:hr>84</ns3:hr>
          </ns3:TrackPointExtension>
        </extensions>
      </trkpt>
      <trkpt lat="48.797945939004421234130859375" lon="-3.542058505117893218994140625">
        <ele>6</ele>
        <time>2026-05-10T10:34:34.000Z</time>
        <extensions>
          <ns3:TrackPointExtension>
            <ns3:atemp>19.0</ns3:atemp>
            <ns3:hr>81</ns3:hr>
          </ns3:TrackPointExtension>
        </extensions>
      </trkpt>
      <trkpt lat="48.797945939004421234130859375" lon="-3.542058505117893218994140625">
        <ele>6.400000095367431640625</ele>
        <time>2026-05-10T10:34:38.000Z</time>
        <extensions>
          <ns3:TrackPointExtension>
            <ns3:atemp>19.0</ns3:atemp>
            <ns3:hr>84</ns3:hr>
          </ns3:TrackPointExtension>
        </extensions>
      </trkpt>
      <trkpt lat="48.797945939004421234130859375" lon="-3.542058505117893218994140625">
        <ele>6.19999980926513671875</ele>
        <time>2026-05-10T10:34:40.000Z</time>
        <extensions>
          <ns3:TrackPointExtension>
            <ns3:atemp>19.0</ns3:atemp>
            <ns3:hr>87</ns3:hr>
          </ns3:TrackPointExtension>
        </extensions>
      </trkpt>
      <trkpt lat="48.797945939004421234130859375" lon="-3.542058505117893218994140625">
        <ele>5.80000019073486328125</ele>
        <time>2026-05-10T10:34:53.000Z</time>
        <extensions>
          <ns3:TrackPointExtension>
            <ns3:atemp>19.0</ns3:atemp>
            <ns3:hr>87</ns3:hr>
          </ns3:TrackPointExtension>
        </extensions>
      </trkpt>
      <trkpt lat="48.797945939004421234130859375" lon="-3.542058505117893218994140625">
        <ele>6</ele>
        <time>2026-05-10T10:35:04.000Z</time>
        <extensions>
          <ns3:TrackPointExtension>
            <ns3:atemp>19.0</ns3:atemp>
            <ns3:hr>85</ns3:hr>
          </ns3:TrackPointExtension>
        </extensions>
      </trkpt>
      <trkpt lat="48.797945939004421234130859375" lon="-3.542058505117893218994140625">
        <ele>5.80000019073486328125</ele>
        <time>2026-05-10T10:35:19.000Z</time>
        <extensions>
          <ns3:TrackPointExtension>
            <ns3:atemp>19.0</ns3:atemp>
            <ns3:hr>84</ns3:hr>
          </ns3:TrackPointExtension>
        </extensions>
      </trkpt>
      <trkpt lat="48.797945939004421234130859375" lon="-3.542058505117893218994140625">
        <ele>5.599999904632568359375</ele>
        <time>2026-05-10T10:35:28.000Z</time>
        <extensions>
          <ns3:TrackPointExtension>
            <ns3:atemp>19.0</ns3:atemp>
            <ns3:hr>85</ns3:hr>
          </ns3:TrackPointExtension>
        </extensions>
      </trkpt>
      <trkpt lat="48.797945939004421234130859375" lon="-3.542058505117893218994140625">
        <ele>5.599999904632568359375</ele>
        <time>2026-05-10T10:35:47.000Z</time>
        <extensions>
          <ns3:TrackPointExtension>
            <ns3:atemp>19.0</ns3:atemp>
            <ns3:hr>86</ns3:hr>
          </ns3:TrackPointExtension>
        </extensions>
      </trkpt>
      <trkpt lat="48.797945939004421234130859375" lon="-3.542058505117893218994140625">
        <ele>5.400000095367431640625</ele>
        <time>2026-05-10T10:35:59.000Z</time>
        <extensions>
          <ns3:TrackPointExtension>
            <ns3:atemp>19.0</ns3:atemp>
            <ns3:hr>89</ns3:hr>
          </ns3:TrackPointExtension>
        </extensions>
      </trkpt>
      <trkpt lat="48.797945939004421234130859375" lon="-3.542058505117893218994140625">
        <ele>5.19999980926513671875</ele>
        <time>2026-05-10T10:36:00.000Z</time>
        <extensions>
          <ns3:TrackPointExtension>
            <ns3:atemp>19.0</ns3:atemp>
            <ns3:hr>89</ns3:hr>
          </ns3:TrackPointExtension>
        </extensions>
      </trkpt>
      <trkpt lat="48.797945939004421234130859375" lon="-3.542058505117893218994140625">
        <ele>5.19999980926513671875</ele>
        <time>2026-05-10T10:36:07.000Z</time>
        <extensions>
          <ns3:TrackPointExtension>
            <ns3:atemp>19.0</ns3:atemp>
            <ns3:hr>86</ns3:hr>
          </ns3:TrackPointExtension>
        </extensions>
      </trkpt>
      <trkpt lat="48.797945939004421234130859375" lon="-3.542058505117893218994140625">
        <ele>5.19999980926513671875</ele>
        <time>2026-05-10T10:36:08.000Z</time>
        <extensions>
          <ns3:TrackPointExtension>
            <ns3:atemp>19.0</ns3:atemp>
            <ns3:hr>86</ns3:hr>
          </ns3:TrackPointExtension>
        </extensions>
      </trkpt>
      <trkpt lat="48.797945939004421234130859375" lon="-3.542058505117893218994140625">
        <ele>5</ele>
        <time>2026-05-10T10:36:16.000Z</time>
        <extensions>
          <ns3:TrackPointExtension>
            <ns3:atemp>19.0</ns3:atemp>
            <ns3:hr>87</ns3:hr>
          </ns3:TrackPointExtension>
        </extensions>
      </trkpt>
      <trkpt lat="48.797945939004421234130859375" lon="-3.542058505117893218994140625">
        <ele>5.19999980926513671875</ele>
        <time>2026-05-10T10:36:25.000Z</time>
        <extensions>
          <ns3:TrackPointExtension>
            <ns3:atemp>19.0</ns3:atemp>
            <ns3:hr>84</ns3:hr>
          </ns3:TrackPointExtension>
        </extensions>
      </trkpt>
      <trkpt lat="48.797945939004421234130859375" lon="-3.542058505117893218994140625">
        <ele>5.19999980926513671875</ele>
        <time>2026-05-10T10:36:38.000Z</time>
        <extensions>
          <ns3:TrackPointExtension>
            <ns3:atemp>19.0</ns3:atemp>
            <ns3:hr>82</ns3:hr>
          </ns3:TrackPointExtension>
        </extensions>
      </trkpt>
      <trkpt lat="48.797945939004421234130859375" lon="-3.542058505117893218994140625">
        <ele>5.599999904632568359375</ele>
        <time>2026-05-10T10:36:50.000Z</time>
        <extensions>
          <ns3:TrackPointExtension>
            <ns3:atemp>19.0</ns3:atemp>
            <ns3:hr>80</ns3:hr>
          </ns3:TrackPointExtension>
        </extensions>
      </trkpt>
      <trkpt lat="48.797945939004421234130859375" lon="-3.542058505117893218994140625">
        <ele>5.400000095367431640625</ele>
        <time>2026-05-10T10:37:07.000Z</time>
        <extensions>
          <ns3:TrackPointExtension>
            <ns3:atemp>19.0</ns3:atemp>
            <ns3:hr>77</ns3:hr>
          </ns3:TrackPointExtension>
        </extensions>
      </trkpt>
      <trkpt lat="48.797945939004421234130859375" lon="-3.542058505117893218994140625">
        <ele>5.400000095367431640625</ele>
        <time>2026-05-10T10:37:19.000Z</time>
        <extensions>
          <ns3:TrackPointExtension>
            <ns3:atemp>20.0</ns3:atemp>
            <ns3:hr>78</ns3:hr>
          </ns3:TrackPointExtension>
        </extensions>
      </trkpt>
      <trkpt lat="48.797945939004421234130859375" lon="-3.542058505117893218994140625">
        <ele>5.599999904632568359375</ele>
        <time>2026-05-10T10:37:41.000Z</time>
        <extensions>
          <ns3:TrackPointExtension>
            <ns3:atemp>20.0</ns3:atemp>
            <ns3:hr>81</ns3:hr>
          </ns3:TrackPointExtension>
        </extensions>
      </trkpt>
      <trkpt lat="48.797945939004421234130859375" lon="-3.542058505117893218994140625">
        <ele>5.19999980926513671875</ele>
        <time>2026-05-10T10:37:49.000Z</time>
        <extensions>
          <ns3:TrackPointExtension>
            <ns3:atemp>20.0</ns3:atemp>
            <ns3:hr>84</ns3:hr>
          </ns3:TrackPointExtension>
        </extensions>
      </trkpt>
      <trkpt lat="48.797945939004421234130859375" lon="-3.542058505117893218994140625">
        <ele>6.599999904632568359375</ele>
        <time>2026-05-10T10:37:54.000Z</time>
        <extensions>
          <ns3:TrackPointExtension>
            <ns3:atemp>20.0</ns3:atemp>
            <ns3:hr>86</ns3:hr>
          </ns3:TrackPointExtension>
        </extensions>
      </trkpt>
      <trkpt lat="48.797945939004421234130859375" lon="-3.542058505117893218994140625">
        <ele>7.599999904632568359375</ele>
        <time>2026-05-10T10:37:56.000Z</time>
        <extensions>
          <ns3:TrackPointExtension>
            <ns3:atemp>20.0</ns3:atemp>
            <ns3:hr>86</ns3:hr>
          </ns3:TrackPointExtension>
        </extensions>
      </trkpt>
      <trkpt lat="48.797945939004421234130859375" lon="-3.542058505117893218994140625">
        <ele>6.599999904632568359375</ele>
        <time>2026-05-10T10:38:01.000Z</time>
        <extensions>
          <ns3:TrackPointExtension>
            <ns3:atemp>20.0</ns3:atemp>
            <ns3:hr>84</ns3:hr>
          </ns3:TrackPointExtension>
        </extensions>
      </trkpt>
      <trkpt lat="48.797945939004421234130859375" lon="-3.542058505117893218994140625">
        <ele>6.80000019073486328125</ele>
        <time>2026-05-10T10:38:11.000Z</time>
        <extensions>
          <ns3:TrackPointExtension>
            <ns3:atemp>20.0</ns3:atemp>
            <ns3:hr>84</ns3:hr>
          </ns3:TrackPointExtension>
        </extensions>
      </trkpt>
      <trkpt lat="48.7979145906865596771240234375" lon="-3.54209815151989459991455078125">
        <ele>6.599999904632568359375</ele>
        <time>2026-05-10T10:38:17.000Z</time>
        <extensions>
          <ns3:TrackPointExtension>
            <ns3:atemp>20.0</ns3:atemp>
            <ns3:hr>86</ns3:hr>
          </ns3:TrackPointExtension>
        </extensions>
      </trkpt>
      <trkpt lat="48.79790880717337131500244140625" lon="-3.54213117621839046478271484375">
        <ele>6</ele>
        <time>2026-05-10T10:38:20.000Z</time>
        <extensions>
          <ns3:TrackPointExtension>
            <ns3:atemp>20.0</ns3:atemp>
            <ns3:hr>89</ns3:hr>
          </ns3:TrackPointExtension>
        </extensions>
      </trkpt>
      <trkpt lat="48.79790402948856353759765625" lon="-3.542165458202362060546875">
        <ele>5.400000095367431640625</ele>
        <time>2026-05-10T10:38:22.000Z</time>
        <extensions>
          <ns3:TrackPointExtension>
            <ns3:atemp>20.0</ns3:atemp>
            <ns3:hr>89</ns3:hr>
          </ns3:TrackPointExtension>
        </extensions>
      </trkpt>
      <trkpt lat="48.7978988327085971832275390625" lon="-3.54218448512256145477294921875">
        <ele>5.19999980926513671875</ele>
        <time>2026-05-10T10:38:23.000Z</time>
        <extensions>
          <ns3:TrackPointExtension>
            <ns3:atemp>20.0</ns3:atemp>
            <ns3:hr>89</ns3:hr>
          </ns3:TrackPointExtension>
        </extensions>
      </trkpt>
      <trkpt lat="48.79789221100509166717529296875" lon="-3.542263694107532501220703125">
        <ele>5</ele>
        <time>2026-05-10T10:38:28.000Z</time>
        <extensions>
          <ns3:TrackPointExtension>
            <ns3:atemp>20.0</ns3:atemp>
            <ns3:hr>90</ns3:hr>
          </ns3:TrackPointExtension>
        </extensions>
      </trkpt>
      <trkpt lat="48.79787058569490909576416015625" lon="-3.542376346886157989501953125">
        <ele>4.400000095367431640625</ele>
        <time>2026-05-10T10:38:35.000Z</time>
        <extensions>
          <ns3:TrackPointExtension>
            <ns3:atemp>20.0</ns3:atemp>
            <ns3:hr>92</ns3:hr>
          </ns3:TrackPointExtension>
        </extensions>
      </trkpt>
      <trkpt lat="48.79786471836268901824951171875" lon="-3.54238732717931270599365234375">
        <ele>4</ele>
        <time>2026-05-10T10:38:36.000Z</time>
        <extensions>
          <ns3:TrackPointExtension>
            <ns3:atemp>20.0</ns3:atemp>
            <ns3:hr>92</ns3:hr>
          </ns3:TrackPointExtension>
        </extensions>
      </trkpt>
      <trkpt lat="48.797866143286228179931640625" lon="-3.542433343827724456787109375">
        <ele>3.2000000476837158203125</ele>
        <time>2026-05-10T10:38:42.000Z</time>
        <extensions>
          <ns3:TrackPointExtension>
            <ns3:atemp>20.0</ns3:atemp>
            <ns3:hr>91</ns3:hr>
          </ns3:TrackPointExtension>
        </extensions>
      </trkpt>
      <trkpt lat="48.797866143286228179931640625" lon="-3.542433343827724456787109375">
        <ele>3.2000000476837158203125</ele>
        <time>2026-05-10T10:38:48.000Z</time>
        <extensions>
          <ns3:TrackPointExtension>
            <ns3:atemp>20.0</ns3:atemp>
            <ns3:hr>88</ns3:hr>
          </ns3:TrackPointExtension>
        </extensions>
      </trkpt>
      <trkpt lat="48.7978555820882320404052734375" lon="-3.5424667038023471832275390625">
        <ele>3.400000095367431640625</ele>
        <time>2026-05-10T10:38:55.000Z</time>
        <extensions>
          <ns3:TrackPointExtension>
            <ns3:atemp>20.0</ns3:atemp>
            <ns3:hr>86</ns3:hr>
          </ns3:TrackPointExtension>
        </extensions>
      </trkpt>
      <trkpt lat="48.79782565869390964508056640625" lon="-3.54250819422304630279541015625">
        <ele>3.599999904632568359375</ele>
        <time>2026-05-10T10:39:04.000Z</time>
        <extensions>
          <ns3:TrackPointExtension>
            <ns3:atemp>20.0</ns3:atemp>
            <ns3:hr>84</ns3:hr>
          </ns3:TrackPointExtension>
        </extensions>
      </trkpt>
      <trkpt lat="48.7978016026318073272705078125" lon="-3.54258480481803417205810546875">
        <ele>3.599999904632568359375</ele>
        <time>2026-05-10T10:39:13.000Z</time>
        <extensions>
          <ns3:TrackPointExtension>
            <ns3:atemp>20.0</ns3:atemp>
            <ns3:hr>84</ns3:hr>
          </ns3:TrackPointExtension>
        </extensions>
      </trkpt>
      <trkpt lat="48.7977866828441619873046875" lon="-3.5426509380340576171875">
        <ele>4</ele>
        <time>2026-05-10T10:39:18.000Z</time>
        <extensions>
          <ns3:TrackPointExtension>
            <ns3:atemp>20.0</ns3:atemp>
            <ns3:hr>82</ns3:hr>
          </ns3:TrackPointExtension>
        </extensions>
      </trkpt>
      <trkpt lat="48.79777394235134124755859375" lon="-3.5427059233188629150390625">
        <ele>3.599999904632568359375</ele>
        <time>2026-05-10T10:39:22.000Z</time>
        <extensions>
          <ns3:TrackPointExtension>
            <ns3:atemp>20.0</ns3:atemp>
            <ns3:hr>83</ns3:hr>
          </ns3:TrackPointExtension>
        </extensions>
      </trkpt>
      <trkpt lat="48.79774251021444797515869140625" lon="-3.54279284365475177764892578125">
        <ele>3.2000000476837158203125</ele>
        <time>2026-05-10T10:39:29.000Z</time>
        <extensions>
          <ns3:TrackPointExtension>
            <ns3:atemp>20.0</ns3:atemp>
            <ns3:hr>84</ns3:hr>
          </ns3:TrackPointExtension>
        </extensions>
      </trkpt>
      <trkpt lat="48.79770562984049320220947265625" lon="-3.54284665547311305999755859375">
        <ele>3.400000095367431640625</ele>
        <time>2026-05-10T10:39:35.000Z</time>
        <extensions>
          <ns3:TrackPointExtension>
            <ns3:atemp>20.0</ns3:atemp>
            <ns3:hr>84</ns3:hr>
          </ns3:TrackPointExtension>
        </extensions>
      </trkpt>
      <trkpt lat="48.797699511051177978515625" lon="-3.54284917004406452178955078125">
        <ele>3.2000000476837158203125</ele>
        <time>2026-05-10T10:39:36.000Z</time>
        <extensions>
          <ns3:TrackPointExtension>
            <ns3:atemp>20.0</ns3:atemp>
            <ns3:hr>84</ns3:hr>
          </ns3:TrackPointExtension>
        </extensions>
      </trkpt>
      <trkpt lat="48.79763874225318431854248046875" lon="-3.5428951866924762725830078125">
        <ele>3</ele>
        <time>2026-05-10T10:39:43.000Z</time>
        <extensions>
          <ns3:TrackPointExtension>
            <ns3:atemp>20.0</ns3:atemp>
            <ns3:hr>81</ns3:hr>
          </ns3:TrackPointExtension>
        </extensions>
      </trkpt>
      <trkpt lat="48.797577805817127227783203125" lon="-3.5429741442203521728515625">
        <ele>3</ele>
        <time>2026-05-10T10:39:51.000Z</time>
        <extensions>
          <ns3:TrackPointExtension>
            <ns3:atemp>20.0</ns3:atemp>
            <ns3:hr>81</ns3:hr>
          </ns3:TrackPointExtension>
        </extensions>
      </trkpt>
      <trkpt lat="48.79753631539642810821533203125" lon="-3.54304061271250247955322265625">
        <ele>3.400000095367431640625</ele>
        <time>2026-05-10T10:39:57.000Z</time>
        <extensions>
          <ns3:TrackPointExtension>
            <ns3:atemp>20.0</ns3:atemp>
            <ns3:hr>80</ns3:hr>
          </ns3:TrackPointExtension>
        </extensions>
      </trkpt>
      <trkpt lat="48.797485269606113433837890625" lon="-3.543109595775604248046875">
        <ele>2.7999999523162841796875</ele>
        <time>2026-05-10T10:40:04.000Z</time>
        <extensions>
          <ns3:TrackPointExtension>
            <ns3:atemp>20.0</ns3:atemp>
            <ns3:hr>81</ns3:hr>
          </ns3:TrackPointExtension>
        </extensions>
      </trkpt>
      <trkpt lat="48.7974364869296550750732421875" lon="-3.54317874647676944732666015625">
        <ele>3.400000095367431640625</ele>
        <time>2026-05-10T10:40:11.000Z</time>
        <extensions>
          <ns3:TrackPointExtension>
            <ns3:atemp>20.0</ns3:atemp>
            <ns3:hr>81</ns3:hr>
          </ns3:TrackPointExtension>
        </extensions>
      </trkpt>
      <trkpt lat="48.797385692596435546875" lon="-3.54326960630714893341064453125">
        <ele>4.400000095367431640625</ele>
        <time>2026-05-10T10:40:18.000Z</time>
        <extensions>
          <ns3:TrackPointExtension>
            <ns3:atemp>20.0</ns3:atemp>
            <ns3:hr>81</ns3:hr>
          </ns3:TrackPointExtension>
        </extensions>
      </trkpt>
      <trkpt lat="48.79738125018775463104248046875" lon="-3.5432780720293521881103515625">
        <ele>4.19999980926513671875</ele>
        <time>2026-05-10T10:40:19.000Z</time>
        <extensions>
          <ns3:TrackPointExtension>
            <ns3:atemp>20.0</ns3:atemp>
            <ns3:hr>81</ns3:hr>
          </ns3:TrackPointExtension>
        </extensions>
      </trkpt>
      <trkpt lat="48.79735685884952545166015625" lon="-3.54330866597592830657958984375">
        <ele>3.2000000476837158203125</ele>
        <time>2026-05-10T10:40:22.000Z</time>
        <extensions>
          <ns3:TrackPointExtension>
            <ns3:atemp>20.0</ns3:atemp>
            <ns3:hr>82</ns3:hr>
          </ns3:TrackPointExtension>
        </extensions>
      </trkpt>
      <trkpt lat="48.7973258458077907562255859375" lon="-3.5433454625308513641357421875">
        <ele>3.599999904632568359375</ele>
        <time>2026-05-10T10:40:26.000Z</time>
        <extensions>
          <ns3:TrackPointExtension>
            <ns3:atemp>20.0</ns3:atemp>
            <ns3:hr>82</ns3:hr>
          </ns3:TrackPointExtension>
        </extensions>
      </trkpt>
      <trkpt lat="48.79731754772365093231201171875" lon="-3.54335510171949863433837890625">
        <ele>4.19999980926513671875</ele>
        <time>2026-05-10T10:40:28.000Z</time>
        <extensions>
          <ns3:TrackPointExtension>
            <ns3:atemp>20.0</ns3:atemp>
            <ns3:hr>83</ns3:hr>
          </ns3:TrackPointExtension>
        </extensions>
      </trkpt>
      <trkpt lat="48.79730983637273311614990234375" lon="-3.5433706082403659820556640625">
        <ele>3.7999999523162841796875</ele>
        <time>2026-05-10T10:40:31.000Z</time>
        <extensions>
          <ns3:TrackPointExtension>
            <ns3:atemp>20.0</ns3:atemp>
            <ns3:hr>83</ns3:hr>
          </ns3:TrackPointExtension>
        </extensions>
      </trkpt>
      <trkpt lat="48.797262646257877349853515625" lon="-3.5434462130069732666015625">
        <ele>3.599999904632568359375</ele>
        <time>2026-05-10T10:40:39.000Z</time>
        <extensions>
          <ns3:TrackPointExtension>
            <ns3:atemp>20.0</ns3:atemp>
            <ns3:hr>84</ns3:hr>
          </ns3:TrackPointExtension>
        </extensions>
      </trkpt>
      <trkpt lat="48.797259293496608734130859375" lon="-3.54346037842333316802978515625">
        <ele>3.2000000476837158203125</ele>
        <time>2026-05-10T10:40:40.000Z</time>
        <extensions>
          <ns3:TrackPointExtension>
            <ns3:atemp>20.0</ns3:atemp>
            <ns3:hr>84</ns3:hr>
          </ns3:TrackPointExtension>
        </extensions>
      </trkpt>
      <trkpt lat="48.79722249694168567657470703125" lon="-3.5435320436954498291015625">
        <ele>2.599999904632568359375</ele>
        <time>2026-05-10T10:40:46.000Z</time>
        <extensions>
          <ns3:TrackPointExtension>
            <ns3:atemp>20.0</ns3:atemp>
            <ns3:hr>85</ns3:hr>
          </ns3:TrackPointExtension>
        </extensions>
      </trkpt>
      <trkpt lat="48.79717673175036907196044921875" lon="-3.5436006076633930206298828125">
        <ele>2.7999999523162841796875</ele>
        <time>2026-05-10T10:40:53.000Z</time>
        <extensions>
          <ns3:TrackPointExtension>
            <ns3:atemp>20.0</ns3:atemp>
            <ns3:hr>84</ns3:hr>
          </ns3:TrackPointExtension>
        </extensions>
      </trkpt>
      <trkpt lat="48.79713364876806735992431640625" lon="-3.5436666570603847503662109375">
        <ele>2.599999904632568359375</ele>
        <time>2026-05-10T10:40:59.000Z</time>
        <extensions>
          <ns3:TrackPointExtension>
            <ns3:atemp>20.0</ns3:atemp>
            <ns3:hr>83</ns3:hr>
          </ns3:TrackPointExtension>
        </extensions>
      </trkpt>
      <trkpt lat="48.797095008194446563720703125" lon="-3.54373463429510593414306640625">
        <ele>2.599999904632568359375</ele>
        <time>2026-05-10T10:41:06.000Z</time>
        <extensions>
          <ns3:TrackPointExtension>
            <ns3:atemp>20.0</ns3:atemp>
            <ns3:hr>82</ns3:hr>
          </ns3:TrackPointExtension>
        </extensions>
      </trkpt>
      <trkpt lat="48.79709861241281032562255859375" lon="-3.54373262263834476470947265625">
        <ele>2.2000000476837158203125</ele>
        <time>2026-05-10T10:41:13.000Z</time>
        <extensions>
          <ns3:TrackPointExtension>
            <ns3:atemp>20.0</ns3:atemp>
            <ns3:hr>82</ns3:hr>
          </ns3:TrackPointExtension>
        </extensions>
      </trkpt>
      <trkpt lat="48.797100372612476348876953125" lon="-3.54374754242599010467529296875">
        <ele>2.2000000476837158203125</ele>
        <time>2026-05-10T10:41:14.000Z</time>
        <extensions>
          <ns3:TrackPointExtension>
            <ns3:atemp>20.0</ns3:atemp>
            <ns3:hr>82</ns3:hr>
          </ns3:TrackPointExtension>
        </extensions>
      </trkpt>
      <trkpt lat="48.79713532514870166778564453125" lon="-3.54379716329276561737060546875">
        <ele>2.2000000476837158203125</ele>
        <time>2026-05-10T10:41:19.000Z</time>
        <extensions>
          <ns3:TrackPointExtension>
            <ns3:atemp>19.0</ns3:atemp>
            <ns3:hr>82</ns3:hr>
          </ns3:TrackPointExtension>
        </extensions>
      </trkpt>
      <trkpt lat="48.79713515751063823699951171875" lon="-3.543798588216304779052734375">
        <ele>2</ele>
        <time>2026-05-10T10:41:28.000Z</time>
        <extensions>
          <ns3:TrackPointExtension>
            <ns3:atemp>19.0</ns3:atemp>
            <ns3:hr>81</ns3:hr>
          </ns3:TrackPointExtension>
        </extensions>
      </trkpt>
      <trkpt lat="48.7970877997577190399169921875" lon="-3.5438212193548679351806640625">
        <ele>1.60000002384185791015625</ele>
        <time>2026-05-10T10:41:34.000Z</time>
        <extensions>
          <ns3:TrackPointExtension>
            <ns3:atemp>19.0</ns3:atemp>
            <ns3:hr>83</ns3:hr>
          </ns3:TrackPointExtension>
        </extensions>
      </trkpt>
      <trkpt lat="48.7970378436148166656494140625" lon="-3.54388500563800334930419921875">
        <ele>1.7999999523162841796875</ele>
        <time>2026-05-10T10:41:42.000Z</time>
        <extensions>
          <ns3:TrackPointExtension>
            <ns3:atemp>19.0</ns3:atemp>
            <ns3:hr>84</ns3:hr>
          </ns3:TrackPointExtension>
        </extensions>
      </trkpt>
      <trkpt lat="48.79696584306657314300537109375" lon="-3.54394719935953617095947265625">
        <ele>3</ele>
        <time>2026-05-10T10:41:52.000Z</time>
        <extensions>
          <ns3:TrackPointExtension>
            <ns3:atemp>19.0</ns3:atemp>
            <ns3:hr>83</ns3:hr>
          </ns3:TrackPointExtension>
        </extensions>
      </trkpt>
      <trkpt lat="48.79694044589996337890625" lon="-3.5439660586416721343994140625">
        <ele>3.599999904632568359375</ele>
        <time>2026-05-10T10:41:55.000Z</time>
        <extensions>
          <ns3:TrackPointExtension>
            <ns3:atemp>19.0</ns3:atemp>
            <ns3:hr>83</ns3:hr>
          </ns3:TrackPointExtension>
        </extensions>
      </trkpt>
      <trkpt lat="48.7969208322465419769287109375" lon="-3.54398475028574466705322265625">
        <ele>2.599999904632568359375</ele>
        <time>2026-05-10T10:41:57.000Z</time>
        <extensions>
          <ns3:TrackPointExtension>
            <ns3:atemp>19.0</ns3:atemp>
            <ns3:hr>83</ns3:hr>
          </ns3:TrackPointExtension>
        </extensions>
      </trkpt>
      <trkpt lat="48.79688219167292118072509765625" lon="-3.5440277494490146636962890625">
        <ele>3.2000000476837158203125</ele>
        <time>2026-05-10T10:42:02.000Z</time>
        <extensions>
          <ns3:TrackPointExtension>
            <ns3:atemp>19.0</ns3:atemp>
            <ns3:hr>84</ns3:hr>
          </ns3:TrackPointExtension>
        </extensions>
      </trkpt>
      <trkpt lat="48.79681379534304141998291015625" lon="-3.5441065393388271331787109375">
        <ele>3.400000095367431640625</ele>
        <time>2026-05-10T10:42:11.000Z</time>
        <extensions>
          <ns3:TrackPointExtension>
            <ns3:atemp>19.0</ns3:atemp>
            <ns3:hr>86</ns3:hr>
          </ns3:TrackPointExtension>
        </extensions>
      </trkpt>
      <trkpt lat="48.79676383920013904571533203125" lon="-3.54420301504433155059814453125">
        <ele>3.599999904632568359375</ele>
        <time>2026-05-10T10:42:19.000Z</time>
        <extensions>
          <ns3:TrackPointExtension>
            <ns3:atemp>19.0</ns3:atemp>
            <ns3:hr>87</ns3:hr>
          </ns3:TrackPointExtension>
        </extensions>
      </trkpt>
      <trkpt lat="48.79675646312534809112548828125" lon="-3.5442175157368183135986328125">
        <ele>3.599999904632568359375</ele>
        <time>2026-05-10T10:42:20.000Z</time>
        <extensions>
          <ns3:TrackPointExtension>
            <ns3:atemp>19.0</ns3:atemp>
            <ns3:hr>88</ns3:hr>
          </ns3:TrackPointExtension>
        </extensions>
      </trkpt>
      <trkpt lat="48.79673182033002376556396484375" lon="-3.54423134587705135345458984375">
        <ele>3.599999904632568359375</ele>
        <time>2026-05-10T10:42:23.000Z</time>
        <extensions>
          <ns3:TrackPointExtension>
            <ns3:atemp>19.0</ns3:atemp>
            <ns3:hr>89</ns3:hr>
          </ns3:TrackPointExtension>
        </extensions>
      </trkpt>
      <trkpt lat="48.7967139668762683868408203125" lon="-3.54424056597054004669189453125">
        <ele>3.599999904632568359375</ele>
        <time>2026-05-10T10:42:25.000Z</time>
        <extensions>
          <ns3:TrackPointExtension>
            <ns3:atemp>19.0</ns3:atemp>
            <ns3:hr>90</ns3:hr>
          </ns3:TrackPointExtension>
        </extensions>
      </trkpt>
      <trkpt lat="48.7966628372669219970703125" lon="-3.54429446160793304443359375">
        <ele>4.400000095367431640625</ele>
        <time>2026-05-10T10:42:31.000Z</time>
        <extensions>
          <ns3:TrackPointExtension>
            <ns3:atemp>19.0</ns3:atemp>
            <ns3:hr>91</ns3:hr>
          </ns3:TrackPointExtension>
        </extensions>
      </trkpt>
      <trkpt lat="48.796616233885288238525390625" lon="-3.54437090456485748291015625">
        <ele>4</ele>
        <time>2026-05-10T10:42:38.000Z</time>
        <extensions>
          <ns3:TrackPointExtension>
            <ns3:atemp>19.0</ns3:atemp>
            <ns3:hr>94</ns3:hr>
          </ns3:TrackPointExtension>
        </extensions>
      </trkpt>
      <trkpt lat="48.796568624675273895263671875" lon="-3.544453717768192291259765625">
        <ele>4</ele>
        <time>2026-05-10T10:42:45.000Z</time>
        <extensions>
          <ns3:TrackPointExtension>
            <ns3:atemp>19.0</ns3:atemp>
            <ns3:hr>95</ns3:hr>
          </ns3:TrackPointExtension>
        </extensions>
      </trkpt>
      <trkpt lat="48.79651221446692943572998046875" lon="-3.5445356927812099456787109375">
        <ele>4</ele>
        <time>2026-05-10T10:42:53.000Z</time>
        <extensions>
          <ns3:TrackPointExtension>
            <ns3:atemp>19.0</ns3:atemp>
            <ns3:hr>95</ns3:hr>
          </ns3:TrackPointExtension>
        </extensions>
      </trkpt>
      <trkpt lat="48.7964645214378833770751953125" lon="-3.54461926035583019256591796875">
        <ele>4.400000095367431640625</ele>
        <time>2026-05-10T10:43:00.000Z</time>
        <extensions>
          <ns3:TrackPointExtension>
            <ns3:atemp>19.0</ns3:atemp>
            <ns3:hr>94</ns3:hr>
          </ns3:TrackPointExtension>
        </extensions>
      </trkpt>
      <trkpt lat="48.79642956890165805816650390625" lon="-3.544697463512420654296875">
        <ele>4.400000095367431640625</ele>
        <time>2026-05-10T10:43:07.000Z</time>
        <extensions>
          <ns3:TrackPointExtension>
            <ns3:atemp>19.0</ns3:atemp>
            <ns3:hr>94</ns3:hr>
          </ns3:TrackPointExtension>
        </extensions>
      </trkpt>
      <trkpt lat="48.7963884137570858001708984375" lon="-3.544743061065673828125">
        <ele>4.19999980926513671875</ele>
        <time>2026-05-10T10:43:13.000Z</time>
        <extensions>
          <ns3:TrackPointExtension>
            <ns3:atemp>19.0</ns3:atemp>
            <ns3:hr>93</ns3:hr>
          </ns3:TrackPointExtension>
        </extensions>
      </trkpt>
      <trkpt lat="48.796347342431545257568359375" lon="-3.54480299167335033416748046875">
        <ele>4</ele>
        <time>2026-05-10T10:43:18.000Z</time>
        <extensions>
          <ns3:TrackPointExtension>
            <ns3:atemp>19.0</ns3:atemp>
            <ns3:hr>92</ns3:hr>
          </ns3:TrackPointExtension>
        </extensions>
      </trkpt>
      <trkpt lat="48.7963329255580902099609375" lon="-3.54483433999121189117431640625">
        <ele>4.19999980926513671875</ele>
        <time>2026-05-10T10:43:20.000Z</time>
        <extensions>
          <ns3:TrackPointExtension>
            <ns3:atemp>19.0</ns3:atemp>
            <ns3:hr>91</ns3:hr>
          </ns3:TrackPointExtension>
        </extensions>
      </trkpt>
      <trkpt lat="48.7962942011654376983642578125" lon="-3.5449189133942127227783203125">
        <ele>4.599999904632568359375</ele>
        <time>2026-05-10T10:43:26.000Z</time>
        <extensions>
          <ns3:TrackPointExtension>
            <ns3:atemp>19.0</ns3:atemp>
            <ns3:hr>91</ns3:hr>
          </ns3:TrackPointExtension>
        </extensions>
      </trkpt>
      <trkpt lat="48.796284981071949005126953125" lon="-3.5449343360960483551025390625">
        <ele>4.80000019073486328125</ele>
        <time>2026-05-10T10:43:27.000Z</time>
        <extensions>
          <ns3:TrackPointExtension>
            <ns3:atemp>19.0</ns3:atemp>
            <ns3:hr>91</ns3:hr>
          </ns3:TrackPointExtension>
        </extensions>
      </trkpt>
      <trkpt lat="48.79625371657311916351318359375" lon="-3.54501304216682910919189453125">
        <ele>4.400000095367431640625</ele>
        <time>2026-05-10T10:43:32.000Z</time>
        <extensions>
          <ns3:TrackPointExtension>
            <ns3:atemp>19.0</ns3:atemp>
            <ns3:hr>92</ns3:hr>
          </ns3:TrackPointExtension>
        </extensions>
      </trkpt>
      <trkpt lat="48.79622228443622589111328125" lon="-3.545056544244289398193359375">
        <ele>3.599999904632568359375</ele>
        <time>2026-05-10T10:43:35.000Z</time>
        <extensions>
          <ns3:TrackPointExtension>
            <ns3:atemp>19.0</ns3:atemp>
            <ns3:hr>91</ns3:hr>
          </ns3:TrackPointExtension>
        </extensions>
      </trkpt>
      <trkpt lat="48.796172998845577239990234375" lon="-3.545114211738109588623046875">
        <ele>4.599999904632568359375</ele>
        <time>2026-05-10T10:43:41.000Z</time>
        <extensions>
          <ns3:TrackPointExtension>
            <ns3:atemp>19.0</ns3:atemp>
            <ns3:hr>90</ns3:hr>
          </ns3:TrackPointExtension>
        </extensions>
      </trkpt>
      <trkpt lat="48.79616520367562770843505859375" lon="-3.54511211626231670379638671875">
        <ele>4.599999904632568359375</ele>
        <time>2026-05-10T10:43:42.000Z</time>
        <extensions>
          <ns3:TrackPointExtension>
            <ns3:atemp>19.0</ns3:atemp>
            <ns3:hr>90</ns3:hr>
          </ns3:TrackPointExtension>
        </extensions>
      </trkpt>
      <trkpt lat="48.7961518764495849609375" lon="-3.5450902394950389862060546875">
        <ele>4.19999980926513671875</ele>
        <time>2026-05-10T10:43:49.000Z</time>
        <extensions>
          <ns3:TrackPointExtension>
            <ns3:atemp>19.0</ns3:atemp>
            <ns3:hr>89</ns3:hr>
          </ns3:TrackPointExtension>
        </extensions>
      </trkpt>
      <trkpt lat="48.79614852368831634521484375" lon="-3.54508864693343639373779296875">
        <ele>4.19999980926513671875</ele>
        <time>2026-05-10T10:43:54.000Z</time>
        <extensions>
          <ns3:TrackPointExtension>
            <ns3:atemp>19.0</ns3:atemp>
            <ns3:hr>86</ns3:hr>
          </ns3:TrackPointExtension>
        </extensions>
      </trkpt>
      <trkpt lat="48.79615095444023609161376953125" lon="-3.54509836994111537933349609375">
        <ele>4</ele>
        <time>2026-05-10T10:44:00.000Z</time>
        <extensions>
          <ns3:TrackPointExtension>
            <ns3:atemp>19.0</ns3:atemp>
            <ns3:hr>91</ns3:hr>
          </ns3:TrackPointExtension>
        </extensions>
      </trkpt>
      <trkpt lat="48.79615128971636295318603515625" lon="-3.54509820230305194854736328125">
        <ele>4</ele>
        <time>2026-05-10T10:44:01.000Z</time>
        <extensions>
          <ns3:TrackPointExtension>
            <ns3:atemp>19.0</ns3:atemp>
            <ns3:hr>98</ns3:hr>
          </ns3:TrackPointExtension>
        </extensions>
      </trkpt>
      <trkpt lat="48.79615078680217266082763671875" lon="-3.54509769938886165618896484375">
        <ele>4.19999980926513671875</ele>
        <time>2026-05-10T10:44:02.000Z</time>
        <extensions>
          <ns3:TrackPointExtension>
            <ns3:atemp>19.0</ns3:atemp>
            <ns3:hr>102</ns3:hr>
          </ns3:TrackPointExtension>
        </extensions>
      </trkpt>
      <trkpt lat="48.79614961333572864532470703125" lon="-3.54509602300822734832763671875">
        <ele>4.19999980926513671875</ele>
        <time>2026-05-10T10:44:04.000Z</time>
        <extensions>
          <ns3:TrackPointExtension>
            <ns3:atemp>19.0</ns3:atemp>
            <ns3:hr>105</ns3:hr>
          </ns3:TrackPointExtension>
        </extensions>
      </trkpt>
      <trkpt lat="48.79615413956344127655029296875" lon="-3.54508764110505580902099609375">
        <ele>4</ele>
        <time>2026-05-10T10:44:18.000Z</time>
        <extensions>
          <ns3:TrackPointExtension>
            <ns3:atemp>18.0</ns3:atemp>
            <ns3:hr>105</ns3:hr>
          </ns3:TrackPointExtension>
        </extensions>
      </trkpt>
      <trkpt lat="48.79615279845893383026123046875" lon="-3.54508831165730953216552734375">
        <ele>4</ele>
        <time>2026-05-10T10:44:20.000Z</time>
        <extensions>
          <ns3:TrackPointExtension>
            <ns3:atemp>18.0</ns3:atemp>
            <ns3:hr>105</ns3:hr>
          </ns3:TrackPointExtension>
        </extensions>
      </trkpt>
      <trkpt lat="48.79614911042153835296630859375" lon="-3.54509300552308559417724609375">
        <ele>4.400000095367431640625</ele>
        <time>2026-05-10T10:44:31.000Z</time>
        <extensions>
          <ns3:TrackPointExtension>
            <ns3:atemp>18.0</ns3:atemp>
            <ns3:hr>103</ns3:hr>
          </ns3:TrackPointExtension>
        </extensions>
      </trkpt>
      <trkpt lat="48.7961694784462451934814453125" lon="-3.545137345790863037109375">
        <ele>4</ele>
        <time>2026-05-10T10:44:38.000Z</time>
        <extensions>
          <ns3:TrackPointExtension>
            <ns3:atemp>18.0</ns3:atemp>
            <ns3:hr>101</ns3:hr>
          </ns3:TrackPointExtension>
        </extensions>
      </trkpt>
      <trkpt lat="48.7962050177156925201416015625" lon="-3.5452298820018768310546875">
        <ele>4</ele>
        <time>2026-05-10T10:44:45.000Z</time>
        <extensions>
          <ns3:TrackPointExtension>
            <ns3:atemp>18.0</ns3:atemp>
            <ns3:hr>100</ns3:hr>
          </ns3:TrackPointExtension>
        </extensions>
      </trkpt>
      <trkpt lat="48.7962341867387294769287109375" lon="-3.5453044809401035308837890625">
        <ele>4.19999980926513671875</ele>
        <time>2026-05-10T10:44:50.000Z</time>
        <extensions>
          <ns3:TrackPointExtension>
            <ns3:atemp>18.0</ns3:atemp>
            <ns3:hr>101</ns3:hr>
          </ns3:TrackPointExtension>
        </extensions>
      </trkpt>
      <trkpt lat="48.79624600522220134735107421875" lon="-3.545305989682674407958984375">
        <ele>4.599999904632568359375</ele>
        <time>2026-05-10T10:44:51.000Z</time>
        <extensions>
          <ns3:TrackPointExtension>
            <ns3:atemp>18.0</ns3:atemp>
            <ns3:hr>101</ns3:hr>
          </ns3:TrackPointExtension>
        </extensions>
      </trkpt>
      <trkpt lat="48.79625958390533924102783203125" lon="-3.54532116092741489410400390625">
        <ele>4.80000019073486328125</ele>
        <time>2026-05-10T10:44:53.000Z</time>
        <extensions>
          <ns3:TrackPointExtension>
            <ns3:atemp>18.0</ns3:atemp>
            <ns3:hr>100</ns3:hr>
          </ns3:TrackPointExtension>
        </extensions>
      </trkpt>
      <trkpt lat="48.796285651624202728271484375" lon="-3.5453557781875133514404296875">
        <ele>4.599999904632568359375</ele>
        <time>2026-05-10T10:44:56.000Z</time>
        <extensions>
          <ns3:TrackPointExtension>
            <ns3:atemp>18.0</ns3:atemp>
            <ns3:hr>99</ns3:hr>
          </ns3:TrackPointExtension>
        </extensions>
      </trkpt>
      <trkpt lat="48.79629981704056262969970703125" lon="-3.5453591309487819671630859375">
        <ele>4.400000095367431640625</ele>
        <time>2026-05-10T10:44:57.000Z</time>
        <extensions>
          <ns3:TrackPointExtension>
            <ns3:atemp>18.0</ns3:atemp>
            <ns3:hr>98</ns3:hr>
          </ns3:TrackPointExtension>
        </extensions>
      </trkpt>
      <trkpt lat="48.79632697440683841705322265625" lon="-3.54538234882056713104248046875">
        <ele>4</ele>
        <time>2026-05-10T10:45:00.000Z</time>
        <extensions>
          <ns3:TrackPointExtension>
            <ns3:atemp>18.0</ns3:atemp>
            <ns3:hr>97</ns3:hr>
          </ns3:TrackPointExtension>
        </extensions>
      </trkpt>
      <trkpt lat="48.7963488511741161346435546875" lon="-3.545371033251285552978515625">
        <ele>3.400000095367431640625</ele>
        <time>2026-05-10T10:45:05.000Z</time>
        <extensions>
          <ns3:TrackPointExtension>
            <ns3:atemp>18.0</ns3:atemp>
            <ns3:hr>97</ns3:hr>
          </ns3:TrackPointExtension>
        </extensions>
      </trkpt>
      <trkpt lat="48.796352706849575042724609375" lon="-3.54537539184093475341796875">
        <ele>3.400000095367431640625</ele>
        <time>2026-05-10T10:45:06.000Z</time>
        <extensions>
          <ns3:TrackPointExtension>
            <ns3:atemp>18.0</ns3:atemp>
            <ns3:hr>97</ns3:hr>
          </ns3:TrackPointExtension>
        </extensions>
      </trkpt>
      <trkpt lat="48.79634642042219638824462890625" lon="-3.5453829355537891387939453125">
        <ele>3</ele>
        <time>2026-05-10T10:45:07.000Z</time>
        <extensions>
          <ns3:TrackPointExtension>
            <ns3:atemp>18.0</ns3:atemp>
            <ns3:hr>96</ns3:hr>
          </ns3:TrackPointExtension>
        </extensions>
      </trkpt>
      <trkpt lat="48.79635714925825595855712890625" lon="-3.54535955004394054412841796875">
        <ele>2.7999999523162841796875</ele>
        <time>2026-05-10T10:45:10.000Z</time>
        <extensions>
          <ns3:TrackPointExtension>
            <ns3:atemp>18.0</ns3:atemp>
            <ns3:hr>96</ns3:hr>
          </ns3:TrackPointExtension>
        </extensions>
      </trkpt>
      <trkpt lat="48.79635580815374851226806640625" lon="-3.54536332190036773681640625">
        <ele>3.599999904632568359375</ele>
        <time>2026-05-10T10:45:15.000Z</time>
        <extensions>
          <ns3:TrackPointExtension>
            <ns3:atemp>18.0</ns3:atemp>
            <ns3:hr>96</ns3:hr>
          </ns3:TrackPointExtension>
        </extensions>
      </trkpt>
      <trkpt lat="48.796353377401828765869140625" lon="-3.54537061415612697601318359375">
        <ele>3.7999999523162841796875</ele>
        <time>2026-05-10T10:45:20.000Z</time>
        <extensions>
          <ns3:TrackPointExtension>
            <ns3:atemp>18.0</ns3:atemp>
            <ns3:hr>97</ns3:hr>
          </ns3:TrackPointExtension>
        </extensions>
      </trkpt>
      <trkpt lat="48.7963488511741161346435546875" lon="-3.54542844928801059722900390625">
        <ele>4</ele>
        <time>2026-05-10T10:45:26.000Z</time>
        <extensions>
          <ns3:TrackPointExtension>
            <ns3:atemp>18.0</ns3:atemp>
            <ns3:hr>95</ns3:hr>
          </ns3:TrackPointExtension>
        </extensions>
      </trkpt>
      <trkpt lat="48.79635647870600223541259765625" lon="-3.54546792805194854736328125">
        <ele>4.80000019073486328125</ele>
        <time>2026-05-10T10:45:28.000Z</time>
        <extensions>
          <ns3:TrackPointExtension>
            <ns3:atemp>18.0</ns3:atemp>
            <ns3:hr>94</ns3:hr>
          </ns3:TrackPointExtension>
        </extensions>
      </trkpt>
      <trkpt lat="48.79635379649698734283447265625" lon="-3.545508496463298797607421875">
        <ele>5</ele>
        <time>2026-05-10T10:45:32.000Z</time>
        <extensions>
          <ns3:TrackPointExtension>
            <ns3:atemp>18.0</ns3:atemp>
            <ns3:hr>95</ns3:hr>
          </ns3:TrackPointExtension>
        </extensions>
      </trkpt>
      <trkpt lat="48.79632630385458469390869140625" lon="-3.545486032962799072265625">
        <ele>4</ele>
        <time>2026-05-10T10:45:38.000Z</time>
        <extensions>
          <ns3:TrackPointExtension>
            <ns3:atemp>18.0</ns3:atemp>
            <ns3:hr>96</ns3:hr>
          </ns3:TrackPointExtension>
        </extensions>
      </trkpt>
      <trkpt lat="48.79632362164556980133056640625" lon="-3.545486368238925933837890625">
        <ele>3.599999904632568359375</ele>
        <time>2026-05-10T10:45:39.000Z</time>
        <extensions>
          <ns3:TrackPointExtension>
            <ns3:atemp>18.0</ns3:atemp>
            <ns3:hr>96</ns3:hr>
          </ns3:TrackPointExtension>
        </extensions>
      </trkpt>
      <trkpt lat="48.79633585922420024871826171875" lon="-3.54549030773341655731201171875">
        <ele>3.7999999523162841796875</ele>
        <time>2026-05-10T10:45:43.000Z</time>
        <extensions>
          <ns3:TrackPointExtension>
            <ns3:atemp>18.0</ns3:atemp>
            <ns3:hr>97</ns3:hr>
          </ns3:TrackPointExtension>
        </extensions>
      </trkpt>
      <trkpt lat="48.796338625252246856689453125" lon="-3.5454927384853363037109375">
        <ele>3.7999999523162841796875</ele>
        <time>2026-05-10T10:45:45.000Z</time>
        <extensions>
          <ns3:TrackPointExtension>
            <ns3:atemp>18.0</ns3:atemp>
            <ns3:hr>94</ns3:hr>
          </ns3:TrackPointExtension>
        </extensions>
      </trkpt>
      <trkpt lat="48.79634440876543521881103515625" lon="-3.545486032962799072265625">
        <ele>3.400000095367431640625</ele>
        <time>2026-05-10T10:45:50.000Z</time>
        <extensions>
          <ns3:TrackPointExtension>
            <ns3:atemp>18.0</ns3:atemp>
            <ns3:hr>93</ns3:hr>
          </ns3:TrackPointExtension>
        </extensions>
      </trkpt>
      <trkpt lat="48.7963374517858028411865234375" lon="-3.54548410512506961822509765625">
        <ele>4.80000019073486328125</ele>
        <time>2026-05-10T10:45:55.000Z</time>
        <extensions>
          <ns3:TrackPointExtension>
            <ns3:atemp>18.0</ns3:atemp>
            <ns3:hr>93</ns3:hr>
          </ns3:TrackPointExtension>
        </extensions>
      </trkpt>
      <trkpt lat="48.7963168323040008544921875" lon="-3.54549466632306575775146484375">
        <ele>4.19999980926513671875</ele>
        <time>2026-05-10T10:45:57.000Z</time>
        <extensions>
          <ns3:TrackPointExtension>
            <ns3:atemp>18.0</ns3:atemp>
            <ns3:hr>94</ns3:hr>
          </ns3:TrackPointExtension>
        </extensions>
      </trkpt>
      <trkpt lat="48.7962821312248706817626953125" lon="-3.5455247573554515838623046875">
        <ele>3.599999904632568359375</ele>
        <time>2026-05-10T10:46:00.000Z</time>
        <extensions>
          <ns3:TrackPointExtension>
            <ns3:atemp>18.0</ns3:atemp>
            <ns3:hr>94</ns3:hr>
          </ns3:TrackPointExtension>
        </extensions>
      </trkpt>
      <trkpt lat="48.79626779817044734954833984375" lon="-3.5455918125808238983154296875">
        <ele>3.400000095367431640625</ele>
        <time>2026-05-10T10:46:04.000Z</time>
        <extensions>
          <ns3:TrackPointExtension>
            <ns3:atemp>18.0</ns3:atemp>
            <ns3:hr>94</ns3:hr>
          </ns3:TrackPointExtension>
        </extensions>
      </trkpt>
      <trkpt lat="48.7962294928729534149169921875" lon="-3.54566230438649654388427734375">
        <ele>4.400000095367431640625</ele>
        <time>2026-05-10T10:46:11.000Z</time>
        <extensions>
          <ns3:TrackPointExtension>
            <ns3:atemp>18.0</ns3:atemp>
            <ns3:hr>94</ns3:hr>
          </ns3:TrackPointExtension>
        </extensions>
      </trkpt>
      <trkpt lat="48.79621918313205242156982421875" lon="-3.54566833935678005218505859375">
        <ele>4.400000095367431640625</ele>
        <time>2026-05-10T10:46:12.000Z</time>
        <extensions>
          <ns3:TrackPointExtension>
            <ns3:atemp>18.0</ns3:atemp>
            <ns3:hr>94</ns3:hr>
          </ns3:TrackPointExtension>
        </extensions>
      </trkpt>
      <trkpt lat="48.796181716024875640869140625" lon="-3.54574008844792842864990234375">
        <ele>4.19999980926513671875</ele>
        <time>2026-05-10T10:46:17.000Z</time>
        <extensions>
          <ns3:TrackPointExtension>
            <ns3:atemp>18.0</ns3:atemp>
            <ns3:hr>95</ns3:hr>
          </ns3:TrackPointExtension>
        </extensions>
      </trkpt>
      <trkpt lat="48.7961451709270477294921875" lon="-3.54582373984158039093017578125">
        <ele>4</ele>
        <time>2026-05-10T10:46:23.000Z</time>
        <extensions>
          <ns3:TrackPointExtension>
            <ns3:atemp>18.0</ns3:atemp>
            <ns3:hr>93</ns3:hr>
          </ns3:TrackPointExtension>
        </extensions>
      </trkpt>
      <trkpt lat="48.79613419063389301300048828125" lon="-3.54583580978214740753173828125">
        <ele>4</ele>
        <time>2026-05-10T10:46:24.000Z</time>
        <extensions>
          <ns3:TrackPointExtension>
            <ns3:atemp>18.0</ns3:atemp>
            <ns3:hr>93</ns3:hr>
          </ns3:TrackPointExtension>
        </extensions>
      </trkpt>
      <trkpt lat="48.79611055366694927215576171875" lon="-3.54587654583156108856201171875">
        <ele>3.7999999523162841796875</ele>
        <time>2026-05-10T10:46:28.000Z</time>
        <extensions>
          <ns3:TrackPointExtension>
            <ns3:atemp>18.0</ns3:atemp>
            <ns3:hr>93</ns3:hr>
          </ns3:TrackPointExtension>
        </extensions>
      </trkpt>
      <trkpt lat="48.79611038602888584136962890625" lon="-3.54589062742888927459716796875">
        <ele>4</ele>
        <time>2026-05-10T10:46:34.000Z</time>
        <extensions>
          <ns3:TrackPointExtension>
            <ns3:atemp>18.0</ns3:atemp>
            <ns3:hr>94</ns3:hr>
          </ns3:TrackPointExtension>
        </extensions>
      </trkpt>
      <trkpt lat="48.7960859946906566619873046875" lon="-3.545940332114696502685546875">
        <ele>4</ele>
        <time>2026-05-10T10:46:40.000Z</time>
        <extensions>
          <ns3:TrackPointExtension>
            <ns3:atemp>18.0</ns3:atemp>
            <ns3:hr>94</ns3:hr>
          </ns3:TrackPointExtension>
        </extensions>
      </trkpt>
      <trkpt lat="48.7960333563387393951416015625" lon="-3.54601467959582805633544921875">
        <ele>3.7999999523162841796875</ele>
        <time>2026-05-10T10:46:46.000Z</time>
        <extensions>
          <ns3:TrackPointExtension>
            <ns3:atemp>18.0</ns3:atemp>
            <ns3:hr>96</ns3:hr>
          </ns3:TrackPointExtension>
        </extensions>
      </trkpt>
      <trkpt lat="48.795983903110027313232421875" lon="-3.546107299625873565673828125">
        <ele>4</ele>
        <time>2026-05-10T10:46:53.000Z</time>
        <extensions>
          <ns3:TrackPointExtension>
            <ns3:atemp>18.0</ns3:atemp>
            <ns3:hr>97</ns3:hr>
          </ns3:TrackPointExtension>
        </extensions>
      </trkpt>
      <trkpt lat="48.79595615901052951812744140625" lon="-3.546201847493648529052734375">
        <ele>4</ele>
        <time>2026-05-10T10:46:58.000Z</time>
        <extensions>
          <ns3:TrackPointExtension>
            <ns3:atemp>18.0</ns3:atemp>
            <ns3:hr>97</ns3:hr>
          </ns3:TrackPointExtension>
        </extensions>
      </trkpt>
      <trkpt lat="48.79592950455844402313232421875" lon="-3.5462694056332111358642578125">
        <ele>4</ele>
        <time>2026-05-10T10:47:03.000Z</time>
        <extensions>
          <ns3:TrackPointExtension>
            <ns3:atemp>18.0</ns3:atemp>
            <ns3:hr>97</ns3:hr>
          </ns3:TrackPointExtension>
        </extensions>
      </trkpt>
      <trkpt lat="48.7958945520222187042236328125" lon="-3.54636085219681262969970703125">
        <ele>4.19999980926513671875</ele>
        <time>2026-05-10T10:47:09.000Z</time>
        <extensions>
          <ns3:TrackPointExtension>
            <ns3:atemp>18.0</ns3:atemp>
            <ns3:hr>96</ns3:hr>
          </ns3:TrackPointExtension>
        </extensions>
      </trkpt>
      <trkpt lat="48.79587686620652675628662109375" lon="-3.54639337398111820220947265625">
        <ele>4</ele>
        <time>2026-05-10T10:47:14.000Z</time>
        <extensions>
          <ns3:TrackPointExtension>
            <ns3:atemp>18.0</ns3:atemp>
            <ns3:hr>96</ns3:hr>
          </ns3:TrackPointExtension>
        </extensions>
      </trkpt>
      <trkpt lat="48.79584082402288913726806640625" lon="-3.54649479500949382781982421875">
        <ele>4.19999980926513671875</ele>
        <time>2026-05-10T10:47:20.000Z</time>
        <extensions>
          <ns3:TrackPointExtension>
            <ns3:atemp>18.0</ns3:atemp>
            <ns3:hr>96</ns3:hr>
          </ns3:TrackPointExtension>
        </extensions>
      </trkpt>
      <trkpt lat="48.79581727087497711181640625" lon="-3.5465956293046474456787109375">
        <ele>4.19999980926513671875</ele>
        <time>2026-05-10T10:47:26.000Z</time>
        <extensions>
          <ns3:TrackPointExtension>
            <ns3:atemp>18.0</ns3:atemp>
            <ns3:hr>96</ns3:hr>
          </ns3:TrackPointExtension>
        </extensions>
      </trkpt>
      <trkpt lat="48.79578131251037120819091796875" lon="-3.5466809570789337158203125">
        <ele>4</ele>
        <time>2026-05-10T10:47:32.000Z</time>
        <extensions>
          <ns3:TrackPointExtension>
            <ns3:atemp>18.0</ns3:atemp>
            <ns3:hr>96</ns3:hr>
          </ns3:TrackPointExtension>
        </extensions>
      </trkpt>
      <trkpt lat="48.79573688842356204986572265625" lon="-3.54679428040981292724609375">
        <ele>4</ele>
        <time>2026-05-10T10:47:39.000Z</time>
        <extensions>
          <ns3:TrackPointExtension>
            <ns3:atemp>18.0</ns3:atemp>
            <ns3:hr>95</ns3:hr>
          </ns3:TrackPointExtension>
        </extensions>
      </trkpt>
      <trkpt lat="48.79574610851705074310302734375" lon="-3.5467998124659061431884765625">
        <ele>4</ele>
        <time>2026-05-10T10:47:44.000Z</time>
        <extensions>
          <ns3:TrackPointExtension>
            <ns3:atemp>18.0</ns3:atemp>
            <ns3:hr>95</ns3:hr>
          </ns3:TrackPointExtension>
        </extensions>
      </trkpt>
      <trkpt lat="48.7957584299147129058837890625" lon="-3.54679905809462070465087890625">
        <ele>3.7999999523162841796875</ele>
        <time>2026-05-10T10:47:46.000Z</time>
        <extensions>
          <ns3:TrackPointExtension>
            <ns3:atemp>18.0</ns3:atemp>
            <ns3:hr>96</ns3:hr>
          </ns3:TrackPointExtension>
        </extensions>
      </trkpt>
      <trkpt lat="48.79576169885694980621337890625" lon="-3.546802997589111328125">
        <ele>3.2000000476837158203125</ele>
        <time>2026-05-10T10:47:50.000Z</time>
        <extensions>
          <ns3:TrackPointExtension>
            <ns3:atemp>18.0</ns3:atemp>
            <ns3:hr>95</ns3:hr>
          </ns3:TrackPointExtension>
        </extensions>
      </trkpt>
      <trkpt lat="48.79573336802423000335693359375" lon="-3.54681330733001232147216796875">
        <ele>4</ele>
        <time>2026-05-10T10:48:00.000Z</time>
        <extensions>
          <ns3:TrackPointExtension>
            <ns3:atemp>18.0</ns3:atemp>
            <ns3:hr>94</ns3:hr>
          </ns3:TrackPointExtension>
        </extensions>
      </trkpt>
      <trkpt lat="48.79573009908199310302734375" lon="-3.54681515134871006011962890625">
        <ele>3.400000095367431640625</ele>
        <time>2026-05-10T10:48:08.000Z</time>
        <extensions>
          <ns3:TrackPointExtension>
            <ns3:atemp>18.0</ns3:atemp>
            <ns3:hr>92</ns3:hr>
          </ns3:TrackPointExtension>
        </extensions>
      </trkpt>
      <trkpt lat="48.7957275845110416412353515625" lon="-3.54683811776340007781982421875">
        <ele>3.2000000476837158203125</ele>
        <time>2026-05-10T10:48:17.000Z</time>
        <extensions>
          <ns3:TrackPointExtension>
            <ns3:atemp>18.0</ns3:atemp>
            <ns3:hr>90</ns3:hr>
          </ns3:TrackPointExtension>
        </extensions>
      </trkpt>
      <trkpt lat="48.79573085345327854156494140625" lon="-3.54690693318843841552734375">
        <ele>4</ele>
        <time>2026-05-10T10:48:23.000Z</time>
        <extensions>
          <ns3:TrackPointExtension>
            <ns3:atemp>18.0</ns3:atemp>
            <ns3:hr>88</ns3:hr>
          </ns3:TrackPointExtension>
        </extensions>
      </trkpt>
      <trkpt lat="48.7957208789885044097900390625" lon="-3.5469775088131427764892578125">
        <ele>4</ele>
        <time>2026-05-10T10:48:28.000Z</time>
        <extensions>
          <ns3:TrackPointExtension>
            <ns3:atemp>18.0</ns3:atemp>
            <ns3:hr>87</ns3:hr>
          </ns3:TrackPointExtension>
        </extensions>
      </trkpt>
      <trkpt lat="48.795714341104030609130859375" lon="-3.54705604724586009979248046875">
        <ele>4.400000095367431640625</ele>
        <time>2026-05-10T10:48:34.000Z</time>
        <extensions>
          <ns3:TrackPointExtension>
            <ns3:atemp>18.0</ns3:atemp>
            <ns3:hr>87</ns3:hr>
          </ns3:TrackPointExtension>
        </extensions>
      </trkpt>
      <trkpt lat="48.795726411044597625732421875" lon="-3.5471290536224842071533203125">
        <ele>4.19999980926513671875</ele>
        <time>2026-05-10T10:48:39.000Z</time>
        <extensions>
          <ns3:TrackPointExtension>
            <ns3:atemp>18.0</ns3:atemp>
            <ns3:hr>88</ns3:hr>
          </ns3:TrackPointExtension>
        </extensions>
      </trkpt>
      <trkpt lat="48.79573789425194263458251953125" lon="-3.54716308414936065673828125">
        <ele>4</ele>
        <time>2026-05-10T10:48:45.000Z</time>
        <extensions>
          <ns3:TrackPointExtension>
            <ns3:atemp>18.0</ns3:atemp>
            <ns3:hr>89</ns3:hr>
          </ns3:TrackPointExtension>
        </extensions>
      </trkpt>
      <trkpt lat="48.79572649486362934112548828125" lon="-3.5472772456705570220947265625">
        <ele>3.7999999523162841796875</ele>
        <time>2026-05-10T10:48:52.000Z</time>
        <extensions>
          <ns3:TrackPointExtension>
            <ns3:atemp>18.0</ns3:atemp>
            <ns3:hr>90</ns3:hr>
          </ns3:TrackPointExtension>
        </extensions>
      </trkpt>
      <trkpt lat="48.79571492783725261688232421875" lon="-3.54728722013533115386962890625">
        <ele>3.599999904632568359375</ele>
        <time>2026-05-10T10:48:53.000Z</time>
        <extensions>
          <ns3:TrackPointExtension>
            <ns3:atemp>18.0</ns3:atemp>
            <ns3:hr>89</ns3:hr>
          </ns3:TrackPointExtension>
        </extensions>
      </trkpt>
      <trkpt lat="48.79568257369101047515869140625" lon="-3.54737271554768085479736328125">
        <ele>4.19999980926513671875</ele>
        <time>2026-05-10T10:48:59.000Z</time>
        <extensions>
          <ns3:TrackPointExtension>
            <ns3:atemp>18.0</ns3:atemp>
            <ns3:hr>90</ns3:hr>
          </ns3:TrackPointExtension>
        </extensions>
      </trkpt>
      <trkpt lat="48.79569397307932376861572265625" lon="-3.547469191253185272216796875">
        <ele>4.400000095367431640625</ele>
        <time>2026-05-10T10:49:04.000Z</time>
        <extensions>
          <ns3:TrackPointExtension>
            <ns3:atemp>18.0</ns3:atemp>
            <ns3:hr>90</ns3:hr>
          </ns3:TrackPointExtension>
        </extensions>
      </trkpt>
      <trkpt lat="48.79570193588733673095703125" lon="-3.5475432872772216796875">
        <ele>3.400000095367431640625</ele>
        <time>2026-05-10T10:49:09.000Z</time>
        <extensions>
          <ns3:TrackPointExtension>
            <ns3:atemp>18.0</ns3:atemp>
            <ns3:hr>91</ns3:hr>
          </ns3:TrackPointExtension>
        </extensions>
      </trkpt>
      <trkpt lat="48.79569866694509983062744140625" lon="-3.547561056911945343017578125">
        <ele>3.400000095367431640625</ele>
        <time>2026-05-10T10:49:10.000Z</time>
        <extensions>
          <ns3:TrackPointExtension>
            <ns3:atemp>18.0</ns3:atemp>
            <ns3:hr>91</ns3:hr>
          </ns3:TrackPointExtension>
        </extensions>
      </trkpt>
      <trkpt lat="48.79569699056446552276611328125" lon="-3.547612018883228302001953125">
        <ele>3.400000095367431640625</ele>
        <time>2026-05-10T10:49:13.000Z</time>
        <extensions>
          <ns3:TrackPointExtension>
            <ns3:atemp>18.0</ns3:atemp>
            <ns3:hr>92</ns3:hr>
          </ns3:TrackPointExtension>
        </extensions>
      </trkpt>
      <trkpt lat="48.7957138381898403167724609375" lon="-3.54766205884516239166259765625">
        <ele>3.599999904632568359375</ele>
        <time>2026-05-10T10:49:16.000Z</time>
        <extensions>
          <ns3:TrackPointExtension>
            <ns3:atemp>17.0</ns3:atemp>
            <ns3:hr>91</ns3:hr>
          </ns3:TrackPointExtension>
        </extensions>
      </trkpt>
      <trkpt lat="48.79571794532239437103271484375" lon="-3.54769508354365825653076171875">
        <ele>3.599999904632568359375</ele>
        <time>2026-05-10T10:49:18.000Z</time>
        <extensions>
          <ns3:TrackPointExtension>
            <ns3:atemp>17.0</ns3:atemp>
            <ns3:hr>91</ns3:hr>
          </ns3:TrackPointExtension>
        </extensions>
      </trkpt>
      <trkpt lat="48.79573420621454715728759765625" lon="-3.54777823202311992645263671875">
        <ele>3.7999999523162841796875</ele>
        <time>2026-05-10T10:49:23.000Z</time>
        <extensions>
          <ns3:TrackPointExtension>
            <ns3:atemp>17.0</ns3:atemp>
            <ns3:hr>90</ns3:hr>
          </ns3:TrackPointExtension>
        </extensions>
      </trkpt>
      <trkpt lat="48.7957470305263996124267578125" lon="-3.5478197224438190460205078125">
        <ele>3.7999999523162841796875</ele>
        <time>2026-05-10T10:49:26.000Z</time>
        <extensions>
          <ns3:TrackPointExtension>
            <ns3:atemp>17.0</ns3:atemp>
            <ns3:hr>90</ns3:hr>
          </ns3:TrackPointExtension>
        </extensions>
      </trkpt>
      <trkpt lat="48.795755915343761444091796875" lon="-3.5478757135570049285888671875">
        <ele>3.599999904632568359375</ele>
        <time>2026-05-10T10:49:29.000Z</time>
        <extensions>
          <ns3:TrackPointExtension>
            <ns3:atemp>17.0</ns3:atemp>
            <ns3:hr>90</ns3:hr>
          </ns3:TrackPointExtension>
        </extensions>
      </trkpt>
      <trkpt lat="48.79575549624860286712646484375" lon="-3.547973446547985076904296875">
        <ele>4</ele>
        <time>2026-05-10T10:49:35.000Z</time>
        <extensions>
          <ns3:TrackPointExtension>
            <ns3:atemp>17.0</ns3:atemp>
            <ns3:hr>90</ns3:hr>
          </ns3:TrackPointExtension>
        </extensions>
      </trkpt>
      <trkpt lat="48.7957560829818248748779296875" lon="-3.54811535216867923736572265625">
        <ele>4</ele>
        <time>2026-05-10T10:49:43.000Z</time>
        <extensions>
          <ns3:TrackPointExtension>
            <ns3:atemp>17.0</ns3:atemp>
            <ns3:hr>90</ns3:hr>
          </ns3:TrackPointExtension>
        </extensions>
      </trkpt>
      <trkpt lat="48.79573973827064037322998046875" lon="-3.54828382842242717742919921875">
        <ele>4</ele>
        <time>2026-05-10T10:49:53.000Z</time>
        <extensions>
          <ns3:TrackPointExtension>
            <ns3:atemp>17.0</ns3:atemp>
            <ns3:hr>92</ns3:hr>
          </ns3:TrackPointExtension>
        </extensions>
      </trkpt>
      <trkpt lat="48.7957249023020267486572265625" lon="-3.548418022692203521728515625">
        <ele>3.599999904632568359375</ele>
        <time>2026-05-10T10:50:01.000Z</time>
        <extensions>
          <ns3:TrackPointExtension>
            <ns3:atemp>17.0</ns3:atemp>
            <ns3:hr>94</ns3:hr>
          </ns3:TrackPointExtension>
        </extensions>
      </trkpt>
      <trkpt lat="48.79569388926029205322265625" lon="-3.548540063202381134033203125">
        <ele>3.7999999523162841796875</ele>
        <time>2026-05-10T10:50:09.000Z</time>
        <extensions>
          <ns3:TrackPointExtension>
            <ns3:atemp>17.0</ns3:atemp>
            <ns3:hr>94</ns3:hr>
          </ns3:TrackPointExtension>
        </extensions>
      </trkpt>
      <trkpt lat="48.79567301832139492034912109375" lon="-3.5485933721065521240234375">
        <ele>3.599999904632568359375</ele>
        <time>2026-05-10T10:50:13.000Z</time>
        <extensions>
          <ns3:TrackPointExtension>
            <ns3:atemp>17.0</ns3:atemp>
            <ns3:hr>95</ns3:hr>
          </ns3:TrackPointExtension>
        </extensions>
      </trkpt>
      <trkpt lat="48.79567553289234638214111328125" lon="-3.54862413369119167327880859375">
        <ele>3.599999904632568359375</ele>
        <time>2026-05-10T10:50:15.000Z</time>
        <extensions>
          <ns3:TrackPointExtension>
            <ns3:atemp>17.0</ns3:atemp>
            <ns3:hr>95</ns3:hr>
          </ns3:TrackPointExtension>
        </extensions>
      </trkpt>
      <trkpt lat="48.79567922092974185943603515625" lon="-3.54864726774394512176513671875">
        <ele>4.19999980926513671875</ele>
        <time>2026-05-10T10:50:21.000Z</time>
        <extensions>
          <ns3:TrackPointExtension>
            <ns3:atemp>17.0</ns3:atemp>
            <ns3:hr>94</ns3:hr>
          </ns3:TrackPointExtension>
        </extensions>
      </trkpt>
      <trkpt lat="48.7956611998379230499267578125" lon="-3.548685573041439056396484375">
        <ele>3.599999904632568359375</ele>
        <time>2026-05-10T10:50:27.000Z</time>
        <extensions>
          <ns3:TrackPointExtension>
            <ns3:atemp>17.0</ns3:atemp>
            <ns3:hr>93</ns3:hr>
          </ns3:TrackPointExtension>
        </extensions>
      </trkpt>
      <trkpt lat="48.79562892951071262359619140625" lon="-3.5487588308751583099365234375">
        <ele>3.599999904632568359375</ele>
        <time>2026-05-10T10:50:33.000Z</time>
        <extensions>
          <ns3:TrackPointExtension>
            <ns3:atemp>17.0</ns3:atemp>
            <ns3:hr>92</ns3:hr>
          </ns3:TrackPointExtension>
        </extensions>
      </trkpt>
      <trkpt lat="48.79558701999485492706298828125" lon="-3.548806942999362945556640625">
        <ele>3.2000000476837158203125</ele>
        <time>2026-05-10T10:50:38.000Z</time>
        <extensions>
          <ns3:TrackPointExtension>
            <ns3:atemp>17.0</ns3:atemp>
            <ns3:hr>91</ns3:hr>
          </ns3:TrackPointExtension>
        </extensions>
      </trkpt>
      <trkpt lat="48.79554728977382183074951171875" lon="-3.5488776862621307373046875">
        <ele>3.599999904632568359375</ele>
        <time>2026-05-10T10:50:43.000Z</time>
        <extensions>
          <ns3:TrackPointExtension>
            <ns3:atemp>17.0</ns3:atemp>
            <ns3:hr>90</ns3:hr>
          </ns3:TrackPointExtension>
        </extensions>
      </trkpt>
      <trkpt lat="48.7955344654619693756103515625" lon="-3.54892454110085964202880859375">
        <ele>3.400000095367431640625</ele>
        <time>2026-05-10T10:50:47.000Z</time>
        <extensions>
          <ns3:TrackPointExtension>
            <ns3:atemp>17.0</ns3:atemp>
            <ns3:hr>90</ns3:hr>
          </ns3:TrackPointExtension>
        </extensions>
      </trkpt>
      <trkpt lat="48.79552331753075122833251953125" lon="-3.5489998944103717803955078125">
        <ele>3.400000095367431640625</ele>
        <time>2026-05-10T10:50:52.000Z</time>
        <extensions>
          <ns3:TrackPointExtension>
            <ns3:atemp>17.0</ns3:atemp>
            <ns3:hr>89</ns3:hr>
          </ns3:TrackPointExtension>
        </extensions>
      </trkpt>
      <trkpt lat="48.79549272358417510986328125" lon="-3.54908396489918231964111328125">
        <ele>4.400000095367431640625</ele>
        <time>2026-05-10T10:50:58.000Z</time>
        <extensions>
          <ns3:TrackPointExtension>
            <ns3:atemp>17.0</ns3:atemp>
            <ns3:hr>89</ns3:hr>
          </ns3:TrackPointExtension>
        </extensions>
      </trkpt>
      <trkpt lat="48.795487694442272186279296875" lon="-3.54913844726979732513427734375">
        <ele>4.80000019073486328125</ele>
        <time>2026-05-10T10:51:01.000Z</time>
        <extensions>
          <ns3:TrackPointExtension>
            <ns3:atemp>17.0</ns3:atemp>
            <ns3:hr>89</ns3:hr>
          </ns3:TrackPointExtension>
        </extensions>
      </trkpt>
      <trkpt lat="48.795486353337764739990234375" lon="-3.54916694574058055877685546875">
        <ele>5</ele>
        <time>2026-05-10T10:51:03.000Z</time>
        <extensions>
          <ns3:TrackPointExtension>
            <ns3:atemp>17.0</ns3:atemp>
            <ns3:hr>90</ns3:hr>
          </ns3:TrackPointExtension>
        </extensions>
      </trkpt>
      <trkpt lat="48.7954697571694850921630859375" lon="-3.54925009422004222869873046875">
        <ele>4.599999904632568359375</ele>
        <time>2026-05-10T10:51:08.000Z</time>
        <extensions>
          <ns3:TrackPointExtension>
            <ns3:atemp>17.0</ns3:atemp>
            <ns3:hr>92</ns3:hr>
          </ns3:TrackPointExtension>
        </extensions>
      </trkpt>
      <trkpt lat="48.7954234890639781951904296875" lon="-3.54929988272488117218017578125">
        <ele>4.400000095367431640625</ele>
        <time>2026-05-10T10:51:14.000Z</time>
        <extensions>
          <ns3:TrackPointExtension>
            <ns3:atemp>17.0</ns3:atemp>
            <ns3:hr>93</ns3:hr>
          </ns3:TrackPointExtension>
        </extensions>
      </trkpt>
      <trkpt lat="48.79541351459920406341552734375" lon="-3.54930340312421321868896484375">
        <ele>4.400000095367431640625</ele>
        <time>2026-05-10T10:51:15.000Z</time>
        <extensions>
          <ns3:TrackPointExtension>
            <ns3:atemp>17.0</ns3:atemp>
            <ns3:hr>92</ns3:hr>
          </ns3:TrackPointExtension>
        </extensions>
      </trkpt>
      <trkpt lat="48.79538216628134250640869140625" lon="-3.54932938702404499053955078125">
        <ele>3.599999904632568359375</ele>
        <time>2026-05-10T10:51:18.000Z</time>
        <extensions>
          <ns3:TrackPointExtension>
            <ns3:atemp>17.0</ns3:atemp>
            <ns3:hr>91</ns3:hr>
          </ns3:TrackPointExtension>
        </extensions>
      </trkpt>
      <trkpt lat="48.79536456428468227386474609375" lon="-3.54933525435626506805419921875">
        <ele>3.400000095367431640625</ele>
        <time>2026-05-10T10:51:20.000Z</time>
        <extensions>
          <ns3:TrackPointExtension>
            <ns3:atemp>17.0</ns3:atemp>
            <ns3:hr>91</ns3:hr>
          </ns3:TrackPointExtension>
        </extensions>
      </trkpt>
      <trkpt lat="48.7952897138893604278564453125" lon="-3.54938370175659656524658203125">
        <ele>4</ele>
        <time>2026-05-10T10:51:27.000Z</time>
        <extensions>
          <ns3:TrackPointExtension>
            <ns3:atemp>17.0</ns3:atemp>
            <ns3:hr>90</ns3:hr>
          </ns3:TrackPointExtension>
        </extensions>
      </trkpt>
      <trkpt lat="48.79524059593677520751953125" lon="-3.5494194924831390380859375">
        <ele>5</ele>
        <time>2026-05-10T10:51:32.000Z</time>
        <extensions>
          <ns3:TrackPointExtension>
            <ns3:atemp>17.0</ns3:atemp>
            <ns3:hr>91</ns3:hr>
          </ns3:TrackPointExtension>
        </extensions>
      </trkpt>
      <trkpt lat="48.795218802988529205322265625" lon="-3.5494468174874782562255859375">
        <ele>5.80000019073486328125</ele>
        <time>2026-05-10T10:51:35.000Z</time>
        <extensions>
          <ns3:TrackPointExtension>
            <ns3:atemp>17.0</ns3:atemp>
            <ns3:hr>92</ns3:hr>
          </ns3:TrackPointExtension>
        </extensions>
      </trkpt>
      <trkpt lat="48.795212097465991973876953125" lon="-3.54946039617061614990234375">
        <ele>6</ele>
        <time>2026-05-10T10:51:36.000Z</time>
        <extensions>
          <ns3:TrackPointExtension>
            <ns3:atemp>17.0</ns3:atemp>
            <ns3:hr>92</ns3:hr>
          </ns3:TrackPointExtension>
        </extensions>
      </trkpt>
      <trkpt lat="48.795175887644290924072265625" lon="-3.5495487414300441741943359375">
        <ele>6.80000019073486328125</ele>
        <time>2026-05-10T10:51:42.000Z</time>
        <extensions>
          <ns3:TrackPointExtension>
            <ns3:atemp>17.0</ns3:atemp>
            <ns3:hr>95</ns3:hr>
          </ns3:TrackPointExtension>
        </extensions>
      </trkpt>
      <trkpt lat="48.7951566092669963836669921875" lon="-3.54966583661735057830810546875">
        <ele>6.80000019073486328125</ele>
        <time>2026-05-10T10:51:49.000Z</time>
        <extensions>
          <ns3:TrackPointExtension>
            <ns3:atemp>17.0</ns3:atemp>
            <ns3:hr>98</ns3:hr>
          </ns3:TrackPointExtension>
        </extensions>
      </trkpt>
      <trkpt lat="48.795111514627933502197265625" lon="-3.5497546009719371795654296875">
        <ele>7</ele>
        <time>2026-05-10T10:51:55.000Z</time>
        <extensions>
          <ns3:TrackPointExtension>
            <ns3:atemp>17.0</ns3:atemp>
            <ns3:hr>100</ns3:hr>
          </ns3:TrackPointExtension>
        </extensions>
      </trkpt>
      <trkpt lat="48.79511025734245777130126953125" lon="-3.54977312497794628143310546875">
        <ele>5.599999904632568359375</ele>
        <time>2026-05-10T10:51:59.000Z</time>
        <extensions>
          <ns3:TrackPointExtension>
            <ns3:atemp>17.0</ns3:atemp>
            <ns3:hr>101</ns3:hr>
          </ns3:TrackPointExtension>
        </extensions>
      </trkpt>
      <trkpt lat="48.795114867389202117919921875" lon="-3.549775220453739166259765625">
        <ele>5.19999980926513671875</ele>
        <time>2026-05-10T10:52:03.000Z</time>
        <extensions>
          <ns3:TrackPointExtension>
            <ns3:atemp>17.0</ns3:atemp>
            <ns3:hr>101</ns3:hr>
          </ns3:TrackPointExtension>
        </extensions>
      </trkpt>
      <trkpt lat="48.795114867389202117919921875" lon="-3.54977496899664402008056640625">
        <ele>6</ele>
        <time>2026-05-10T10:52:21.000Z</time>
        <extensions>
          <ns3:TrackPointExtension>
            <ns3:atemp>17.0</ns3:atemp>
            <ns3:hr>97</ns3:hr>
          </ns3:TrackPointExtension>
        </extensions>
      </trkpt>
      <trkpt lat="48.795114867389202117919921875" lon="-3.54977496899664402008056640625">
        <ele>6.400000095367431640625</ele>
        <time>2026-05-10T10:52:24.000Z</time>
        <extensions>
          <ns3:TrackPointExtension>
            <ns3:atemp>17.0</ns3:atemp>
            <ns3:hr>92</ns3:hr>
          </ns3:TrackPointExtension>
        </extensions>
      </trkpt>
      <trkpt lat="48.795114867389202117919921875" lon="-3.54977496899664402008056640625">
        <ele>5.599999904632568359375</ele>
        <time>2026-05-10T10:52:29.000Z</time>
        <extensions>
          <ns3:TrackPointExtension>
            <ns3:atemp>17.0</ns3:atemp>
            <ns3:hr>89</ns3:hr>
          </ns3:TrackPointExtension>
        </extensions>
      </trkpt>
      <trkpt lat="48.795114867389202117919921875" lon="-3.54977496899664402008056640625">
        <ele>5.80000019073486328125</ele>
        <time>2026-05-10T10:52:32.000Z</time>
        <extensions>
          <ns3:TrackPointExtension>
            <ns3:atemp>17.0</ns3:atemp>
            <ns3:hr>90</ns3:hr>
          </ns3:TrackPointExtension>
        </extensions>
      </trkpt>
      <trkpt lat="48.795114867389202117919921875" lon="-3.54977496899664402008056640625">
        <ele>6.400000095367431640625</ele>
        <time>2026-05-10T10:52:38.000Z</time>
        <extensions>
          <ns3:TrackPointExtension>
            <ns3:atemp>17.0</ns3:atemp>
            <ns3:hr>90</ns3:hr>
          </ns3:TrackPointExtension>
        </extensions>
      </trkpt>
      <trkpt lat="48.79510380327701568603515625" lon="-3.54979273863136768341064453125">
        <ele>7.19999980926513671875</ele>
        <time>2026-05-10T10:52:45.000Z</time>
        <extensions>
          <ns3:TrackPointExtension>
            <ns3:atemp>17.0</ns3:atemp>
            <ns3:hr>91</ns3:hr>
          </ns3:TrackPointExtension>
        </extensions>
      </trkpt>
      <trkpt lat="48.795097433030605316162109375" lon="-3.54980916716158390045166015625">
        <ele>7</ele>
        <time>2026-05-10T10:52:46.000Z</time>
        <extensions>
          <ns3:TrackPointExtension>
            <ns3:atemp>17.0</ns3:atemp>
            <ns3:hr>91</ns3:hr>
          </ns3:TrackPointExtension>
        </extensions>
      </trkpt>
      <trkpt lat="48.7950741313397884368896484375" lon="-3.5499115101993083953857421875">
        <ele>6.400000095367431640625</ele>
        <time>2026-05-10T10:52:52.000Z</time>
        <extensions>
          <ns3:TrackPointExtension>
            <ns3:atemp>17.0</ns3:atemp>
            <ns3:hr>93</ns3:hr>
          </ns3:TrackPointExtension>
        </extensions>
      </trkpt>
      <trkpt lat="48.7950535118579864501953125" lon="-3.5499970056116580963134765625">
        <ele>6.19999980926513671875</ele>
        <time>2026-05-10T10:52:57.000Z</time>
        <extensions>
          <ns3:TrackPointExtension>
            <ns3:atemp>17.0</ns3:atemp>
            <ns3:hr>96</ns3:hr>
          </ns3:TrackPointExtension>
        </extensions>
      </trkpt>
      <trkpt lat="48.79504873417317867279052734375" lon="-3.55001100338995456695556640625">
        <ele>6</ele>
        <time>2026-05-10T10:52:58.000Z</time>
        <extensions>
          <ns3:TrackPointExtension>
            <ns3:atemp>17.0</ns3:atemp>
            <ns3:hr>96</ns3:hr>
          </ns3:TrackPointExtension>
        </extensions>
      </trkpt>
      <trkpt lat="48.79503565840423107147216796875" lon="-3.55011074803769588470458984375">
        <ele>6.599999904632568359375</ele>
        <time>2026-05-10T10:53:05.000Z</time>
        <extensions>
          <ns3:TrackPointExtension>
            <ns3:atemp>17.0</ns3:atemp>
            <ns3:hr>95</ns3:hr>
          </ns3:TrackPointExtension>
        </extensions>
      </trkpt>
      <trkpt lat="48.79502476193010807037353515625" lon="-3.55018325150012969970703125">
        <ele>6.19999980926513671875</ele>
        <time>2026-05-10T10:53:10.000Z</time>
        <extensions>
          <ns3:TrackPointExtension>
            <ns3:atemp>17.0</ns3:atemp>
            <ns3:hr>95</ns3:hr>
          </ns3:TrackPointExtension>
        </extensions>
      </trkpt>
      <trkpt lat="48.7950271926820278167724609375" lon="-3.55017595924437046051025390625">
        <ele>5.80000019073486328125</ele>
        <time>2026-05-10T10:53:11.000Z</time>
        <extensions>
          <ns3:TrackPointExtension>
            <ns3:atemp>17.0</ns3:atemp>
            <ns3:hr>95</ns3:hr>
          </ns3:TrackPointExtension>
        </extensions>
      </trkpt>
      <trkpt lat="48.79501998424530029296875" lon="-3.5501891188323497772216796875">
        <ele>5.599999904632568359375</ele>
        <time>2026-05-10T10:53:13.000Z</time>
        <extensions>
          <ns3:TrackPointExtension>
            <ns3:atemp>17.0</ns3:atemp>
            <ns3:hr>95</ns3:hr>
          </ns3:TrackPointExtension>
        </extensions>
      </trkpt>
      <trkpt lat="48.7950191460549831390380859375" lon="-3.550203032791614532470703125">
        <ele>5.400000095367431640625</ele>
        <time>2026-05-10T10:53:14.000Z</time>
        <extensions>
          <ns3:TrackPointExtension>
            <ns3:atemp>17.0</ns3:atemp>
            <ns3:hr>94</ns3:hr>
          </ns3:TrackPointExtension>
        </extensions>
      </trkpt>
      <trkpt lat="48.79500162787735462188720703125" lon="-3.55033705942332744598388671875">
        <ele>6.400000095367431640625</ele>
        <time>2026-05-10T10:53:23.000Z</time>
        <extensions>
          <ns3:TrackPointExtension>
            <ns3:atemp>17.0</ns3:atemp>
            <ns3:hr>92</ns3:hr>
          </ns3:TrackPointExtension>
        </extensions>
      </trkpt>
      <trkpt lat="48.795006573200225830078125" lon="-3.55034560896456241607666015625">
        <ele>6.400000095367431640625</ele>
        <time>2026-05-10T10:53:24.000Z</time>
        <extensions>
          <ns3:TrackPointExtension>
            <ns3:atemp>17.0</ns3:atemp>
            <ns3:hr>92</ns3:hr>
          </ns3:TrackPointExtension>
        </extensions>
      </trkpt>
      <trkpt lat="48.79499643109738826751708984375" lon="-3.5503933019936084747314453125">
        <ele>6</ele>
        <time>2026-05-10T10:53:28.000Z</time>
        <extensions>
          <ns3:TrackPointExtension>
            <ns3:atemp>17.0</ns3:atemp>
            <ns3:hr>92</ns3:hr>
          </ns3:TrackPointExtension>
        </extensions>
      </trkpt>
      <trkpt lat="48.79498980939388275146484375" lon="-3.55039774440228939056396484375">
        <ele>6</ele>
        <time>2026-05-10T10:53:29.000Z</time>
        <extensions>
          <ns3:TrackPointExtension>
            <ns3:atemp>17.0</ns3:atemp>
            <ns3:hr>91</ns3:hr>
          </ns3:TrackPointExtension>
        </extensions>
      </trkpt>
      <trkpt lat="48.7949745543301105499267578125" lon="-3.550471253693103790283203125">
        <ele>6.19999980926513671875</ele>
        <time>2026-05-10T10:53:34.000Z</time>
        <extensions>
          <ns3:TrackPointExtension>
            <ns3:atemp>17.0</ns3:atemp>
            <ns3:hr>91</ns3:hr>
          </ns3:TrackPointExtension>
        </extensions>
      </trkpt>
      <trkpt lat="48.7949497438967227935791015625" lon="-3.55058281682431697845458984375">
        <ele>5.599999904632568359375</ele>
        <time>2026-05-10T10:53:41.000Z</time>
        <extensions>
          <ns3:TrackPointExtension>
            <ns3:atemp>17.0</ns3:atemp>
            <ns3:hr>90</ns3:hr>
          </ns3:TrackPointExtension>
        </extensions>
      </trkpt>
      <trkpt lat="48.79492233507335186004638671875" lon="-3.55069194920361042022705078125">
        <ele>5.400000095367431640625</ele>
        <time>2026-05-10T10:53:49.000Z</time>
        <extensions>
          <ns3:TrackPointExtension>
            <ns3:atemp>17.0</ns3:atemp>
            <ns3:hr>89</ns3:hr>
          </ns3:TrackPointExtension>
        </extensions>
      </trkpt>
      <trkpt lat="48.79490892402827739715576171875" lon="-3.55077342130243778228759765625">
        <ele>5.400000095367431640625</ele>
        <time>2026-05-10T10:53:54.000Z</time>
        <extensions>
          <ns3:TrackPointExtension>
            <ns3:atemp>17.0</ns3:atemp>
            <ns3:hr>88</ns3:hr>
          </ns3:TrackPointExtension>
        </extensions>
      </trkpt>
      <trkpt lat="48.7949014641344547271728515625" lon="-3.5508653707802295684814453125">
        <ele>5.599999904632568359375</ele>
        <time>2026-05-10T10:54:00.000Z</time>
        <extensions>
          <ns3:TrackPointExtension>
            <ns3:atemp>17.0</ns3:atemp>
            <ns3:hr>88</ns3:hr>
          </ns3:TrackPointExtension>
        </extensions>
      </trkpt>
      <trkpt lat="48.7948830239474773406982421875" lon="-3.550965785980224609375">
        <ele>6</ele>
        <time>2026-05-10T10:54:06.000Z</time>
        <extensions>
          <ns3:TrackPointExtension>
            <ns3:atemp>17.0</ns3:atemp>
            <ns3:hr>87</ns3:hr>
          </ns3:TrackPointExtension>
        </extensions>
      </trkpt>
      <trkpt lat="48.79487606696784496307373046875" lon="-3.5510366968810558319091796875">
        <ele>5.599999904632568359375</ele>
        <time>2026-05-10T10:54:11.000Z</time>
        <extensions>
          <ns3:TrackPointExtension>
            <ns3:atemp>17.0</ns3:atemp>
            <ns3:hr>86</ns3:hr>
          </ns3:TrackPointExtension>
        </extensions>
      </trkpt>
      <trkpt lat="48.79485913552343845367431640625" lon="-3.55112663470208644866943359375">
        <ele>6</ele>
        <time>2026-05-10T10:54:17.000Z</time>
        <extensions>
          <ns3:TrackPointExtension>
            <ns3:atemp>17.0</ns3:atemp>
            <ns3:hr>86</ns3:hr>
          </ns3:TrackPointExtension>
        </extensions>
      </trkpt>
      <trkpt lat="48.79483197815716266632080078125" lon="-3.55121984146535396575927734375">
        <ele>5</ele>
        <time>2026-05-10T10:54:23.000Z</time>
        <extensions>
          <ns3:TrackPointExtension>
            <ns3:atemp>17.0</ns3:atemp>
            <ns3:hr>86</ns3:hr>
          </ns3:TrackPointExtension>
        </extensions>
      </trkpt>
      <trkpt lat="48.7948094308376312255859375" lon="-3.551332913339138031005859375">
        <ele>5</ele>
        <time>2026-05-10T10:54:31.000Z</time>
        <extensions>
          <ns3:TrackPointExtension>
            <ns3:atemp>17.0</ns3:atemp>
            <ns3:hr>85</ns3:hr>
          </ns3:TrackPointExtension>
        </extensions>
      </trkpt>
      <trkpt lat="48.794805072247982025146484375" lon="-3.5513431392610073089599609375">
        <ele>5</ele>
        <time>2026-05-10T10:54:32.000Z</time>
        <extensions>
          <ns3:TrackPointExtension>
            <ns3:atemp>17.0</ns3:atemp>
            <ns3:hr>85</ns3:hr>
          </ns3:TrackPointExtension>
        </extensions>
      </trkpt>
      <trkpt lat="48.79478453658521175384521484375" lon="-3.55141815729439258575439453125">
        <ele>5.19999980926513671875</ele>
        <time>2026-05-10T10:54:37.000Z</time>
        <extensions>
          <ns3:TrackPointExtension>
            <ns3:atemp>17.0</ns3:atemp>
            <ns3:hr>84</ns3:hr>
          </ns3:TrackPointExtension>
        </extensions>
      </trkpt>
      <trkpt lat="48.79477313719689846038818359375" lon="-3.55143944732844829559326171875">
        <ele>5.599999904632568359375</ele>
        <time>2026-05-10T10:54:39.000Z</time>
        <extensions>
          <ns3:TrackPointExtension>
            <ns3:atemp>17.0</ns3:atemp>
            <ns3:hr>83</ns3:hr>
          </ns3:TrackPointExtension>
        </extensions>
      </trkpt>
      <trkpt lat="48.79476458765566349029541015625" lon="-3.5514692030847072601318359375">
        <ele>5.80000019073486328125</ele>
        <time>2026-05-10T10:54:41.000Z</time>
        <extensions>
          <ns3:TrackPointExtension>
            <ns3:atemp>17.0</ns3:atemp>
            <ns3:hr>83</ns3:hr>
          </ns3:TrackPointExtension>
        </extensions>
      </trkpt>
      <trkpt lat="48.79475939087569713592529296875" lon="-3.55148118920624256134033203125">
        <ele>6</ele>
        <time>2026-05-10T10:54:42.000Z</time>
        <extensions>
          <ns3:TrackPointExtension>
            <ns3:atemp>17.0</ns3:atemp>
            <ns3:hr>83</ns3:hr>
          </ns3:TrackPointExtension>
        </extensions>
      </trkpt>
      <trkpt lat="48.79474916495382785797119140625" lon="-3.5514849610626697540283203125">
        <ele>6</ele>
        <time>2026-05-10T10:54:43.000Z</time>
        <extensions>
          <ns3:TrackPointExtension>
            <ns3:atemp>17.0</ns3:atemp>
            <ns3:hr>83</ns3:hr>
          </ns3:TrackPointExtension>
        </extensions>
      </trkpt>
      <trkpt lat="48.79471546970307826995849609375" lon="-3.55153240263462066650390625">
        <ele>5.80000019073486328125</ele>
        <time>2026-05-10T10:54:47.000Z</time>
        <extensions>
          <ns3:TrackPointExtension>
            <ns3:atemp>17.0</ns3:atemp>
            <ns3:hr>83</ns3:hr>
          </ns3:TrackPointExtension>
        </extensions>
      </trkpt>
      <trkpt lat="48.794711865484714508056640625" lon="-3.5515357553958892822265625">
        <ele>5.400000095367431640625</ele>
        <time>2026-05-10T10:54:52.000Z</time>
        <extensions>
          <ns3:TrackPointExtension>
            <ns3:atemp>17.0</ns3:atemp>
            <ns3:hr>83</ns3:hr>
          </ns3:TrackPointExtension>
        </extensions>
      </trkpt>
      <trkpt lat="48.79469568841159343719482421875" lon="-3.55154539458453655242919921875">
        <ele>5.400000095367431640625</ele>
        <time>2026-05-10T10:54:58.000Z</time>
        <extensions>
          <ns3:TrackPointExtension>
            <ns3:atemp>17.0</ns3:atemp>
            <ns3:hr>83</ns3:hr>
          </ns3:TrackPointExtension>
        </extensions>
      </trkpt>
      <trkpt lat="48.7946940958499908447265625" lon="-3.55154715478420257568359375">
        <ele>5.80000019073486328125</ele>
        <time>2026-05-10T10:55:07.000Z</time>
        <extensions>
          <ns3:TrackPointExtension>
            <ns3:atemp>17.0</ns3:atemp>
            <ns3:hr>82</ns3:hr>
          </ns3:TrackPointExtension>
        </extensions>
      </trkpt>
      <trkpt lat="48.7946365959942340850830078125" lon="-3.5516385175287723541259765625">
        <ele>6.19999980926513671875</ele>
        <time>2026-05-10T10:55:14.000Z</time>
        <extensions>
          <ns3:TrackPointExtension>
            <ns3:atemp>17.0</ns3:atemp>
            <ns3:hr>83</ns3:hr>
          </ns3:TrackPointExtension>
        </extensions>
      </trkpt>
      <trkpt lat="48.79460583440959453582763671875" lon="-3.551715798676013946533203125">
        <ele>5.19999980926513671875</ele>
        <time>2026-05-10T10:55:20.000Z</time>
        <extensions>
          <ns3:TrackPointExtension>
            <ns3:atemp>17.0</ns3:atemp>
            <ns3:hr>84</ns3:hr>
          </ns3:TrackPointExtension>
        </extensions>
      </trkpt>
      <trkpt lat="48.79456124268472194671630859375" lon="-3.5517404414713382720947265625">
        <ele>5.19999980926513671875</ele>
        <time>2026-05-10T10:55:25.000Z</time>
        <extensions>
          <ns3:TrackPointExtension>
            <ns3:atemp>17.0</ns3:atemp>
            <ns3:hr>83</ns3:hr>
          </ns3:TrackPointExtension>
        </extensions>
      </trkpt>
      <trkpt lat="48.79453727044165134429931640625" lon="-3.55179685167968273162841796875">
        <ele>5.400000095367431640625</ele>
        <time>2026-05-10T10:55:29.000Z</time>
        <extensions>
          <ns3:TrackPointExtension>
            <ns3:atemp>17.0</ns3:atemp>
            <ns3:hr>84</ns3:hr>
          </ns3:TrackPointExtension>
        </extensions>
      </trkpt>
      <trkpt lat="48.7945336662232875823974609375" lon="-3.551816046237945556640625">
        <ele>5.400000095367431640625</ele>
        <time>2026-05-10T10:55:30.000Z</time>
        <extensions>
          <ns3:TrackPointExtension>
            <ns3:atemp>17.0</ns3:atemp>
            <ns3:hr>83</ns3:hr>
          </ns3:TrackPointExtension>
        </extensions>
      </trkpt>
      <trkpt lat="48.79450877197086811065673828125" lon="-3.55187966488301753997802734375">
        <ele>5</ele>
        <time>2026-05-10T10:55:35.000Z</time>
        <extensions>
          <ns3:TrackPointExtension>
            <ns3:atemp>17.0</ns3:atemp>
            <ns3:hr>84</ns3:hr>
          </ns3:TrackPointExtension>
        </extensions>
      </trkpt>
      <trkpt lat="48.7945018149912357330322265625" lon="-3.55189911089837551116943359375">
        <ele>5</ele>
        <time>2026-05-10T10:55:36.000Z</time>
        <extensions>
          <ns3:TrackPointExtension>
            <ns3:atemp>17.0</ns3:atemp>
            <ns3:hr>84</ns3:hr>
          </ns3:TrackPointExtension>
        </extensions>
      </trkpt>
      <trkpt lat="48.79447625018656253814697265625" lon="-3.55193414725363254547119140625">
        <ele>5.400000095367431640625</ele>
        <time>2026-05-10T10:55:40.000Z</time>
        <extensions>
          <ns3:TrackPointExtension>
            <ns3:atemp>17.0</ns3:atemp>
            <ns3:hr>83</ns3:hr>
          </ns3:TrackPointExtension>
        </extensions>
      </trkpt>
      <trkpt lat="48.794465772807598114013671875" lon="-3.55195325799286365509033203125">
        <ele>5.400000095367431640625</ele>
        <time>2026-05-10T10:55:42.000Z</time>
        <extensions>
          <ns3:TrackPointExtension>
            <ns3:atemp>17.0</ns3:atemp>
            <ns3:hr>84</ns3:hr>
          </ns3:TrackPointExtension>
        </extensions>
      </trkpt>
      <trkpt lat="48.79442847333848476409912109375" lon="-3.5520287789404392242431640625">
        <ele>5.19999980926513671875</ele>
        <time>2026-05-10T10:55:48.000Z</time>
        <extensions>
          <ns3:TrackPointExtension>
            <ns3:atemp>17.0</ns3:atemp>
            <ns3:hr>84</ns3:hr>
          </ns3:TrackPointExtension>
        </extensions>
      </trkpt>
      <trkpt lat="48.7944129668176174163818359375" lon="-3.55206473730504512786865234375">
        <ele>4.80000019073486328125</ele>
        <time>2026-05-10T10:55:50.000Z</time>
        <extensions>
          <ns3:TrackPointExtension>
            <ns3:atemp>17.0</ns3:atemp>
            <ns3:hr>85</ns3:hr>
          </ns3:TrackPointExtension>
        </extensions>
      </trkpt>
      <trkpt lat="48.79438765347003936767578125" lon="-3.5521109215915203094482421875">
        <ele>4.400000095367431640625</ele>
        <time>2026-05-10T10:55:54.000Z</time>
        <extensions>
          <ns3:TrackPointExtension>
            <ns3:atemp>17.0</ns3:atemp>
            <ns3:hr>85</ns3:hr>
          </ns3:TrackPointExtension>
        </extensions>
      </trkpt>
      <trkpt lat="48.79438438452780246734619140625" lon="-3.55214537121355533599853515625">
        <ele>4.599999904632568359375</ele>
        <time>2026-05-10T10:56:00.000Z</time>
        <extensions>
          <ns3:TrackPointExtension>
            <ns3:atemp>17.0</ns3:atemp>
            <ns3:hr>85</ns3:hr>
          </ns3:TrackPointExtension>
        </extensions>
      </trkpt>
      <trkpt lat="48.79438555799424648284912109375" lon="-3.5521431080996990203857421875">
        <ele>4.400000095367431640625</ele>
        <time>2026-05-10T10:56:03.000Z</time>
        <extensions>
          <ns3:TrackPointExtension>
            <ns3:atemp>17.0</ns3:atemp>
            <ns3:hr>88</ns3:hr>
          </ns3:TrackPointExtension>
        </extensions>
      </trkpt>
      <trkpt lat="48.79438824020326137542724609375" lon="-3.55214034207165241241455078125">
        <ele>4.19999980926513671875</ele>
        <time>2026-05-10T10:56:09.000Z</time>
        <extensions>
          <ns3:TrackPointExtension>
            <ns3:atemp>17.0</ns3:atemp>
            <ns3:hr>89</ns3:hr>
          </ns3:TrackPointExtension>
        </extensions>
      </trkpt>
      <trkpt lat="48.79438958130776882171630859375" lon="-3.55214822106063365936279296875">
        <ele>5.19999980926513671875</ele>
        <time>2026-05-10T10:56:17.000Z</time>
        <extensions>
          <ns3:TrackPointExtension>
            <ns3:atemp>18.0</ns3:atemp>
            <ns3:hr>91</ns3:hr>
          </ns3:TrackPointExtension>
        </extensions>
      </trkpt>
      <trkpt lat="48.794381618499755859375" lon="-3.55217336677014827728271484375">
        <ele>5</ele>
        <time>2026-05-10T10:56:20.000Z</time>
        <extensions>
          <ns3:TrackPointExtension>
            <ns3:atemp>18.0</ns3:atemp>
            <ns3:hr>92</ns3:hr>
          </ns3:TrackPointExtension>
        </extensions>
      </trkpt>
      <trkpt lat="48.79436108283698558807373046875" lon="-3.55225115083158016204833984375">
        <ele>4.80000019073486328125</ele>
        <time>2026-05-10T10:56:25.000Z</time>
        <extensions>
          <ns3:TrackPointExtension>
            <ns3:atemp>18.0</ns3:atemp>
            <ns3:hr>92</ns3:hr>
          </ns3:TrackPointExtension>
        </extensions>
      </trkpt>
      <trkpt lat="48.79431950859725475311279296875" lon="-3.55231669731438159942626953125">
        <ele>5.19999980926513671875</ele>
        <time>2026-05-10T10:56:30.000Z</time>
        <extensions>
          <ns3:TrackPointExtension>
            <ns3:atemp>18.0</ns3:atemp>
            <ns3:hr>91</ns3:hr>
          </ns3:TrackPointExtension>
        </extensions>
      </trkpt>
      <trkpt lat="48.7943050079047679901123046875" lon="-3.5523449443280696868896484375">
        <ele>6</ele>
        <time>2026-05-10T10:56:32.000Z</time>
        <extensions>
          <ns3:TrackPointExtension>
            <ns3:atemp>18.0</ns3:atemp>
            <ns3:hr>91</ns3:hr>
          </ns3:TrackPointExtension>
        </extensions>
      </trkpt>
      <trkpt lat="48.7942751683294773101806640625" lon="-3.55240437202155590057373046875">
        <ele>6.400000095367431640625</ele>
        <time>2026-05-10T10:56:36.000Z</time>
        <extensions>
          <ns3:TrackPointExtension>
            <ns3:atemp>18.0</ns3:atemp>
            <ns3:hr>92</ns3:hr>
          </ns3:TrackPointExtension>
        </extensions>
      </trkpt>
      <trkpt lat="48.79424641840159893035888671875" lon="-3.55249640531837940216064453125">
        <ele>6.80000019073486328125</ele>
        <time>2026-05-10T10:56:42.000Z</time>
        <extensions>
          <ns3:TrackPointExtension>
            <ns3:atemp>18.0</ns3:atemp>
            <ns3:hr>93</ns3:hr>
          </ns3:TrackPointExtension>
        </extensions>
      </trkpt>
      <trkpt lat="48.79421976394951343536376953125" lon="-3.55260193347930908203125">
        <ele>5</ele>
        <time>2026-05-10T10:56:49.000Z</time>
        <extensions>
          <ns3:TrackPointExtension>
            <ns3:atemp>18.0</ns3:atemp>
            <ns3:hr>94</ns3:hr>
          </ns3:TrackPointExtension>
        </extensions>
      </trkpt>
      <trkpt lat="48.7942124716937541961669921875" lon="-3.552642166614532470703125">
        <ele>4.80000019073486328125</ele>
        <time>2026-05-10T10:56:51.000Z</time>
        <extensions>
          <ns3:TrackPointExtension>
            <ns3:atemp>18.0</ns3:atemp>
            <ns3:hr>94</ns3:hr>
          </ns3:TrackPointExtension>
        </extensions>
      </trkpt>
      <trkpt lat="48.79417014308273792266845703125" lon="-3.55275071226060390472412109375">
        <ele>6</ele>
        <time>2026-05-10T10:56:58.000Z</time>
        <extensions>
          <ns3:TrackPointExtension>
            <ns3:atemp>18.0</ns3:atemp>
            <ns3:hr>93</ns3:hr>
          </ns3:TrackPointExtension>
        </extensions>
      </trkpt>
      <trkpt lat="48.7941263057291507720947265625" lon="-3.5528726689517498016357421875">
        <ele>5.599999904632568359375</ele>
        <time>2026-05-10T10:57:06.000Z</time>
        <extensions>
          <ns3:TrackPointExtension>
            <ns3:atemp>18.0</ns3:atemp>
            <ns3:hr>92</ns3:hr>
          </ns3:TrackPointExtension>
        </extensions>
      </trkpt>
      <trkpt lat="48.794096969068050384521484375" lon="-3.55295120738446712493896484375">
        <ele>5.19999980926513671875</ele>
        <time>2026-05-10T10:57:12.000Z</time>
        <extensions>
          <ns3:TrackPointExtension>
            <ns3:atemp>18.0</ns3:atemp>
            <ns3:hr>92</ns3:hr>
          </ns3:TrackPointExtension>
        </extensions>
      </trkpt>
      <trkpt lat="48.79407651722431182861328125" lon="-3.553018681704998016357421875">
        <ele>5</ele>
        <time>2026-05-10T10:57:17.000Z</time>
        <extensions>
          <ns3:TrackPointExtension>
            <ns3:atemp>17.0</ns3:atemp>
            <ns3:hr>92</ns3:hr>
          </ns3:TrackPointExtension>
        </extensions>
      </trkpt>
      <trkpt lat="48.79404692910611629486083984375" lon="-3.55310962535440921783447265625">
        <ele>5.19999980926513671875</ele>
        <time>2026-05-10T10:57:23.000Z</time>
        <extensions>
          <ns3:TrackPointExtension>
            <ns3:atemp>17.0</ns3:atemp>
            <ns3:hr>91</ns3:hr>
          </ns3:TrackPointExtension>
        </extensions>
      </trkpt>
      <trkpt lat="48.79404307343065738677978515625" lon="-3.55319294147193431854248046875">
        <ele>5.599999904632568359375</ele>
        <time>2026-05-10T10:57:28.000Z</time>
        <extensions>
          <ns3:TrackPointExtension>
            <ns3:atemp>17.0</ns3:atemp>
            <ns3:hr>91</ns3:hr>
          </ns3:TrackPointExtension>
        </extensions>
      </trkpt>
      <trkpt lat="48.79402597434818744659423828125" lon="-3.5532672889530658721923828125">
        <ele>5.19999980926513671875</ele>
        <time>2026-05-10T10:57:33.000Z</time>
        <extensions>
          <ns3:TrackPointExtension>
            <ns3:atemp>17.0</ns3:atemp>
            <ns3:hr>91</ns3:hr>
          </ns3:TrackPointExtension>
        </extensions>
      </trkpt>
      <trkpt lat="48.794015832245349884033203125" lon="-3.55336837470531463623046875">
        <ele>5.400000095367431640625</ele>
        <time>2026-05-10T10:57:39.000Z</time>
        <extensions>
          <ns3:TrackPointExtension>
            <ns3:atemp>17.0</ns3:atemp>
            <ns3:hr>91</ns3:hr>
          </ns3:TrackPointExtension>
        </extensions>
      </trkpt>
      <trkpt lat="48.7940019182860851287841796875" lon="-3.55345831252634525299072265625">
        <ele>5.599999904632568359375</ele>
        <time>2026-05-10T10:57:45.000Z</time>
        <extensions>
          <ns3:TrackPointExtension>
            <ns3:atemp>17.0</ns3:atemp>
            <ns3:hr>90</ns3:hr>
          </ns3:TrackPointExtension>
        </extensions>
      </trkpt>
      <trkpt lat="48.7939888425171375274658203125" lon="-3.55358219705522060394287109375">
        <ele>5</ele>
        <time>2026-05-10T10:57:53.000Z</time>
        <extensions>
          <ns3:TrackPointExtension>
            <ns3:atemp>17.0</ns3:atemp>
            <ns3:hr>90</ns3:hr>
          </ns3:TrackPointExtension>
        </extensions>
      </trkpt>
      <trkpt lat="48.793985657393932342529296875" lon="-3.55359778739511966705322265625">
        <ele>5</ele>
        <time>2026-05-10T10:57:54.000Z</time>
        <extensions>
          <ns3:TrackPointExtension>
            <ns3:atemp>17.0</ns3:atemp>
            <ns3:hr>90</ns3:hr>
          </ns3:TrackPointExtension>
        </extensions>
      </trkpt>
      <trkpt lat="48.79397015087306499481201171875" lon="-3.55368764139711856842041015625">
        <ele>4.80000019073486328125</ele>
        <time>2026-05-10T10:58:00.000Z</time>
        <extensions>
          <ns3:TrackPointExtension>
            <ns3:atemp>17.0</ns3:atemp>
            <ns3:hr>90</ns3:hr>
          </ns3:TrackPointExtension>
        </extensions>
      </trkpt>
      <trkpt lat="48.793960176408290863037109375" lon="-3.553811609745025634765625">
        <ele>4.400000095367431640625</ele>
        <time>2026-05-10T10:58:08.000Z</time>
        <extensions>
          <ns3:TrackPointExtension>
            <ns3:atemp>17.0</ns3:atemp>
            <ns3:hr>89</ns3:hr>
          </ns3:TrackPointExtension>
        </extensions>
      </trkpt>
      <trkpt lat="48.79396252334117889404296875" lon="-3.55385251343250274658203125">
        <ele>4</ele>
        <time>2026-05-10T10:58:11.000Z</time>
        <extensions>
          <ns3:TrackPointExtension>
            <ns3:atemp>17.0</ns3:atemp>
            <ns3:hr>90</ns3:hr>
          </ns3:TrackPointExtension>
        </extensions>
      </trkpt>
      <trkpt lat="48.79395179450511932373046875" lon="-3.55388545431196689605712890625">
        <ele>4.400000095367431640625</ele>
        <time>2026-05-10T10:58:14.000Z</time>
        <extensions>
          <ns3:TrackPointExtension>
            <ns3:atemp>17.0</ns3:atemp>
            <ns3:hr>89</ns3:hr>
          </ns3:TrackPointExtension>
        </extensions>
      </trkpt>
      <trkpt lat="48.7939445860683917999267578125" lon="-3.55389819480478763580322265625">
        <ele>4.400000095367431640625</ele>
        <time>2026-05-10T10:58:15.000Z</time>
        <extensions>
          <ns3:TrackPointExtension>
            <ns3:atemp>17.0</ns3:atemp>
            <ns3:hr>89</ns3:hr>
          </ns3:TrackPointExtension>
        </extensions>
      </trkpt>
      <trkpt lat="48.79393628798425197601318359375" lon="-3.55395418591797351837158203125">
        <ele>4.599999904632568359375</ele>
        <time>2026-05-10T10:58:20.000Z</time>
        <extensions>
          <ns3:TrackPointExtension>
            <ns3:atemp>17.0</ns3:atemp>
            <ns3:hr>90</ns3:hr>
          </ns3:TrackPointExtension>
        </extensions>
      </trkpt>
      <trkpt lat="48.79392975009977817535400390625" lon="-3.55401135049760341644287109375">
        <ele>5</ele>
        <time>2026-05-10T10:58:24.000Z</time>
        <extensions>
          <ns3:TrackPointExtension>
            <ns3:atemp>17.0</ns3:atemp>
            <ns3:hr>91</ns3:hr>
          </ns3:TrackPointExtension>
        </extensions>
      </trkpt>
      <trkpt lat="48.79392203874886035919189453125" lon="-3.554069437086582183837890625">
        <ele>5.80000019073486328125</ele>
        <time>2026-05-10T10:58:28.000Z</time>
        <extensions>
          <ns3:TrackPointExtension>
            <ns3:atemp>17.0</ns3:atemp>
            <ns3:hr>93</ns3:hr>
          </ns3:TrackPointExtension>
        </extensions>
      </trkpt>
      <trkpt lat="48.79393025301396846771240234375" lon="-3.554117046296596527099609375">
        <ele>5.19999980926513671875</ele>
        <time>2026-05-10T10:58:31.000Z</time>
        <extensions>
          <ns3:TrackPointExtension>
            <ns3:atemp>17.0</ns3:atemp>
            <ns3:hr>96</ns3:hr>
          </ns3:TrackPointExtension>
        </extensions>
      </trkpt>
      <trkpt lat="48.79393964074552059173583984375" lon="-3.55418200604617595672607421875">
        <ele>5</ele>
        <time>2026-05-10T10:58:35.000Z</time>
        <extensions>
          <ns3:TrackPointExtension>
            <ns3:atemp>17.0</ns3:atemp>
            <ns3:hr>97</ns3:hr>
          </ns3:TrackPointExtension>
        </extensions>
      </trkpt>
      <trkpt lat="48.79393025301396846771240234375" lon="-3.55427563190460205078125">
        <ele>5</ele>
        <time>2026-05-10T10:58:41.000Z</time>
        <extensions>
          <ns3:TrackPointExtension>
            <ns3:atemp>17.0</ns3:atemp>
            <ns3:hr>97</ns3:hr>
          </ns3:TrackPointExtension>
        </extensions>
      </trkpt>
      <trkpt lat="48.79391063936054706573486328125" lon="-3.554353415966033935546875">
        <ele>4.80000019073486328125</ele>
        <time>2026-05-10T10:58:47.000Z</time>
        <extensions>
          <ns3:TrackPointExtension>
            <ns3:atemp>17.0</ns3:atemp>
            <ns3:hr>100</ns3:hr>
          </ns3:TrackPointExtension>
        </extensions>
      </trkpt>
      <trkpt lat="48.79390426911413669586181640625" lon="-3.55436909012496471405029296875">
        <ele>4.80000019073486328125</ele>
        <time>2026-05-10T10:58:48.000Z</time>
        <extensions>
          <ns3:TrackPointExtension>
            <ns3:atemp>17.0</ns3:atemp>
            <ns3:hr>100</ns3:hr>
          </ns3:TrackPointExtension>
        </extensions>
      </trkpt>
      <trkpt lat="48.793880380690097808837890625" lon="-3.55445223860442638397216796875">
        <ele>5</ele>
        <time>2026-05-10T10:58:54.000Z</time>
        <extensions>
          <ns3:TrackPointExtension>
            <ns3:atemp>17.0</ns3:atemp>
            <ns3:hr>100</ns3:hr>
          </ns3:TrackPointExtension>
        </extensions>
      </trkpt>
      <trkpt lat="48.7938171811401844024658203125" lon="-3.5545208863914012908935546875">
        <ele>5.599999904632568359375</ele>
        <time>2026-05-10T10:59:01.000Z</time>
        <extensions>
          <ns3:TrackPointExtension>
            <ns3:atemp>17.0</ns3:atemp>
            <ns3:hr>99</ns3:hr>
          </ns3:TrackPointExtension>
        </extensions>
      </trkpt>
      <trkpt lat="48.79377686418592929840087890625" lon="-3.5545701719820499420166015625">
        <ele>5.400000095367431640625</ele>
        <time>2026-05-10T10:59:07.000Z</time>
        <extensions>
          <ns3:TrackPointExtension>
            <ns3:atemp>17.0</ns3:atemp>
            <ns3:hr>100</ns3:hr>
          </ns3:TrackPointExtension>
        </extensions>
      </trkpt>
      <trkpt lat="48.79376864992082118988037109375" lon="-3.5545666515827178955078125">
        <ele>5.19999980926513671875</ele>
        <time>2026-05-10T10:59:08.000Z</time>
        <extensions>
          <ns3:TrackPointExtension>
            <ns3:atemp>17.0</ns3:atemp>
            <ns3:hr>100</ns3:hr>
          </ns3:TrackPointExtension>
        </extensions>
      </trkpt>
      <trkpt lat="48.79373411647975444793701171875" lon="-3.5545612871646881103515625">
        <ele>3.7999999523162841796875</ele>
        <time>2026-05-10T10:59:11.000Z</time>
        <extensions>
          <ns3:TrackPointExtension>
            <ns3:atemp>17.0</ns3:atemp>
            <ns3:hr>100</ns3:hr>
          </ns3:TrackPointExtension>
        </extensions>
      </trkpt>
      <trkpt lat="48.79372288472950458526611328125" lon="-3.55456531047821044921875">
        <ele>3.599999904632568359375</ele>
        <time>2026-05-10T10:59:12.000Z</time>
        <extensions>
          <ns3:TrackPointExtension>
            <ns3:atemp>17.0</ns3:atemp>
            <ns3:hr>99</ns3:hr>
          </ns3:TrackPointExtension>
        </extensions>
      </trkpt>
      <trkpt lat="48.79366345703601837158203125" lon="-3.554606549441814422607421875">
        <ele>3.7999999523162841796875</ele>
        <time>2026-05-10T10:59:18.000Z</time>
        <extensions>
          <ns3:TrackPointExtension>
            <ns3:atemp>17.0</ns3:atemp>
            <ns3:hr>98</ns3:hr>
          </ns3:TrackPointExtension>
        </extensions>
      </trkpt>
      <trkpt lat="48.79362045787274837493896484375" lon="-3.55464016087353229522705078125">
        <ele>4.19999980926513671875</ele>
        <time>2026-05-10T10:59:23.000Z</time>
        <extensions>
          <ns3:TrackPointExtension>
            <ns3:atemp>17.0</ns3:atemp>
            <ns3:hr>97</ns3:hr>
          </ns3:TrackPointExtension>
        </extensions>
      </trkpt>
      <trkpt lat="48.79361039958894252777099609375" lon="-3.55465692467987537384033203125">
        <ele>4.19999980926513671875</ele>
        <time>2026-05-10T10:59:24.000Z</time>
        <extensions>
          <ns3:TrackPointExtension>
            <ns3:atemp>17.0</ns3:atemp>
            <ns3:hr>97</ns3:hr>
          </ns3:TrackPointExtension>
        </extensions>
      </trkpt>
      <trkpt lat="48.793571926653385162353515625" lon="-3.5547321103513240814208984375">
        <ele>4</ele>
        <time>2026-05-10T10:59:29.000Z</time>
        <extensions>
          <ns3:TrackPointExtension>
            <ns3:atemp>17.0</ns3:atemp>
            <ns3:hr>97</ns3:hr>
          </ns3:TrackPointExtension>
        </extensions>
      </trkpt>
      <trkpt lat="48.79353144206106662750244140625" lon="-3.55479790829122066497802734375">
        <ele>4.19999980926513671875</ele>
        <time>2026-05-10T10:59:35.000Z</time>
        <extensions>
          <ns3:TrackPointExtension>
            <ns3:atemp>17.0</ns3:atemp>
            <ns3:hr>97</ns3:hr>
          </ns3:TrackPointExtension>
        </extensions>
      </trkpt>
      <trkpt lat="48.79349506460130214691162109375" lon="-3.55484358966350555419921875">
        <ele>4.19999980926513671875</ele>
        <time>2026-05-10T10:59:40.000Z</time>
        <extensions>
          <ns3:TrackPointExtension>
            <ns3:atemp>17.0</ns3:atemp>
            <ns3:hr>96</ns3:hr>
          </ns3:TrackPointExtension>
        </extensions>
      </trkpt>
      <trkpt lat="48.7934534065425395965576171875" lon="-3.5548823140561580657958984375">
        <ele>4.19999980926513671875</ele>
        <time>2026-05-10T10:59:45.000Z</time>
        <extensions>
          <ns3:TrackPointExtension>
            <ns3:atemp>17.0</ns3:atemp>
            <ns3:hr>95</ns3:hr>
          </ns3:TrackPointExtension>
        </extensions>
      </trkpt>
      <trkpt lat="48.79340990446507930755615234375" lon="-3.55493369512259960174560546875">
        <ele>4.599999904632568359375</ele>
        <time>2026-05-10T10:59:50.000Z</time>
        <extensions>
          <ns3:TrackPointExtension>
            <ns3:atemp>17.0</ns3:atemp>
            <ns3:hr>94</ns3:hr>
          </ns3:TrackPointExtension>
        </extensions>
      </trkpt>
      <trkpt lat="48.7933682464063167572021484375" lon="-3.55497342534363269805908203125">
        <ele>4.599999904632568359375</ele>
        <time>2026-05-10T10:59:55.000Z</time>
        <extensions>
          <ns3:TrackPointExtension>
            <ns3:atemp>17.0</ns3:atemp>
            <ns3:hr>92</ns3:hr>
          </ns3:TrackPointExtension>
        </extensions>
      </trkpt>
      <trkpt lat="48.79333899356424808502197265625" lon="-3.5550325177609920501708984375">
        <ele>4.19999980926513671875</ele>
        <time>2026-05-10T10:59:59.000Z</time>
        <extensions>
          <ns3:TrackPointExtension>
            <ns3:atemp>17.0</ns3:atemp>
            <ns3:hr>91</ns3:hr>
          </ns3:TrackPointExtension>
        </extensions>
      </trkpt>
      <trkpt lat="48.79330295138061046600341796875" lon="-3.55507819913327693939208984375">
        <ele>4.19999980926513671875</ele>
        <time>2026-05-10T11:00:04.000Z</time>
        <extensions>
          <ns3:TrackPointExtension>
            <ns3:atemp>17.0</ns3:atemp>
            <ns3:hr>92</ns3:hr>
          </ns3:TrackPointExtension>
        </extensions>
      </trkpt>
      <trkpt lat="48.7932596169412136077880859375" lon="-3.55511005036532878875732421875">
        <ele>4.19999980926513671875</ele>
        <time>2026-05-10T11:00:09.000Z</time>
        <extensions>
          <ns3:TrackPointExtension>
            <ns3:atemp>17.0</ns3:atemp>
            <ns3:hr>93</ns3:hr>
          </ns3:TrackPointExtension>
        </extensions>
      </trkpt>
      <trkpt lat="48.79320840351283550262451171875" lon="-3.55512631125748157501220703125">
        <ele>4</ele>
        <time>2026-05-10T11:00:14.000Z</time>
        <extensions>
          <ns3:TrackPointExtension>
            <ns3:atemp>17.0</ns3:atemp>
            <ns3:hr>93</ns3:hr>
          </ns3:TrackPointExtension>
        </extensions>
      </trkpt>
      <trkpt lat="48.79315794445574283599853515625" lon="-3.55510183610022068023681640625">
        <ele>4</ele>
        <time>2026-05-10T11:00:19.000Z</time>
        <extensions>
          <ns3:TrackPointExtension>
            <ns3:atemp>17.0</ns3:atemp>
            <ns3:hr>94</ns3:hr>
          </ns3:TrackPointExtension>
        </extensions>
      </trkpt>
      <trkpt lat="48.79309155978262424468994140625" lon="-3.55510284192860126495361328125">
        <ele>4.400000095367431640625</ele>
        <time>2026-05-10T11:00:26.000Z</time>
        <extensions>
          <ns3:TrackPointExtension>
            <ns3:atemp>17.0</ns3:atemp>
            <ns3:hr>94</ns3:hr>
          </ns3:TrackPointExtension>
        </extensions>
      </trkpt>
      <trkpt lat="48.7930671684443950653076171875" lon="-3.5551284067332744598388671875">
        <ele>4.19999980926513671875</ele>
        <time>2026-05-10T11:00:29.000Z</time>
        <extensions>
          <ns3:TrackPointExtension>
            <ns3:atemp>17.0</ns3:atemp>
            <ns3:hr>94</ns3:hr>
          </ns3:TrackPointExtension>
        </extensions>
      </trkpt>
      <trkpt lat="48.7930579483509063720703125" lon="-3.555132932960987091064453125">
        <ele>4.19999980926513671875</ele>
        <time>2026-05-10T11:00:30.000Z</time>
        <extensions>
          <ns3:TrackPointExtension>
            <ns3:atemp>17.0</ns3:atemp>
            <ns3:hr>94</ns3:hr>
          </ns3:TrackPointExtension>
        </extensions>
      </trkpt>
      <trkpt lat="48.793002627789974212646484375" lon="-3.5551994852721691131591796875">
        <ele>4.19999980926513671875</ele>
        <time>2026-05-10T11:00:37.000Z</time>
        <extensions>
          <ns3:TrackPointExtension>
            <ns3:atemp>17.0</ns3:atemp>
            <ns3:hr>94</ns3:hr>
          </ns3:TrackPointExtension>
        </extensions>
      </trkpt>
      <trkpt lat="48.79296616651117801666259765625" lon="-3.5552310012280941009521484375">
        <ele>3.7999999523162841796875</ele>
        <time>2026-05-10T11:00:43.000Z</time>
        <extensions>
          <ns3:TrackPointExtension>
            <ns3:atemp>17.0</ns3:atemp>
            <ns3:hr>94</ns3:hr>
          </ns3:TrackPointExtension>
        </extensions>
      </trkpt>
      <trkpt lat="48.792945630848407745361328125" lon="-3.55523359961807727813720703125">
        <ele>3.599999904632568359375</ele>
        <time>2026-05-10T11:00:49.000Z</time>
        <extensions>
          <ns3:TrackPointExtension>
            <ns3:atemp>17.0</ns3:atemp>
            <ns3:hr>92</ns3:hr>
          </ns3:TrackPointExtension>
        </extensions>
      </trkpt>
      <trkpt lat="48.792945630848407745361328125" lon="-3.55523359961807727813720703125">
        <ele>3.400000095367431640625</ele>
        <time>2026-05-10T11:00:56.000Z</time>
        <extensions>
          <ns3:TrackPointExtension>
            <ns3:atemp>17.0</ns3:atemp>
            <ns3:hr>90</ns3:hr>
          </ns3:TrackPointExtension>
        </extensions>
      </trkpt>
      <trkpt lat="48.79294739104807376861572265625" lon="-3.55523125268518924713134765625">
        <ele>3.400000095367431640625</ele>
        <time>2026-05-10T11:01:08.000Z</time>
        <extensions>
          <ns3:TrackPointExtension>
            <ns3:atemp>17.0</ns3:atemp>
            <ns3:hr>90</ns3:hr>
          </ns3:TrackPointExtension>
        </extensions>
      </trkpt>
      <trkpt lat="48.792945630848407745361328125" lon="-3.55523359961807727813720703125">
        <ele>3.400000095367431640625</ele>
        <time>2026-05-10T11:01:15.000Z</time>
        <extensions>
          <ns3:TrackPointExtension>
            <ns3:atemp>17.0</ns3:atemp>
            <ns3:hr>90</ns3:hr>
          </ns3:TrackPointExtension>
        </extensions>
      </trkpt>
      <trkpt lat="48.792945630848407745361328125" lon="-3.55523359961807727813720703125">
        <ele>3.2000000476837158203125</ele>
        <time>2026-05-10T11:01:20.000Z</time>
        <extensions>
          <ns3:TrackPointExtension>
            <ns3:atemp>17.0</ns3:atemp>
            <ns3:hr>89</ns3:hr>
          </ns3:TrackPointExtension>
        </extensions>
      </trkpt>
      <trkpt lat="48.792945630848407745361328125" lon="-3.55523359961807727813720703125">
        <ele>2.7999999523162841796875</ele>
        <time>2026-05-10T11:01:24.000Z</time>
        <extensions>
          <ns3:TrackPointExtension>
            <ns3:atemp>17.0</ns3:atemp>
            <ns3:hr>89</ns3:hr>
          </ns3:TrackPointExtension>
        </extensions>
      </trkpt>
      <trkpt lat="48.792945630848407745361328125" lon="-3.55523359961807727813720703125">
        <ele>3.2000000476837158203125</ele>
        <time>2026-05-10T11:01:33.000Z</time>
        <extensions>
          <ns3:TrackPointExtension>
            <ns3:atemp>17.0</ns3:atemp>
            <ns3:hr>89</ns3:hr>
          </ns3:TrackPointExtension>
        </extensions>
      </trkpt>
      <trkpt lat="48.792945630848407745361328125" lon="-3.55523359961807727813720703125">
        <ele>3.400000095367431640625</ele>
        <time>2026-05-10T11:01:46.000Z</time>
        <extensions>
          <ns3:TrackPointExtension>
            <ns3:atemp>17.0</ns3:atemp>
            <ns3:hr>91</ns3:hr>
          </ns3:TrackPointExtension>
        </extensions>
      </trkpt>
      <trkpt lat="48.792945630848407745361328125" lon="-3.55523359961807727813720703125">
        <ele>3.2000000476837158203125</ele>
        <time>2026-05-10T11:02:04.000Z</time>
        <extensions>
          <ns3:TrackPointExtension>
            <ns3:atemp>17.0</ns3:atemp>
            <ns3:hr>92</ns3:hr>
          </ns3:TrackPointExtension>
        </extensions>
      </trkpt>
      <trkpt lat="48.792945630848407745361328125" lon="-3.55523359961807727813720703125">
        <ele>3.400000095367431640625</ele>
        <time>2026-05-10T11:02:10.000Z</time>
        <extensions>
          <ns3:TrackPointExtension>
            <ns3:atemp>17.0</ns3:atemp>
            <ns3:hr>95</ns3:hr>
          </ns3:TrackPointExtension>
        </extensions>
      </trkpt>
      <trkpt lat="48.792945630848407745361328125" lon="-3.55523359961807727813720703125">
        <ele>3.400000095367431640625</ele>
        <time>2026-05-10T11:02:15.000Z</time>
        <extensions>
          <ns3:TrackPointExtension>
            <ns3:atemp>18.0</ns3:atemp>
            <ns3:hr>95</ns3:hr>
          </ns3:TrackPointExtension>
        </extensions>
      </trkpt>
      <trkpt lat="48.792945630848407745361328125" lon="-3.55523359961807727813720703125">
        <ele>3.599999904632568359375</ele>
        <time>2026-05-10T11:02:29.000Z</time>
        <extensions>
          <ns3:TrackPointExtension>
            <ns3:atemp>18.0</ns3:atemp>
            <ns3:hr>97</ns3:hr>
          </ns3:TrackPointExtension>
        </extensions>
      </trkpt>
      <trkpt lat="48.7929280288517475128173828125" lon="-3.555221445858478546142578125">
        <ele>3.599999904632568359375</ele>
        <time>2026-05-10T11:02:46.000Z</time>
        <extensions>
          <ns3:TrackPointExtension>
            <ns3:atemp>18.0</ns3:atemp>
            <ns3:hr>95</ns3:hr>
          </ns3:TrackPointExtension>
        </extensions>
      </trkpt>
      <trkpt lat="48.7928834371268749237060546875" lon="-3.555206358432769775390625">
        <ele>3.599999904632568359375</ele>
        <time>2026-05-10T11:02:51.000Z</time>
        <extensions>
          <ns3:TrackPointExtension>
            <ns3:atemp>18.0</ns3:atemp>
            <ns3:hr>92</ns3:hr>
          </ns3:TrackPointExtension>
        </extensions>
      </trkpt>
      <trkpt lat="48.7928592972457408905029296875" lon="-3.5552139021456241607666015625">
        <ele>3.599999904632568359375</ele>
        <time>2026-05-10T11:02:54.000Z</time>
        <extensions>
          <ns3:TrackPointExtension>
            <ns3:atemp>18.0</ns3:atemp>
            <ns3:hr>92</ns3:hr>
          </ns3:TrackPointExtension>
        </extensions>
      </trkpt>
      <trkpt lat="48.792841695249080657958984375" lon="-3.55522505007684230804443359375">
        <ele>3.400000095367431640625</ele>
        <time>2026-05-10T11:02:59.000Z</time>
        <extensions>
          <ns3:TrackPointExtension>
            <ns3:atemp>18.0</ns3:atemp>
            <ns3:hr>92</ns3:hr>
          </ns3:TrackPointExtension>
        </extensions>
      </trkpt>
      <trkpt lat="48.79277371801435947418212890625" lon="-3.55523175559937953948974609375">
        <ele>3</ele>
        <time>2026-05-10T11:03:06.000Z</time>
        <extensions>
          <ns3:TrackPointExtension>
            <ns3:atemp>18.0</ns3:atemp>
            <ns3:hr>92</ns3:hr>
          </ns3:TrackPointExtension>
        </extensions>
      </trkpt>
      <trkpt lat="48.7927763164043426513671875" lon="-3.55526997707784175872802734375">
        <ele>3.2000000476837158203125</ele>
        <time>2026-05-10T11:03:10.000Z</time>
        <extensions>
          <ns3:TrackPointExtension>
            <ns3:atemp>18.0</ns3:atemp>
            <ns3:hr>92</ns3:hr>
          </ns3:TrackPointExtension>
        </extensions>
      </trkpt>
      <trkpt lat="48.79279366694390773773193359375" lon="-3.5552980564534664154052734375">
        <ele>2.7999999523162841796875</ele>
        <time>2026-05-10T11:03:15.000Z</time>
        <extensions>
          <ns3:TrackPointExtension>
            <ns3:atemp>19.0</ns3:atemp>
            <ns3:hr>91</ns3:hr>
          </ns3:TrackPointExtension>
        </extensions>
      </trkpt>
      <trkpt lat="48.79279551096260547637939453125" lon="-3.55529696680605411529541015625">
        <ele>2.7999999523162841796875</ele>
        <time>2026-05-10T11:03:16.000Z</time>
        <extensions>
          <ns3:TrackPointExtension>
            <ns3:atemp>19.0</ns3:atemp>
            <ns3:hr>92</ns3:hr>
          </ns3:TrackPointExtension>
        </extensions>
      </trkpt>
      <trkpt lat="48.79279911518096923828125" lon="-3.55529126711189746856689453125">
        <ele>2.599999904632568359375</ele>
        <time>2026-05-10T11:03:26.000Z</time>
        <extensions>
          <ns3:TrackPointExtension>
            <ns3:atemp>19.0</ns3:atemp>
            <ns3:hr>92</ns3:hr>
          </ns3:TrackPointExtension>
        </extensions>
      </trkpt>
      <trkpt lat="48.79280020482838153839111328125" lon="-3.55529579333961009979248046875">
        <ele>2.2000000476837158203125</ele>
        <time>2026-05-10T11:03:36.000Z</time>
        <extensions>
          <ns3:TrackPointExtension>
            <ns3:atemp>19.0</ns3:atemp>
            <ns3:hr>91</ns3:hr>
          </ns3:TrackPointExtension>
        </extensions>
      </trkpt>
      <trkpt lat="48.7928004562854766845703125" lon="-3.55530115775763988494873046875">
        <ele>2.599999904632568359375</ele>
        <time>2026-05-10T11:03:46.000Z</time>
        <extensions>
          <ns3:TrackPointExtension>
            <ns3:atemp>19.0</ns3:atemp>
            <ns3:hr>94</ns3:hr>
          </ns3:TrackPointExtension>
        </extensions>
      </trkpt>
      <trkpt lat="48.79280087538063526153564453125" lon="-3.55530836619436740875244140625">
        <ele>3</ele>
        <time>2026-05-10T11:03:48.000Z</time>
        <extensions>
          <ns3:TrackPointExtension>
            <ns3:atemp>19.0</ns3:atemp>
            <ns3:hr>94</ns3:hr>
          </ns3:TrackPointExtension>
        </extensions>
      </trkpt>
      <trkpt lat="48.79279970191419124603271484375" lon="-3.55531523935496807098388671875">
        <ele>2.599999904632568359375</ele>
        <time>2026-05-10T11:03:56.000Z</time>
        <extensions>
          <ns3:TrackPointExtension>
            <ns3:atemp>19.0</ns3:atemp>
            <ns3:hr>97</ns3:hr>
          </ns3:TrackPointExtension>
        </extensions>
      </trkpt>
      <trkpt lat="48.79279970191419124603271484375" lon="-3.55531523935496807098388671875">
        <ele>2.7999999523162841796875</ele>
        <time>2026-05-10T11:03:57.000Z</time>
        <extensions>
          <ns3:TrackPointExtension>
            <ns3:atemp>19.0</ns3:atemp>
            <ns3:hr>100</ns3:hr>
          </ns3:TrackPointExtension>
        </extensions>
      </trkpt>
      <trkpt lat="48.79279970191419124603271484375" lon="-3.55531523935496807098388671875">
        <ele>2.7999999523162841796875</ele>
        <time>2026-05-10T11:03:58.000Z</time>
        <extensions>
          <ns3:TrackPointExtension>
            <ns3:atemp>19.0</ns3:atemp>
            <ns3:hr>102</ns3:hr>
          </ns3:TrackPointExtension>
        </extensions>
      </trkpt>
      <trkpt lat="48.79279132001101970672607421875" lon="-3.555307947099208831787109375">
        <ele>3</ele>
        <time>2026-05-10T11:04:06.000Z</time>
        <extensions>
          <ns3:TrackPointExtension>
            <ns3:atemp>19.0</ns3:atemp>
            <ns3:hr>103</ns3:hr>
          </ns3:TrackPointExtension>
        </extensions>
      </trkpt>
      <trkpt lat="48.79276491701602935791015625" lon="-3.55527735315263271331787109375">
        <ele>3</ele>
        <time>2026-05-10T11:04:10.000Z</time>
        <extensions>
          <ns3:TrackPointExtension>
            <ns3:atemp>19.0</ns3:atemp>
            <ns3:hr>103</ns3:hr>
          </ns3:TrackPointExtension>
        </extensions>
      </trkpt>
      <trkpt lat="48.7927248515188694000244140625" lon="-3.55523142032325267791748046875">
        <ele>2.7999999523162841796875</ele>
        <time>2026-05-10T11:04:15.000Z</time>
        <extensions>
          <ns3:TrackPointExtension>
            <ns3:atemp>19.0</ns3:atemp>
            <ns3:hr>104</ns3:hr>
          </ns3:TrackPointExtension>
        </extensions>
      </trkpt>
      <trkpt lat="48.79271940328180789947509765625" lon="-3.5552283190190792083740234375">
        <ele>3</ele>
        <time>2026-05-10T11:04:16.000Z</time>
        <extensions>
          <ns3:TrackPointExtension>
            <ns3:atemp>19.0</ns3:atemp>
            <ns3:hr>104</ns3:hr>
          </ns3:TrackPointExtension>
        </extensions>
      </trkpt>
      <trkpt lat="48.79267833195626735687255859375" lon="-3.55521717108786106109619140625">
        <ele>3.7999999523162841796875</ele>
        <time>2026-05-10T11:04:23.000Z</time>
        <extensions>
          <ns3:TrackPointExtension>
            <ns3:atemp>19.0</ns3:atemp>
            <ns3:hr>105</ns3:hr>
          </ns3:TrackPointExtension>
        </extensions>
      </trkpt>
      <trkpt lat="48.79263927228748798370361328125" lon="-3.55518934316933155059814453125">
        <ele>3.599999904632568359375</ele>
        <time>2026-05-10T11:04:29.000Z</time>
        <extensions>
          <ns3:TrackPointExtension>
            <ns3:atemp>19.0</ns3:atemp>
            <ns3:hr>106</ns3:hr>
          </ns3:TrackPointExtension>
        </extensions>
      </trkpt>
      <trkpt lat="48.79263089038431644439697265625" lon="-3.55520158074796199798583984375">
        <ele>3.400000095367431640625</ele>
        <time>2026-05-10T11:04:35.000Z</time>
        <extensions>
          <ns3:TrackPointExtension>
            <ns3:atemp>19.0</ns3:atemp>
            <ns3:hr>106</ns3:hr>
          </ns3:TrackPointExtension>
        </extensions>
      </trkpt>
      <trkpt lat="48.79261814989149570465087890625" lon="-3.5551790334284305572509765625">
        <ele>3.2000000476837158203125</ele>
        <time>2026-05-10T11:04:42.000Z</time>
        <extensions>
          <ns3:TrackPointExtension>
            <ns3:atemp>19.0</ns3:atemp>
            <ns3:hr>103</ns3:hr>
          </ns3:TrackPointExtension>
        </extensions>
      </trkpt>
      <trkpt lat="48.79260272718966007232666015625" lon="-3.55516143143177032470703125">
        <ele>3.2000000476837158203125</ele>
        <time>2026-05-10T11:04:44.000Z</time>
        <extensions>
          <ns3:TrackPointExtension>
            <ns3:atemp>19.0</ns3:atemp>
            <ns3:hr>103</ns3:hr>
          </ns3:TrackPointExtension>
        </extensions>
      </trkpt>
      <trkpt lat="48.79254422150552272796630859375" lon="-3.5551019199192523956298828125">
        <ele>3.2000000476837158203125</ele>
        <time>2026-05-10T11:04:50.000Z</time>
        <extensions>
          <ns3:TrackPointExtension>
            <ns3:atemp>19.0</ns3:atemp>
            <ns3:hr>102</ns3:hr>
          </ns3:TrackPointExtension>
        </extensions>
      </trkpt>
      <trkpt lat="48.79251237027347087860107421875" lon="-3.5550482757389545440673828125">
        <ele>4</ele>
        <time>2026-05-10T11:04:55.000Z</time>
        <extensions>
          <ns3:TrackPointExtension>
            <ns3:atemp>19.0</ns3:atemp>
            <ns3:hr>103</ns3:hr>
          </ns3:TrackPointExtension>
        </extensions>
      </trkpt>
      <trkpt lat="48.79250046797096729278564453125" lon="-3.555034361779689788818359375">
        <ele>4</ele>
        <time>2026-05-10T11:04:57.000Z</time>
        <extensions>
          <ns3:TrackPointExtension>
            <ns3:atemp>19.0</ns3:atemp>
            <ns3:hr>104</ns3:hr>
          </ns3:TrackPointExtension>
        </extensions>
      </trkpt>
      <trkpt lat="48.7924603186547756195068359375" lon="-3.55499907396733760833740234375">
        <ele>3.599999904632568359375</ele>
        <time>2026-05-10T11:05:02.000Z</time>
        <extensions>
          <ns3:TrackPointExtension>
            <ns3:atemp>19.0</ns3:atemp>
            <ns3:hr>104</ns3:hr>
          </ns3:TrackPointExtension>
        </extensions>
      </trkpt>
      <trkpt lat="48.7923999689519405364990234375" lon="-3.5549688152968883514404296875">
        <ele>4.80000019073486328125</ele>
        <time>2026-05-10T11:05:10.000Z</time>
        <extensions>
          <ns3:TrackPointExtension>
            <ns3:atemp>19.0</ns3:atemp>
            <ns3:hr>104</ns3:hr>
          </ns3:TrackPointExtension>
        </extensions>
      </trkpt>
      <trkpt lat="48.7923054210841655731201171875" lon="-3.5549057833850383758544921875">
        <ele>4</ele>
        <time>2026-05-10T11:05:19.000Z</time>
        <extensions>
          <ns3:TrackPointExtension>
            <ns3:atemp>19.0</ns3:atemp>
            <ns3:hr>104</ns3:hr>
          </ns3:TrackPointExtension>
        </extensions>
      </trkpt>
      <trkpt lat="48.792226128280162811279296875" lon="-3.55482875369489192962646484375">
        <ele>3.7999999523162841796875</ele>
        <time>2026-05-10T11:05:28.000Z</time>
        <extensions>
          <ns3:TrackPointExtension>
            <ns3:atemp>19.0</ns3:atemp>
            <ns3:hr>103</ns3:hr>
          </ns3:TrackPointExtension>
        </extensions>
      </trkpt>
      <trkpt lat="48.79216007888317108154296875" lon="-3.55476270429790019989013671875">
        <ele>3.7999999523162841796875</ele>
        <time>2026-05-10T11:05:34.000Z</time>
        <extensions>
          <ns3:TrackPointExtension>
            <ns3:atemp>19.0</ns3:atemp>
            <ns3:hr>103</ns3:hr>
          </ns3:TrackPointExtension>
        </extensions>
      </trkpt>
      <trkpt lat="48.792096711695194244384765625" lon="-3.55467720888555049896240234375">
        <ele>4.400000095367431640625</ele>
        <time>2026-05-10T11:05:41.000Z</time>
        <extensions>
          <ns3:TrackPointExtension>
            <ns3:atemp>19.0</ns3:atemp>
            <ns3:hr>104</ns3:hr>
          </ns3:TrackPointExtension>
        </extensions>
      </trkpt>
      <trkpt lat="48.79201297648251056671142578125" lon="-3.55457679368555545806884765625">
        <ele>4.400000095367431640625</ele>
        <time>2026-05-10T11:05:50.000Z</time>
        <extensions>
          <ns3:TrackPointExtension>
            <ns3:atemp>19.0</ns3:atemp>
            <ns3:hr>102</ns3:hr>
          </ns3:TrackPointExtension>
        </extensions>
      </trkpt>
      <trkpt lat="48.79195983521640300750732421875" lon="-3.5545218922197818756103515625">
        <ele>4.400000095367431640625</ele>
        <time>2026-05-10T11:05:56.000Z</time>
        <extensions>
          <ns3:TrackPointExtension>
            <ns3:atemp>19.0</ns3:atemp>
            <ns3:hr>102</ns3:hr>
          </ns3:TrackPointExtension>
        </extensions>
      </trkpt>
      <trkpt lat="48.7918943725526332855224609375" lon="-3.55444067157804965972900390625">
        <ele>4.400000095367431640625</ele>
        <time>2026-05-10T11:06:03.000Z</time>
        <extensions>
          <ns3:TrackPointExtension>
            <ns3:atemp>19.0</ns3:atemp>
            <ns3:hr>100</ns3:hr>
          </ns3:TrackPointExtension>
        </extensions>
      </trkpt>
      <trkpt lat="48.79188557155430316925048828125" lon="-3.5544467903673648834228515625">
        <ele>4.19999980926513671875</ele>
        <time>2026-05-10T11:06:07.000Z</time>
        <extensions>
          <ns3:TrackPointExtension>
            <ns3:atemp>19.0</ns3:atemp>
            <ns3:hr>100</ns3:hr>
          </ns3:TrackPointExtension>
        </extensions>
      </trkpt>
      <trkpt lat="48.79187400452792644500732421875" lon="-3.5544370673596858978271484375">
        <ele>4</ele>
        <time>2026-05-10T11:06:09.000Z</time>
        <extensions>
          <ns3:TrackPointExtension>
            <ns3:atemp>19.0</ns3:atemp>
            <ns3:hr>99</ns3:hr>
          </ns3:TrackPointExtension>
        </extensions>
      </trkpt>
      <trkpt lat="48.79180896095931529998779296875" lon="-3.55438132770359516143798828125">
        <ele>4.80000019073486328125</ele>
        <time>2026-05-10T11:06:15.000Z</time>
        <extensions>
          <ns3:TrackPointExtension>
            <ns3:atemp>19.0</ns3:atemp>
            <ns3:hr>100</ns3:hr>
          </ns3:TrackPointExtension>
        </extensions>
      </trkpt>
      <trkpt lat="48.7917569093406200408935546875" lon="-3.55431008152663707733154296875">
        <ele>4.599999904632568359375</ele>
        <time>2026-05-10T11:06:22.000Z</time>
        <extensions>
          <ns3:TrackPointExtension>
            <ns3:atemp>19.0</ns3:atemp>
            <ns3:hr>101</ns3:hr>
          </ns3:TrackPointExtension>
        </extensions>
      </trkpt>
      <trkpt lat="48.79170988686382770538330078125" lon="-3.55426129885017871856689453125">
        <ele>5</ele>
        <time>2026-05-10T11:06:28.000Z</time>
        <extensions>
          <ns3:TrackPointExtension>
            <ns3:atemp>19.0</ns3:atemp>
            <ns3:hr>99</ns3:hr>
          </ns3:TrackPointExtension>
        </extensions>
      </trkpt>
      <trkpt lat="48.79163570702075958251953125" lon="-3.554208911955356597900390625">
        <ele>4.80000019073486328125</ele>
        <time>2026-05-10T11:06:34.000Z</time>
        <extensions>
          <ns3:TrackPointExtension>
            <ns3:atemp>19.0</ns3:atemp>
            <ns3:hr>99</ns3:hr>
          </ns3:TrackPointExtension>
        </extensions>
      </trkpt>
      <trkpt lat="48.79162757657468318939208984375" lon="-3.5541996918618679046630859375">
        <ele>5</ele>
        <time>2026-05-10T11:06:35.000Z</time>
        <extensions>
          <ns3:TrackPointExtension>
            <ns3:atemp>19.0</ns3:atemp>
            <ns3:hr>98</ns3:hr>
          </ns3:TrackPointExtension>
        </extensions>
      </trkpt>
      <trkpt lat="48.7915691547095775604248046875" lon="-3.554151915013790130615234375">
        <ele>5.599999904632568359375</ele>
        <time>2026-05-10T11:06:40.000Z</time>
        <extensions>
          <ns3:TrackPointExtension>
            <ns3:atemp>19.0</ns3:atemp>
            <ns3:hr>99</ns3:hr>
          </ns3:TrackPointExtension>
        </extensions>
      </trkpt>
      <trkpt lat="48.7915329448878765106201171875" lon="-3.55408527888357639312744140625">
        <ele>5.19999980926513671875</ele>
        <time>2026-05-10T11:06:46.000Z</time>
        <extensions>
          <ns3:TrackPointExtension>
            <ns3:atemp>19.0</ns3:atemp>
            <ns3:hr>101</ns3:hr>
          </ns3:TrackPointExtension>
        </extensions>
      </trkpt>
      <trkpt lat="48.79151559434831142425537109375" lon="-3.554042279720306396484375">
        <ele>5.80000019073486328125</ele>
        <time>2026-05-10T11:06:52.000Z</time>
        <extensions>
          <ns3:TrackPointExtension>
            <ns3:atemp>19.0</ns3:atemp>
            <ns3:hr>102</ns3:hr>
          </ns3:TrackPointExtension>
        </extensions>
      </trkpt>
      <trkpt lat="48.79151492379605770111083984375" lon="-3.55404286645352840423583984375">
        <ele>6</ele>
        <time>2026-05-10T11:06:53.000Z</time>
        <extensions>
          <ns3:TrackPointExtension>
            <ns3:atemp>19.0</ns3:atemp>
            <ns3:hr>102</ns3:hr>
          </ns3:TrackPointExtension>
        </extensions>
      </trkpt>
      <trkpt lat="48.7915161810815334320068359375" lon="-3.554031215608119964599609375">
        <ele>6.19999980926513671875</ele>
        <time>2026-05-10T11:06:54.000Z</time>
        <extensions>
          <ns3:TrackPointExtension>
            <ns3:atemp>19.0</ns3:atemp>
            <ns3:hr>102</ns3:hr>
          </ns3:TrackPointExtension>
        </extensions>
      </trkpt>
      <trkpt lat="48.7915047816932201385498046875" lon="-3.55401990003883838653564453125">
        <ele>6.599999904632568359375</ele>
        <time>2026-05-10T11:06:56.000Z</time>
        <extensions>
          <ns3:TrackPointExtension>
            <ns3:atemp>19.0</ns3:atemp>
            <ns3:hr>102</ns3:hr>
          </ns3:TrackPointExtension>
        </extensions>
      </trkpt>
      <trkpt lat="48.79149983637034893035888671875" lon="-3.55402107350528240203857421875">
        <ele>6.599999904632568359375</ele>
        <time>2026-05-10T11:06:57.000Z</time>
        <extensions>
          <ns3:TrackPointExtension>
            <ns3:atemp>19.0</ns3:atemp>
            <ns3:hr>102</ns3:hr>
          </ns3:TrackPointExtension>
        </extensions>
      </trkpt>
      <trkpt lat="48.79149346612393856048583984375" lon="-3.55405661277472972869873046875">
        <ele>7</ele>
        <time>2026-05-10T11:07:02.000Z</time>
        <extensions>
          <ns3:TrackPointExtension>
            <ns3:atemp>19.0</ns3:atemp>
            <ns3:hr>100</ns3:hr>
          </ns3:TrackPointExtension>
        </extensions>
      </trkpt>
      <trkpt lat="48.7914685718715190887451171875" lon="-3.55413473211228847503662109375">
        <ele>7.19999980926513671875</ele>
        <time>2026-05-10T11:07:07.000Z</time>
        <extensions>
          <ns3:TrackPointExtension>
            <ns3:atemp>19.0</ns3:atemp>
            <ns3:hr>98</ns3:hr>
          </ns3:TrackPointExtension>
        </extensions>
      </trkpt>
      <trkpt lat="48.79147066734731197357177734375" lon="-3.55414747260510921478271484375">
        <ele>7</ele>
        <time>2026-05-10T11:07:12.000Z</time>
        <extensions>
          <ns3:TrackPointExtension>
            <ns3:atemp>19.0</ns3:atemp>
            <ns3:hr>98</ns3:hr>
          </ns3:TrackPointExtension>
        </extensions>
      </trkpt>
      <trkpt lat="48.79146748222410678863525390625" lon="-3.55413607321679592132568359375">
        <ele>6.80000019073486328125</ele>
        <time>2026-05-10T11:07:15.000Z</time>
        <extensions>
          <ns3:TrackPointExtension>
            <ns3:atemp>18.0</ns3:atemp>
            <ns3:hr>98</ns3:hr>
          </ns3:TrackPointExtension>
        </extensions>
      </trkpt>
      <trkpt lat="48.79145993851125240325927734375" lon="-3.5541681759059429168701171875">
        <ele>6.80000019073486328125</ele>
        <time>2026-05-10T11:07:18.000Z</time>
        <extensions>
          <ns3:TrackPointExtension>
            <ns3:atemp>18.0</ns3:atemp>
            <ns3:hr>97</ns3:hr>
          </ns3:TrackPointExtension>
        </extensions>
      </trkpt>
      <trkpt lat="48.7914290092885494232177734375" lon="-3.554289378225803375244140625">
        <ele>6.599999904632568359375</ele>
        <time>2026-05-10T11:07:26.000Z</time>
        <extensions>
          <ns3:TrackPointExtension>
            <ns3:atemp>18.0</ns3:atemp>
            <ns3:hr>95</ns3:hr>
          </ns3:TrackPointExtension>
        </extensions>
      </trkpt>
      <trkpt lat="48.7914008460938930511474609375" lon="-3.5543696768581867218017578125">
        <ele>7</ele>
        <time>2026-05-10T11:07:32.000Z</time>
        <extensions>
          <ns3:TrackPointExtension>
            <ns3:atemp>18.0</ns3:atemp>
            <ns3:hr>93</ns3:hr>
          </ns3:TrackPointExtension>
        </extensions>
      </trkpt>
      <trkpt lat="48.791375197470188140869140625" lon="-3.55447704903781414031982421875">
        <ele>7.19999980926513671875</ele>
        <time>2026-05-10T11:07:38.000Z</time>
        <extensions>
          <ns3:TrackPointExtension>
            <ns3:atemp>18.0</ns3:atemp>
            <ns3:hr>92</ns3:hr>
          </ns3:TrackPointExtension>
        </extensions>
      </trkpt>
      <trkpt lat="48.79133488051593303680419921875" lon="-3.554620631039142608642578125">
        <ele>6.19999980926513671875</ele>
        <time>2026-05-10T11:07:46.000Z</time>
        <extensions>
          <ns3:TrackPointExtension>
            <ns3:atemp>18.0</ns3:atemp>
            <ns3:hr>93</ns3:hr>
          </ns3:TrackPointExtension>
        </extensions>
      </trkpt>
      <trkpt lat="48.79130654968321323394775390625" lon="-3.5547914542257785797119140625">
        <ele>6.19999980926513671875</ele>
        <time>2026-05-10T11:07:54.000Z</time>
        <extensions>
          <ns3:TrackPointExtension>
            <ns3:atemp>18.0</ns3:atemp>
            <ns3:hr>92</ns3:hr>
          </ns3:TrackPointExtension>
        </extensions>
      </trkpt>
      <trkpt lat="48.79128961823880672454833984375" lon="-3.5548823140561580657958984375">
        <ele>6.400000095367431640625</ele>
        <time>2026-05-10T11:07:59.000Z</time>
        <extensions>
          <ns3:TrackPointExtension>
            <ns3:atemp>18.0</ns3:atemp>
            <ns3:hr>92</ns3:hr>
          </ns3:TrackPointExtension>
        </extensions>
      </trkpt>
      <trkpt lat="48.79127955995500087738037109375" lon="-3.55494358576834201812744140625">
        <ele>6</ele>
        <time>2026-05-10T11:08:02.000Z</time>
        <extensions>
          <ns3:TrackPointExtension>
            <ns3:atemp>18.0</ns3:atemp>
            <ns3:hr>93</ns3:hr>
          </ns3:TrackPointExtension>
        </extensions>
      </trkpt>
      <trkpt lat="48.79127218388020992279052734375" lon="-3.554999493062496185302734375">
        <ele>5.80000019073486328125</ele>
        <time>2026-05-10T11:08:05.000Z</time>
        <extensions>
          <ns3:TrackPointExtension>
            <ns3:atemp>18.0</ns3:atemp>
            <ns3:hr>93</ns3:hr>
          </ns3:TrackPointExtension>
        </extensions>
      </trkpt>
      <trkpt lat="48.79126413725316524505615234375" lon="-3.55512119829654693603515625">
        <ele>5.19999980926513671875</ele>
        <time>2026-05-10T11:08:11.000Z</time>
        <extensions>
          <ns3:TrackPointExtension>
            <ns3:atemp>18.0</ns3:atemp>
            <ns3:hr>93</ns3:hr>
          </ns3:TrackPointExtension>
        </extensions>
      </trkpt>
      <trkpt lat="48.79126313142478466033935546875" lon="-3.55514206923544406890869140625">
        <ele>5</ele>
        <time>2026-05-10T11:08:12.000Z</time>
        <extensions>
          <ns3:TrackPointExtension>
            <ns3:atemp>18.0</ns3:atemp>
            <ns3:hr>94</ns3:hr>
          </ns3:TrackPointExtension>
        </extensions>
      </trkpt>
      <trkpt lat="48.79126899875700473785400390625" lon="-3.5552541352808475494384765625">
        <ele>5.19999980926513671875</ele>
        <time>2026-05-10T11:08:20.000Z</time>
        <extensions>
          <ns3:TrackPointExtension>
            <ns3:atemp>18.0</ns3:atemp>
            <ns3:hr>96</ns3:hr>
          </ns3:TrackPointExtension>
        </extensions>
      </trkpt>
      <trkpt lat="48.79128676839172840118408203125" lon="-3.55529009364545345306396484375">
        <ele>5.400000095367431640625</ele>
        <time>2026-05-10T11:08:25.000Z</time>
        <extensions>
          <ns3:TrackPointExtension>
            <ns3:atemp>18.0</ns3:atemp>
            <ns3:hr>97</ns3:hr>
          </ns3:TrackPointExtension>
        </extensions>
      </trkpt>
      <trkpt lat="48.7912784703075885772705078125" lon="-3.55528942309319972991943359375">
        <ele>5.400000095367431640625</ele>
        <time>2026-05-10T11:08:26.000Z</time>
        <extensions>
          <ns3:TrackPointExtension>
            <ns3:atemp>18.0</ns3:atemp>
            <ns3:hr>97</ns3:hr>
          </ns3:TrackPointExtension>
        </extensions>
      </trkpt>
      <trkpt lat="48.7912593595683574676513671875" lon="-3.55531993322074413299560546875">
        <ele>5.400000095367431640625</ele>
        <time>2026-05-10T11:08:31.000Z</time>
        <extensions>
          <ns3:TrackPointExtension>
            <ns3:atemp>18.0</ns3:atemp>
            <ns3:hr>97</ns3:hr>
          </ns3:TrackPointExtension>
        </extensions>
      </trkpt>
      <trkpt lat="48.79126614890992641448974609375" lon="-3.55532663874328136444091796875">
        <ele>4.80000019073486328125</ele>
        <time>2026-05-10T11:08:38.000Z</time>
        <extensions>
          <ns3:TrackPointExtension>
            <ns3:atemp>18.0</ns3:atemp>
            <ns3:hr>98</ns3:hr>
          </ns3:TrackPointExtension>
        </extensions>
      </trkpt>
    </trkseg>
  </trk>
</gpx>
